GFSWCAN_850_rhum_000.txt.gz
RH
97 97 94 95 95 92 91 93 91 88 89 93 99 95 96 99 99 99 100 100 97 88 83 80 78 82 89 86 94 92 100 98 99 98 96 96 77 92 88 80 83 85 89 86 81 93 92 49 38 38 46 50 56 56
96 95 94 96 97 92 90 82 92 89 91 92 94 94 93 92 99 100 100 100 100 98 94 88 83 85 87 80 88 97 99 94 85 91 90 94 85 94 70 95 68 85 77 80 83 79 58 50 47 51 43 52 59 54
94 99 99 97 91 95 94 94 91 95 89 90 79 93 89 91 99 100 99 100 100 100 98 98 88 83 85 87 88 97 97 92 96 84 85 87 72 80 94 86 80 69 63 71 66 57 54 52 51 49 46 47 51 50
100 97 88 100 99 97 89 91 84 96 86 90 87 82 80 80 99 100 100 100 100 95 97 89 89 93 87 86 91 96 99 97 95 97 88 86 85 76 80 66 81 76 72 67 66 58 55 53 52 49 48 49 51 54
99 99 97 79 76 99 84 86 80 72 88 78 80 70 73 75 98 98 100 99 100 94 97 96 93 91 89 86 90 100 100 100 100 99 98 90 91 84 86 81 79 64 75 73 76 54 51 52 51 51 48 52 52 52
84 78 80 82 85 96 83 77 76 65 76 51 83 88 88 77 97 100 100 98 99 100 92 100 98 94 91 93 100 100 98 100 100 100 94 87 78 84 92 89 63 49 43 48 52 45 48 47 54 52 50 53 52 48
82 77 75 84 72 76 78 72 70 79 40 80 78 86 81 71 97 100 99 100 98 99 95 99 99 99 98 98 100 99 89 100 96 98 96 85 83 80 86 91 63 56 48 46 45 47 65 60 61 56 51 53 49 46
76 55 76 80 68 82 78 78 74 36 81 83 78 70 71 77 93 97 95 99 100 99 94 100 100 99 98 99 99 95 89 92 89 95 88 89 81 86 93 78 63 58 56 56 52 46 46 56 58 57 53 52 50 52
46 42 60 79 75 57 87 65 65 85 91 80 72 87 93 98 100 91 88 98 100 94 96 99 100 100 97 100 94 100 98 99 94 96 94 90 90 92 74 69 62 59 53 58 56 54 59 58 61 60 55 50 42 41
37 36 39 39 34 39 48 88 90 99 72 77 100 100 99 97 98 98 100 100 97 96 97 98 91 99 98 98 98 93 98 99 100 96 90 97 97 71 61 57 52 53 50 53 64 75 68 66 60 58 49 41 35 34
37 37 32 32 31 32 58 90 95 99 77 98 92 99 99 100 100 97 98 99 100 100 100 92 93 97 92 93 96 93 99 100 96 94 94 94 96 84 58 59 60 51 51 50 46 47 54 52 56 51 44 38 36 33
42 42 35 33 28 27 48 99 96 90 99 99 98 98 96 100 100 100 100 100 100 97 99 98 97 83 91 80 90 93 96 97 89 92 97 97 86 68 66 69 65 55 54 53 52 52 57 56 53 46 39 37 32 26
41 45 43 34 30 28 56 94 95 95 93 94 99 98 99 99 100 99 99 100 100 100 100 96 97 78 81 78 95 93 93 96 86 96 96 90 82 72 72 74 69 62 60 58 58 58 58 55 48 41 36 31 27 32
40 43 40 33 35 34 32 94 98 99 99 99 99 98 99 99 98 92 91 95 81 88 99 84 93 90 79 92 92 91 96 88 97 100 89 90 73 71 73 75 67 70 64 60 61 62 58 52 43 37 29 26 29 36
40 38 36 34 36 30 26 33 93 99 99 99 99 97 99 99 99 96 98 97 96 99 85 81 82 76 95 92 86 91 97 99 95 84 85 68 72 75 76 76 70 68 64 62 63 60 52 44 36 32 33 36 37 41
45 39 42 38 30 26 26 53 99 99 99 99 99 99 99 100 99 98 95 94 100 91 72 66 91 87 90 89 95 92 94 94 80 91 66 66 75 76 75 73 69 67 65 65 59 51 43 34 31 37 46 44 43 42
42 45 42 35 25 25 32 100 100 100 100 99 99 100 100 100 99 94 92 96 97 80 91 93 82 77 94 98 98 90 85 82 79 78 67 70 75 75 73 71 69 68 66 60 50 41 35 38 39 42 45 52 51 52
45 43 40 31 26 24 55 100 100 100 99 99 100 99 99 100 100 96 90 92 99 90 76 81 86 99 97 90 92 88 84 92 88 76 73 80 79 73 70 69 68 65 60 50 40 37 39 39 37 44 48 55 55 55
44 43 34 29 30 56 98 99 99 100 98 100 97 100 100 100 100 100 94 96 98 85 70 83 89 94 92 93 89 97 91 74 74 84 87 86 77 70 68 66 63 58 49 39 39 40 41 40 41 48 52 56 52 55
40 34 29 28 30 95 98 93 94 99 99 94 98 99 99 99 99 100 100 100 96 72 84 94 89 83 83 78 75 70 73 70 65 90 90 83 74 67 64 62 56 45 40 44 44 44 50 54 57 58 59 57 55 60
36 32 31 30 49 73 93 91 86 97 100 100 92 94 99 99 99 100 100 99 82 100 100 99 89 75 69 65 62 60 67 68 67 72 85 80 76 67 63 56 45 44 43 47 49 58 58 61 66 66 64 63 66 70
46 40 40 43 58 68 80 89 76 80 99 95 92 90 100 98 98 98 99 99 98 98 99 100 94 76 72 70 72 74 70 72 72 74 80 73 75 69 60 53 49 48 48 48 50 57 63 64 67 68 68 70 74 74
48 44 48 51 53 54 60 60 86 90 100 94 93 97 97 97 97 97 97 96 96 96 97 100 97 88 85 85 80 79 80 74 76 84 80 75 70 66 59 54 45 42 51 60 59 60 63 70 72 72 74 76 73 63
52 51 46 49 62 76 62 66 74 91 94 96 98 95 95 97 96 96 95 96 97 97 96 98 100 100 99 93 88 88 90 92 90 94 84 71 68 71 56 52 54 53 53 60 65 64 68 74 77 77 76 69 60 54
61 48 58 60 72 80 100 94 96 96 99 96 98 95 96 96 97 96 96 95 93 96 96 97 97 97 98 100 100 100 100 100 98 96 97 85 70 74 76 70 63 61 60 61 69 69 74 78 79 74 66 57 53 49
66 58 66 79 86 86 95 98 99 98 98 98 96 95 97 97 96 94 93 97 95 95 96 96 96 97 97 98 100 100 100 100 97 90 94 96 93 79 77 68 70 74 74 69 69 73 79 78 71 62 56 52 46 35
76 72 83 83 87 89 92 86 85 96 100 100 97 96 97 96 94 93 95 95 95 95 95 96 96 96 96 97 98 97 96 97 97 95 96 98 98 91 62 54 65 74 87 89 84 74 69 68 60 56 52 44 32 29
80 78 86 92 97 94 94 98 100 100 99 87 88 96 96 95 94 94 94 95 95 95 95 96 96 96 96 96 96 97 97 98 97 96 87 81 83 92 96 97 96 92 86 78 73 68 61 58 55 50 37 30 30 31
97 100 90 100 100 100 100 94 97 97 98 95 100 96 94 93 93 95 95 95 96 96 96 96 96 96 96 96 96 97 97 97 91 95 95 95 96 96 96 89 80 78 72 64 60 58 56 51 40 33 32 32 34 36
88 98 100 100 98 92 87 92 95 99 98 96 98 95 93 93 94 96 96 96 96 96 96 96 96 96 96 96 96 96 96 97 98 96 94 95 95 90 83 74 69 64 61 59 57 52 42 37 35 34 35 38 39 36
94 98 99 98 96 96 98 97 98 100 96 96 97 97 94 94 95 95 96 96 96 96 96 96 96 96 96 96 96 96 91 86 88 86 74 67 71 71 66 62 59 58 57 53 46 40 37 37 38 41 42 39 31 27
97 96 99 100 100 100 100 100 99 98 98 97 97 98 96 95 95 96 95 96 96 96 96 96 96 96 96 94 80 67 57 53 56 56 56 56 58 58 59 60 57 52 46 41 41 42 44 47 47 42 35 25 23 25
97 95 99 98 100 100 100 98 99 97 97 95 96 97 96 96 95 96 95 95 96 96 96 96 96 96 94 83 58 56 58 57 60 61 58 58 58 59 58 55 48 45 46 48 51 53 51 45 37 26 21 25 28 26

GFSWCAN_850_rhum_003.txt.gz
RH
98 99 99 99 98 97 94 91 91 90 94 90 92 95 97 87 98 99 98 100 98 83 83 78 75 82 86 79 93 90 99 100 98 94 97 90 90 91 84 75 82 80 75 93 88 91 85 53 43 50 50 58 49 54
99 98 98 98 98 99 97 93 91 86 84 88 84 96 98 89 96 97 99 100 100 90 89 81 80 77 77 80 81 93 94 95 93 93 92 90 90 94 84 91 74 86 74 78 73 76 60 52 52 53 50 58 62 55
98 100 99 94 94 82 88 88 90 84 81 81 89 93 97 75 92 100 99 99 100 100 89 92 80 81 85 86 85 94 94 90 97 96 90 89 82 89 85 92 81 73 68 74 69 60 58 53 56 49 48 50 58 55
99 89 86 83 95 82 78 90 82 79 79 82 90 88 93 85 87 98 99 99 100 98 98 87 85 89 86 87 91 92 95 99 99 100 97 90 85 76 83 76 83 80 68 72 72 60 57 54 55 49 51 51 55 58
90 90 74 73 79 81 80 78 80 78 75 78 47 69 96 92 90 80 97 98 98 100 97 95 95 92 90 87 89 96 100 100 99 100 99 92 91 86 90 85 86 74 76 76 80 58 52 54 53 51 50 54 55 54
83 84 46 40 48 72 85 74 71 82 82 37 37 80 93 93 87 92 98 97 99 100 99 100 97 97 91 93 96 100 100 100 100 100 96 91 82 83 93 93 72 56 51 56 60 52 51 52 56 53 52 56 57 53
64 68 37 34 41 50 59 87 65 52 43 82 82 56 63 71 86 97 99 100 100 100 99 100 98 100 99 94 100 99 96 100 100 100 99 92 92 86 89 92 66 58 53 48 52 49 63 62 59 56 52 58 56 48
56 40 34 33 33 29 37 71 90 89 91 76 47 48 62 68 67 68 89 100 100 100 95 100 99 99 98 99 100 98 92 95 94 98 96 95 87 86 93 80 67 61 62 58 56 52 48 56 59 58 56 55 48 42
52 41 35 35 36 33 33 82 88 88 94 76 74 96 96 86 89 92 97 100 99 97 98 99 100 100 98 100 95 100 100 99 100 98 97 94 92 94 77 70 72 62 57 62 59 54 59 56 61 61 56 49 42 46
63 47 38 39 37 43 31 90 92 98 86 76 90 100 100 100 98 100 98 100 100 98 100 99 90 94 99 99 99 96 98 99 100 96 94 99 97 73 61 56 56 57 54 57 62 77 71 68 62 61 55 47 40 39
83 49 40 43 41 40 31 58 90 94 83 86 94 98 93 98 98 100 98 100 100 100 100 97 91 92 94 95 96 95 99 99 97 91 97 96 94 87 61 57 61 57 54 54 50 48 55 52 56 56 52 43 35 31
64 40 36 43 41 34 35 54 94 93 98 99 99 97 95 99 100 99 99 100 100 94 99 98 97 80 89 84 90 94 97 94 85 94 98 98 87 70 69 70 65 59 55 55 53 50 54 56 55 52 44 36 33 32
35 36 36 41 37 34 36 32 95 90 99 94 99 99 98 98 99 99 98 100 100 100 100 97 98 79 83 83 95 93 93 96 87 97 96 93 82 67 70 70 74 64 61 57 55 55 55 57 54 45 37 35 33 30
31 29 35 38 38 32 30 24 26 93 100 99 98 96 98 98 99 99 96 97 87 99 95 80 92 90 80 91 93 96 94 86 99 100 88 90 62 65 72 78 75 70 63 57 56 58 58 56 47 39 36 33 26 30
33 31 33 36 36 29 23 22 49 98 98 99 99 97 99 100 99 96 96 99 99 100 84 80 82 74 96 92 88 90 97 99 96 86 88 61 63 76 79 82 76 70 64 60 60 60 57 49 40 38 33 28 29 32
40 32 39 37 34 22 23 26 97 98 99 100 99 98 99 100 100 100 90 94 99 97 73 65 90 90 89 90 95 95 94 95 80 91 63 61 71 79 80 79 74 68 65 64 63 59 51 43 38 34 36 36 36 37
44 41 39 34 28 22 24 93 98 99 100 99 98 99 99 99 99 100 100 89 98 92 96 92 86 78 93 99 98 90 86 84 76 65 69 65 74 76 79 78 74 70 67 66 62 54 46 40 33 32 38 47 46 50
55 43 39 32 27 22 46 98 98 99 95 100 98 96 99 99 99 100 100 92 98 98 80 83 84 99 90 88 89 86 77 77 77 75 72 73 78 77 77 74 72 70 68 65 57 49 39 34 33 38 40 49 51 53
50 46 39 33 28 30 75 96 98 100 99 98 100 91 98 99 94 99 99 99 100 100 83 84 88 93 92 93 88 74 73 74 71 75 78 82 79 76 75 74 72 70 65 59 49 40 37 35 32 38 42 48 46 49
46 38 32 31 27 33 92 92 95 100 98 96 99 99 97 97 92 94 94 100 100 98 95 92 86 77 78 73 70 75 74 66 61 78 88 84 80 76 74 72 71 68 59 48 41 38 39 42 43 43 44 47 44 47
41 36 35 30 36 56 80 85 88 91 100 100 100 98 92 89 100 100 100 100 100 100 100 100 91 80 72 68 66 55 64 68 63 54 60 83 80 75 72 70 67 60 48 43 42 47 42 41 49 53 50 50 52 56
49 45 42 38 50 63 69 86 82 69 86 100 98 94 99 99 96 97 99 99 98 97 97 98 99 93 78 67 61 53 62 68 71 67 70 71 76 76 72 69 65 55 48 44 40 40 48 50 54 55 56 58 63 67
54 47 43 44 49 51 58 60 86 92 99 98 95 98 96 98 95 89 97 96 96 97 98 97 98 97 86 78 71 66 72 75 75 74 80 80 77 74 71 67 57 44 46 46 43 46 53 59 60 60 62 66 71 71
55 50 48 48 53 66 54 66 74 92 93 95 100 98 92 98 92 98 96 96 97 96 96 96 96 98 98 92 85 82 85 88 85 85 86 82 79 79 73 62 56 47 40 43 54 58 59 62 65 66 68 70 69 59
67 52 58 56 71 75 94 96 100 96 100 98 100 97 94 97 97 98 96 94 89 94 95 96 96 96 97 97 99 96 94 93 95 96 94 86 75 78 77 67 57 52 49 47 60 61 63 64 68 70 72 66 57 52
75 53 71 67 78 77 90 84 98 96 100 100 98 92 93 98 97 97 98 94 94 94 95 95 95 96 96 97 97 97 98 98 99 98 97 95 85 72 69 64 63 66 62 57 53 58 65 71 74 71 63 55 51 46
79 73 72 75 81 86 90 89 87 96 100 100 100 99 100 98 96 94 93 93 95 95 95 96 96 96 96 95 96 96 97 97 97 96 96 96 97 93 71 74 60 63 68 64 63 64 65 76 71 61 54 50 41 31
78 74 89 96 98 91 89 98 100 99 100 92 91 100 97 93 91 87 82 88 93 93 95 94 95 95 96 96 96 96 96 96 97 97 97 98 98 98 98 98 77 70 73 92 94 94 84 66 59 54 49 42 31 28
96 97 81 100 100 100 100 89 92 86 90 89 96 97 94 88 84 84 85 91 94 95 95 96 96 96 96 96 96 96 96 97 96 96 96 96 96 97 93 82 95 97 96 95 86 69 60 56 52 46 35 30 29 30
93 95 99 100 98 92 78 84 90 99 93 90 89 92 89 83 83 88 91 94 96 95 96 95 96 96 96 96 96 96 96 96 97 94 91 94 94 95 97 96 96 94 86 67 60 58 54 47 38 33 31 32 34 36
95 98 97 97 96 91 93 95 98 100 99 96 96 99 91 88 91 92 94 96 95 95 96 96 96 96 96 96 96 96 96 97 97 98 96 96 96 96 96 95 88 70 62 58 56 50 42 36 34 34 36 38 34 27
98 97 99 100 100 100 100 99 99 98 100 100 98 100 97 96 96 95 96 96 95 95 96 96 96 96 96 96 96 96 96 95 97 96 96 96 95 85 70 63 60 58 55 49 43 39 37 37 40 43 40 30 21 20
97 96 99 97 100 100 100 100 100 97 99 97 97 98 97 96 96 95 95 96 95 95 96 96 96 96 96 95 94 92 87 84 86 85 77 66 62 60 59 57 53 47 43 40 40 42 46 47 43 34 23 20 20 20

GFSWCAN_850_rhum_006.txt.gz
RH
78 86 95 96 93 93 83 85 94 91 84 87 79 86 92 93 96 99 99 99 100 90 86 78 77 80 82 78 88 92 93 98 99 99 99 98 99 89 87 74 86 89 87 89 89 93 74 56 61 72 59 53 57 68
80 86 94 98 96 89 85 76 84 91 82 79 77 88 91 98 96 98 98 100 100 95 86 81 77 76 74 75 73 88 90 93 91 98 94 91 95 93 88 88 78 90 75 78 80 73 58 55 56 54 54 57 58 58
86 97 91 96 95 82 80 78 79 83 78 78 82 88 48 92 94 99 98 100 96 86 85 86 81 77 80 78 79 87 95 88 93 100 96 91 89 91 93 89 81 74 75 80 72 59 64 55 58 54 55 59 60 55
87 90 92 86 86 91 70 81 75 84 84 81 89 41 36 74 85 95 90 99 99 100 97 85 85 83 77 82 88 90 86 97 98 98 98 94 87 79 86 81 85 79 71 74 75 67 58 54 56 54 56 62 62 61
89 97 87 46 38 57 67 87 85 80 73 40 43 72 66 72 83 74 73 95 100 100 98 96 94 90 90 88 90 94 95 100 99 99 98 97 88 88 92 87 88 78 76 76 80 62 57 56 55 55 56 60 60 57
89 85 84 38 30 28 26 54 91 88 91 89 90 92 81 54 68 78 97 85 99 100 100 99 97 95 88 90 97 100 100 99 99 98 98 95 85 81 94 94 71 60 59 60 64 54 54 57 57 57 53 58 60 59
96 67 100 89 53 30 30 42 71 90 90 93 92 92 89 44 54 85 97 100 100 100 99 100 99 99 100 100 100 99 100 99 98 90 99 97 93 87 94 95 68 60 58 54 57 52 62 62 58 57 53 57 59 60
95 98 100 97 98 56 40 52 81 88 90 95 94 78 64 54 50 53 67 90 100 100 100 100 100 98 99 99 100 99 99 99 100 98 98 97 91 90 98 83 68 66 64 58 56 54 53 53 59 60 58 58 57 52
99 97 99 100 94 96 67 78 92 62 90 72 76 87 98 99 93 90 93 100 99 100 98 99 100 99 99 100 96 100 100 99 99 98 98 98 95 98 83 77 70 66 61 64 62 57 59 58 63 64 59 55 44 41
98 92 100 78 74 93 97 95 57 78 87 71 90 90 99 100 99 97 100 100 100 99 100 99 90 93 96 99 100 97 97 99 100 96 94 99 97 72 61 57 55 59 59 60 63 77 72 73 65 64 57 47 38 37
98 54 68 65 56 76 90 64 57 80 75 83 86 98 84 95 97 100 100 100 98 100 100 95 88 92 96 96 96 96 99 99 99 91 98 98 95 86 70 60 59 58 56 56 52 48 52 52 59 59 54 44 40 41
88 33 34 36 39 49 44 37 37 65 96 99 98 97 98 98 100 100 100 100 95 92 99 98 97 82 92 87 92 95 97 96 87 92 99 97 89 72 71 74 69 60 56 55 52 49 52 55 56 54 48 44 41 37
67 33 35 34 36 38 43 30 24 38 92 91 98 99 98 98 98 99 98 99 100 100 99 97 98 82 86 84 95 92 93 94 88 98 97 93 80 66 69 70 74 64 59 56 54 56 56 58 58 52 46 44 36 33
45 30 34 32 34 36 35 23 23 78 100 95 100 94 98 97 99 99 99 99 95 99 100 84 92 94 82 93 92 97 94 89 98 99 89 90 62 59 69 73 78 69 64 59 57 58 60 60 58 51 42 35 33 30
40 31 29 32 35 30 24 22 46 98 97 97 100 97 98 100 99 99 100 100 98 99 96 81 83 75 95 94 90 94 97 98 97 89 88 61 62 72 77 79 80 74 69 63 61 61 62 60 54 44 37 36 31 26
43 34 32 33 28 27 25 36 99 98 98 99 99 97 96 98 97 98 99 99 93 100 91 78 91 91 88 92 96 99 98 97 82 91 60 58 63 76 79 82 80 74 67 63 63 64 62 56 44 39 40 34 29 29
54 45 44 30 22 26 30 92 98 97 100 96 98 99 98 100 99 100 100 99 100 100 100 96 89 80 92 98 98 90 87 84 73 59 57 58 70 76 79 81 78 73 68 66 65 64 57 48 42 38 34 40 38 42
61 47 47 34 26 24 39 99 97 97 89 91 99 95 98 91 96 98 100 100 99 100 97 93 83 100 91 92 90 87 75 70 62 66 67 64 75 78 80 78 76 72 68 67 64 59 49 43 37 33 33 42 46 50
74 62 44 37 33 31 41 74 96 95 95 97 98 99 99 94 78 83 98 100 100 100 100 99 93 94 91 92 89 64 65 66 69 70 72 74 79 79 80 79 75 72 70 67 61 51 45 39 33 32 35 44 42 48
71 55 41 37 32 27 45 78 89 98 94 98 100 99 100 97 77 79 99 100 100 100 100 99 93 78 79 76 76 74 76 70 70 74 76 80 78 79 79 76 75 74 72 67 57 48 42 39 38 37 36 42 40 44
62 40 39 37 36 35 59 82 91 90 100 96 99 100 95 92 99 97 99 100 100 100 100 100 99 96 86 76 71 66 65 72 62 59 58 74 77 78 77 77 75 74 69 62 52 49 40 36 41 45 44 45 45 46
60 50 50 41 39 61 71 88 92 77 78 99 99 100 100 98 99 96 93 100 99 97 97 97 96 97 98 90 78 62 62 73 75 67 61 63 67 77 79 75 76 73 68 56 47 40 40 38 41 45 48 48 50 53
62 52 48 46 53 55 59 69 81 95 98 97 98 98 97 100 90 86 99 97 98 97 96 96 96 97 97 97 98 82 77 79 75 75 72 69 69 72 77 77 74 68 60 53 45 42 40 45 50 50 50 53 58 64
62 56 56 48 55 53 55 68 76 91 95 99 100 97 89 95 94 99 98 98 92 86 93 94 95 95 96 97 97 98 96 89 85 80 78 76 78 83 80 78 75 65 54 48 47 46 48 52 53 53 55 58 65 66
67 60 58 58 71 75 79 98 100 95 99 100 100 100 95 100 100 100 100 91 74 85 88 94 95 95 95 95 96 97 98 98 93 86 88 86 84 86 87 82 77 66 56 46 51 53 55 54 56 56 61 65 66 58
78 58 70 70 74 71 81 76 98 94 99 100 100 93 92 98 99 98 95 84 87 81 85 92 95 93 92 96 96 96 97 97 100 100 96 93 91 84 81 82 80 75 60 52 42 50 55 59 61 66 70 67 57 52
84 77 60 63 70 76 85 89 86 95 100 100 100 99 100 100 100 91 89 83 77 77 82 88 97 96 94 93 95 96 96 97 97 99 98 100 98 97 92 88 87 72 63 56 53 53 50 62 67 70 66 55 51 44
79 73 90 92 95 89 86 97 99 100 96 90 97 99 100 94 89 81 77 77 79 81 82 86 94 96 94 95 95 96 96 96 97 98 100 99 98 97 97 97 95 80 87 90 69 64 63 66 73 79 56 50 42 30
97 91 75 100 100 100 98 83 86 69 77 81 92 95 91 80 74 76 76 80 84 88 88 87 88 94 95 95 95 96 96 96 96 100 95 95 98 98 97 97 98 98 95 78 82 96 97 94 67 54 47 38 30 30
96 94 92 99 94 89 69 76 83 93 89 84 83 84 79 72 70 74 81 86 91 93 95 96 95 95 95 95 96 96 96 96 96 94 89 95 95 96 97 97 97 93 95 97 95 93 82 56 51 42 33 30 32 34
98 98 95 94 95 90 86 89 94 100 98 94 92 95 88 81 80 81 87 92 95 96 98 98 96 95 95 96 96 96 96 96 96 97 97 96 96 96 97 97 97 96 96 96 94 68 54 46 38 33 33 36 36 30
98 98 99 100 100 100 100 99 98 98 98 100 96 99 95 95 92 87 90 95 95 97 97 96 96 96 95 96 96 95 96 95 96 96 97 96 96 96 96 96 96 96 82 59 54 48 40 35 34 38 39 34 26 19
98 98 100 97 100 100 100 99 100 100 100 100 98 100 98 97 94 89 92 95 95 96 96 95 96 96 96 96 96 96 96 97 97 96 97 97 97 96 95 94 92 81 57 46 40 37 37 41 42 38 29 22 16 15

GFSWCAN_850_rhum_009.txt.gz
RH
76 90 100 93 89 52 50 80 91 85 75 77 82 83 86 35 70 98 100 100 100 100 88 72 68 74 83 79 88 84 92 95 99 99 99 97 94 90 91 76 87 87 97 97 88 94 79 59 75 82 63 57 61 75
28 89 100 92 57 14 34 39 92 67 77 77 83 94 76 42 83 88 97 99 100 100 90 82 76 70 71 69 72 84 86 90 91 90 97 94 91 90 89 90 80 92 75 78 82 73 58 56 58 52 60 63 62 67
31 91 100 93 53 15 30 53 66 34 71 76 75 89 58 42 93 94 91 98 100 94 81 86 81 77 76 75 76 81 94 83 88 92 99 93 99 87 94 93 81 76 77 84 73 61 68 61 56 59 59 63 64 61
43 97 96 73 66 20 32 42 43 43 88 71 85 91 91 52 30 81 61 75 98 100 99 83 80 82 78 80 82 80 83 88 94 98 95 97 97 79 89 82 86 80 78 76 79 70 64 56 56 57 62 67 64 64
58 99 95 57 93 29 41 44 82 43 90 88 90 90 90 85 25 27 39 88 98 100 98 94 92 89 87 84 85 89 91 93 98 99 98 95 87 85 92 90 91 82 76 80 77 62 61 58 59 59 60 66 63 57
70 98 95 98 100 76 87 62 97 92 94 91 88 99 97 93 69 54 99 100 100 100 100 100 99 95 91 92 90 95 95 99 97 97 90 76 81 73 94 95 71 60 61 63 66 57 55 57 60 60 58 65 64 61
87 99 100 96 100 98 99 94 97 97 95 90 90 94 98 98 81 69 96 100 100 100 100 100 98 94 100 99 100 100 99 100 99 93 96 95 99 95 95 99 66 56 58 58 59 56 61 62 60 60 59 64 65 65
82 99 98 84 100 100 95 99 97 95 86 49 88 90 80 78 54 34 39 96 98 100 99 100 98 96 100 100 99 98 100 100 100 96 99 99 96 96 99 83 64 64 59 60 59 56 55 56 60 63 63 66 66 67
74 98 97 69 99 98 100 89 95 94 48 50 65 86 96 99 98 90 84 100 100 100 100 99 99 90 100 100 96 100 100 99 96 99 97 98 96 99 83 78 69 68 65 57 60 61 58 60 63 65 65 66 61 57
86 95 80 35 91 85 84 56 67 78 60 58 80 92 99 96 95 94 97 100 99 99 100 99 85 92 96 98 100 99 98 98 100 96 98 99 98 75 62 65 61 58 66 61 66 74 73 73 66 63 60 58 47 38
83 96 69 29 39 59 52 37 62 90 46 89 89 98 89 98 100 100 100 97 100 96 99 96 87 93 97 97 96 96 99 100 100 92 98 98 97 85 74 73 69 63 62 58 57 54 54 52 60 62 60 50 39 38
76 98 49 28 38 38 38 35 55 56 83 99 99 99 99 100 100 100 100 98 98 96 99 98 94 80 91 91 93 97 97 98 93 91 98 96 90 68 67 71 73 68 63 61 57 53 54 57 59 58 53 44 40 41
60 98 37 29 37 34 37 28 29 31 93 88 99 98 98 99 98 98 98 99 100 100 100 100 99 86 90 87 95 93 97 94 89 94 96 94 78 63 67 72 79 71 64 62 58 57 57 60 62 57 48 43 44 44
65 90 34 30 33 34 34 24 27 87 98 96 100 98 97 98 98 99 99 99 99 100 99 96 91 93 86 94 94 94 92 92 96 99 96 90 60 58 64 73 81 72 66 62 58 58 59 62 62 55 46 45 40 35
71 76 35 33 33 28 28 23 76 98 97 94 95 96 99 99 100 99 99 100 100 99 100 89 87 81 96 92 92 94 97 96 91 94 89 64 62 66 75 79 81 75 68 64 60 60 63 63 59 53 49 41 34 29
91 68 34 41 34 26 27 38 98 98 98 94 97 95 90 93 93 89 98 99 100 100 99 90 96 93 89 92 98 99 98 96 82 92 62 62 62 68 76 81 83 78 69 62 60 61 63 62 56 50 42 37 32 25
86 64 50 48 35 25 28 60 98 98 96 93 97 95 96 98 100 92 99 99 99 100 100 100 99 82 91 98 99 93 90 84 68 57 57 60 66 72 74 81 82 78 71 67 64 66 65 61 52 41 39 37 32 35
78 59 50 42 36 29 39 83 95 96 88 88 97 98 98 100 93 85 82 95 98 99 100 100 99 99 95 99 93 89 73 63 56 53 56 55 61 70 76 80 79 75 71 68 67 67 64 54 43 40 34 32 40 46
84 66 56 38 37 37 34 65 92 90 92 95 98 98 98 100 73 77 84 96 99 99 99 100 99 98 93 94 92 73 74 71 68 65 60 58 64 73 75 79 79 75 71 70 70 67 58 48 40 36 32 37 40 48
85 79 60 39 33 31 37 68 73 98 92 97 99 99 99 100 78 70 78 96 99 98 100 99 98 99 98 96 96 95 93 89 82 75 67 66 68 74 78 78 77 76 74 73 70 62 54 47 40 35 33 38 37 43
80 61 44 40 39 35 48 76 92 98 100 97 96 100 96 100 99 100 83 87 93 98 99 100 100 96 96 98 98 91 92 93 85 79 69 66 66 77 80 80 78 76 73 71 65 61 53 44 43 43 42 43 42 42
73 58 51 45 40 51 74 94 98 86 82 94 100 100 100 99 99 100 98 100 99 98 97 95 93 93 88 88 96 98 97 91 91 84 74 69 68 72 79 78 80 77 75 70 61 52 48 44 42 42 44 45 46 46
71 58 53 48 52 56 63 78 72 94 98 97 98 99 99 100 94 91 98 99 99 93 80 86 91 94 96 93 96 97 98 94 98 96 83 73 72 71 75 79 79 76 75 70 59 50 45 46 49 47 47 46 48 51
78 62 60 52 54 54 59 68 80 93 100 100 99 100 85 90 96 99 100 97 88 72 74 68 72 78 80 92 96 96 96 97 97 100 90 83 80 78 80 80 80 78 76 67 59 51 44 45 51 50 48 46 51 58
70 66 60 61 71 72 74 90 97 95 92 100 100 100 100 100 100 100 100 91 75 72 65 67 72 77 88 90 90 95 97 96 97 97 98 94 88 88 90 86 83 80 76 67 58 53 51 46 50 49 48 52 58 62
75 62 65 68 78 72 76 78 97 92 98 100 100 96 95 98 97 100 95 74 76 75 71 70 74 80 75 85 96 91 95 96 96 96 96 97 97 90 86 87 87 87 77 65 52 49 48 47 50 51 57 64 64 55
84 79 59 56 56 64 81 86 84 93 100 99 99 99 100 100 100 88 74 73 76 71 72 73 79 84 84 83 88 96 95 95 96 96 96 97 97 97 95 84 83 80 75 70 55 51 48 51 54 61 67 67 56 50
83 68 83 85 92 84 85 97 98 96 93 82 95 99 97 98 86 62 54 59 66 71 75 79 85 87 86 86 91 96 96 95 95 96 96 96 96 97 98 97 95 97 97 95 63 64 59 52 60 66 64 65 50 39
93 82 72 100 100 100 86 78 80 56 62 79 91 93 88 68 48 49 54 62 72 78 82 85 83 92 88 92 94 95 96 95 95 96 95 95 96 97 99 99 98 98 98 90 93 97 66 71 70 86 94 59 39 30
98 84 84 98 92 89 64 65 73 75 81 82 79 76 70 58 50 56 61 72 79 82 88 91 92 92 91 96 95 95 96 96 95 96 96 95 95 98 100 100 97 97 97 97 96 96 93 94 96 88 46 35 31 33
97 94 91 89 93 86 77 78 83 88 92 87 87 90 85 75 67 62 69 78 82 87 88 87 90 94 96 96 97 96 95 95 94 95 96 96 96 96 96 97 97 97 97 94 90 95 96 96 88 40 32 32 35 32
99 97 97 100 99 99 96 92 93 96 97 96 90 96 92 92 87 77 80 81 86 88 87 92 96 96 96 96 96 96 96 96 95 96 96 96 96 96 96 96 96 97 97 97 97 96 94 55 35 33 35 36 28 21
99 99 100 96 100 100 99 95 100 99 100 99 97 100 99 95 93 80 83 85 88 88 91 96 96 96 96 96 96 96 96 96 96 97 96 96 96 96 96 96 96 97 97 95 86 58 38 34 36 37 33 24 18 16

GFSWCAN_850_rhum_012.txt.gz
RH
54 66 93 99 51 46 28 35 83 54 51 56 93 67 50 37 30 68 72 100 100 99 97 74 65 80 82 74 71 77 85 92 94 96 96 86 86 67 73 62 67 64 78 87 78 76 78 52 60 57 53 56 59 68
54 35 85 100 60 80 29 34 69 24 28 44 78 86 47 50 45 62 93 86 100 100 99 81 74 68 67 62 70 79 79 83 81 93 93 94 82 75 68 66 63 74 59 57 60 54 47 54 54 56 64 64 64 69
25 26 88 98 88 82 63 76 93 71 44 52 89 88 92 77 37 42 48 72 95 100 92 89 85 78 73 73 72 77 87 80 90 83 94 93 97 88 75 69 66 63 61 66 65 49 54 54 59 60 62 73 69 70
20 26 68 98 93 84 100 98 97 95 94 93 91 90 88 92 93 75 37 44 95 100 99 84 82 82 78 76 76 76 77 83 89 96 92 89 94 72 70 69 68 60 67 64 62 53 51 57 61 61 60 68 72 77
24 36 55 96 98 82 98 98 100 99 98 94 93 96 86 99 96 67 32 52 96 99 98 93 92 83 80 80 82 84 85 89 99 97 98 92 79 88 72 76 70 61 57 55 48 53 52 53 62 61 64 68 71 65
22 36 78 97 94 76 99 98 100 99 97 96 94 92 92 93 97 91 98 100 99 98 100 97 98 98 96 94 92 92 97 98 98 95 90 80 74 81 86 76 53 55 61 60 48 56 56 58 62 60 62 66 70 65
23 25 88 94 98 65 96 99 99 98 98 91 92 92 95 100 99 96 96 100 100 100 100 99 94 100 100 98 100 99 99 97 97 94 96 88 83 94 96 81 52 59 59 57 59 60 61 61 63 63 60 66 68 68
22 23 62 97 96 71 94 100 99 98 87 92 92 80 90 96 98 80 38 60 100 100 100 100 96 91 99 99 96 98 99 100 99 97 94 99 97 100 98 72 65 61 62 60 60 61 57 57 62 64 65 66 67 67
23 25 40 92 93 41 43 98 100 74 90 93 74 82 90 94 91 93 99 94 100 100 99 99 100 95 100 100 96 100 99 99 92 100 98 98 90 98 77 67 68 68 67 64 66 64 60 63 64 65 67 69 64 66
25 24 34 93 77 34 35 96 80 88 57 82 80 89 97 86 90 95 97 100 100 100 96 98 82 90 95 99 98 94 100 98 100 92 98 99 97 73 70 74 69 66 62 69 68 74 71 72 67 66 66 66 64 63
28 23 36 97 46 34 36 92 44 39 49 91 86 95 99 98 99 98 100 100 99 100 96 93 86 82 92 90 90 93 96 100 100 90 95 96 85 71 70 66 69 67 67 62 65 62 60 56 63 64 67 67 60 46
30 29 41 94 42 33 33 37 34 30 62 97 99 98 92 99 100 100 100 100 97 96 99 97 91 89 96 95 90 97 98 98 99 83 95 96 75 68 64 69 73 75 70 63 63 59 60 59 60 61 64 62 45 38
33 34 46 93 44 30 30 32 24 39 97 91 96 93 96 98 96 94 96 99 99 98 100 99 99 91 96 90 92 92 96 93 83 96 91 81 72 61 56 68 83 79 67 62 60 57 60 61 62 58 59 49 40 40
33 36 61 82 42 28 34 26 24 94 93 97 96 96 93 95 94 95 99 100 98 100 100 100 95 93 88 96 88 95 84 87 96 98 92 82 61 58 64 73 84 77 70 63 58 57 60 63 64 61 52 40 39 42
36 48 94 52 37 30 29 26 43 98 97 94 92 98 95 97 99 97 96 100 100 100 100 99 91 85 95 95 85 94 96 95 86 86 82 64 58 63 74 76 81 77 71 65 60 59 62 65 63 57 47 44 45 39
46 82 64 36 36 32 30 29 68 97 98 91 97 96 89 91 90 87 93 99 100 99 100 100 99 98 97 91 97 99 97 93 82 96 66 55 57 64 73 77 79 79 71 66 65 65 66 66 60 52 50 50 41 34
90 98 59 49 39 36 31 53 92 96 95 91 90 92 94 99 99 95 88 94 96 100 100 100 100 100 92 95 96 88 90 90 90 72 67 66 66 67 69 75 78 79 73 68 66 68 69 66 58 52 51 45 38 34
100 97 83 59 43 32 36 74 97 97 88 87 90 92 92 99 99 83 86 90 87 99 100 100 99 98 95 98 93 89 87 92 85 80 74 70 69 72 75 76 77 77 74 70 68 68 70 64 58 52 41 38 36 38
98 99 83 66 52 35 34 64 82 92 94 93 94 97 99 100 89 81 77 84 96 99 99 98 100 95 90 88 92 100 100 99 100 88 76 73 71 76 81 80 79 76 74 72 72 71 71 64 54 43 39 38 34 39
100 99 91 75 48 36 36 65 65 96 95 95 98 100 100 98 80 67 70 86 88 95 99 100 93 98 99 99 97 100 100 100 91 78 78 75 74 74 83 84 80 77 74 75 76 72 69 61 48 42 36 36 32 41
99 91 85 60 42 38 45 70 89 100 98 93 96 100 100 100 100 100 98 89 80 82 94 100 98 95 96 95 96 93 96 100 99 92 83 85 83 82 83 87 85 81 77 76 75 75 66 53 46 42 48 42 42 41
91 77 55 50 45 43 69 92 99 94 85 93 100 100 100 95 99 99 100 100 98 99 94 86 84 78 70 68 81 95 95 98 100 99 89 80 87 91 81 84 86 83 79 76 76 70 61 51 45 50 65 46 48 48
82 68 58 51 50 51 66 87 85 98 100 99 100 100 99 100 98 95 98 96 89 89 82 64 56 55 56 58 68 87 96 95 97 98 99 89 80 92 94 86 85 85 83 80 76 70 60 52 58 86 51 49 48 49
68 59 58 52 52 61 62 72 83 97 100 100 100 99 87 91 97 100 96 99 91 81 66 58 55 45 40 47 57 66 81 93 94 94 97 98 95 85 93 92 86 86 86 80 76 70 62 56 69 52 51 46 47 46
70 67 60 68 65 69 74 83 93 93 92 100 100 95 91 100 98 100 99 90 82 74 67 64 62 56 58 54 55 62 73 92 97 94 92 97 98 98 93 99 94 92 87 83 78 69 63 62 59 53 47 45 45 51
85 66 68 68 78 67 72 72 91 88 92 100 98 90 100 97 100 98 90 72 71 67 68 66 56 57 58 64 66 68 71 83 95 96 89 96 97 97 97 96 96 95 93 88 76 68 60 63 56 50 48 49 51 56
89 84 63 54 52 58 73 79 77 84 100 84 86 98 96 100 100 82 60 60 58 53 46 51 60 65 65 67 72 74 79 84 93 94 93 96 96 97 97 96 94 92 90 88 82 69 57 57 53 52 50 55 59 53
82 65 75 73 83 70 81 91 90 87 77 70 88 100 92 92 75 48 47 38 41 45 48 58 69 73 77 79 81 82 80 86 93 95 94 96 95 96 97 96 96 97 96 88 92 94 88 65 90 52 55 62 55 48
86 76 67 100 99 94 79 73 73 50 51 64 84 83 79 53 36 33 37 44 46 51 57 66 70 80 84 86 87 88 91 95 100 96 95 96 95 95 96 96 96 96 98 97 97 97 92 96 56 62 70 54 51 68
97 77 79 95 88 84 63 60 63 61 66 73 72 69 63 48 40 40 45 50 53 60 70 76 83 88 86 89 85 84 90 95 97 98 97 95 95 96 96 96 95 96 96 97 97 97 97 86 96 91 58 88 92 33
94 83 85 86 88 83 72 71 77 81 83 80 80 85 76 65 54 48 45 47 61 72 79 81 84 92 92 90 94 92 84 88 93 96 96 95 95 95 95 96 96 96 96 96 96 95 95 96 88 88 96 79 32 33
100 91 93 100 98 96 92 87 88 89 92 89 84 83 81 81 78 60 63 68 74 81 87 94 95 90 92 93 92 92 92 91 94 96 96 95 96 96 96 96 96 96 96 96 96 96 97 96 96 95 63 33 34 28
98 98 100 95 100 100 99 92 98 96 98 96 96 98 96 91 88 68 69 75 81 86 90 90 89 89 92 93 92 93 95 95 94 96 96 96 96 95 96 96 96 96 97 97 96 96 96 96 89 44 34 32 23 17

GFSWCAN_850_rhum_015.txt.gz
RH
64 90 87 90 99 99 93 93 89 86 27 19 37 21 91 89 56 36 71 100 96 99 90 87 62 62 64 58 60 70 76 77 79 82 78 74 75 59 62 47 55 62 71 78 80 95 81 43 46 60 51 51 50 53
76 80 87 95 95 97 83 98 95 94 92 28 50 92 90 93 92 92 80 58 82 100 94 98 88 72 73 63 67 74 74 70 74 84 94 91 93 64 57 66 48 63 47 56 53 50 38 44 48 50 56 56 54 60
55 70 48 96 93 95 90 98 98 98 98 90 82 86 90 91 94 94 99 81 67 100 98 100 86 79 69 68 66 67 85 81 82 84 92 92 98 87 91 61 52 48 45 56 57 41 42 44 47 56 63 64 67 70
46 36 62 95 92 99 97 98 98 98 98 95 97 99 93 92 90 97 100 89 74 99 99 88 86 86 76 73 73 72 77 74 86 90 96 92 94 75 71 65 64 54 57 56 53 45 42 48 55 61 66 69 73 78
33 41 42 88 92 100 98 90 99 98 98 90 95 97 94 94 84 94 86 80 55 99 98 95 94 85 82 81 78 77 83 90 97 98 97 92 80 77 60 66 64 49 53 58 47 46 48 48 61 64 66 68 71 69
42 31 28 45 94 99 99 93 99 95 89 94 94 89 96 92 88 97 100 100 97 100 100 96 96 98 92 87 85 86 92 99 94 97 90 82 78 81 95 68 43 41 42 44 43 54 55 60 62 62 68 68 67 66
90 48 28 47 94 99 97 91 96 95 84 97 86 95 96 98 96 99 91 99 100 100 100 98 94 99 100 96 98 99 99 99 98 96 96 86 79 92 90 80 46 45 51 52 57 59 59 61 59 61 67 70 67 69
83 90 36 44 97 99 89 79 97 91 85 76 95 86 89 99 98 99 88 93 98 100 100 100 95 89 96 99 92 98 99 98 99 96 95 95 93 93 93 64 61 59 56 57 62 61 59 58 62 65 64 69 68 70
96 95 68 43 72 97 82 90 86 52 24 56 78 88 94 87 97 100 94 98 100 100 99 99 97 97 98 95 94 99 98 98 92 96 95 98 93 98 71 65 63 61 68 63 65 68 65 63 66 66 67 70 68 71
92 88 94 36 60 94 57 61 46 28 20 65 79 96 99 81 90 93 95 99 100 100 100 94 78 86 91 88 90 86 99 94 99 85 94 100 96 69 63 63 65 75 70 67 72 77 73 72 68 69 68 68 68 68
85 88 100 39 54 96 68 71 32 20 29 84 98 100 99 98 99 99 100 99 99 100 97 86 74 70 89 81 80 91 92 99 100 86 84 88 80 61 71 62 61 71 70 72 66 66 63 60 61 64 72 71 67 64
98 98 88 37 65 97 76 40 31 23 36 88 99 91 97 99 100 100 100 100 94 98 94 83 82 80 96 93 87 92 98 96 99 77 89 90 71 66 62 52 61 72 79 77 70 64 58 64 63 63 68 68 67 60
92 95 70 47 89 91 45 39 29 38 92 90 99 95 99 98 99 96 91 95 100 98 100 100 99 94 94 91 90 90 98 96 76 95 89 76 68 62 56 61 70 84 82 78 70 63 59 64 66 63 62 64 60 43
97 97 63 51 92 88 45 42 28 87 93 99 96 91 95 95 87 90 92 99 99 99 99 100 98 92 90 94 84 99 82 82 92 96 90 88 72 61 66 76 80 82 77 72 66 62 62 64 70 67 63 60 43 39
98 98 64 54 99 68 48 42 37 98 99 97 97 95 88 90 98 98 99 100 100 100 100 100 96 87 97 99 82 93 93 94 83 82 88 85 71 73 76 82 83 82 74 69 66 65 67 68 69 67 65 51 41 39
100 95 71 66 57 48 49 39 58 98 97 93 97 95 92 96 93 93 95 99 100 99 100 100 100 99 100 96 95 96 92 92 90 98 91 85 76 71 77 81 85 85 77 70 66 66 70 72 69 66 60 47 45 44
99 95 89 70 60 55 51 40 85 99 93 90 88 99 95 98 91 88 78 80 90 98 100 100 100 100 98 97 96 87 93 93 94 97 87 78 78 75 72 76 83 86 82 74 70 70 71 72 69 61 52 52 50 47
99 97 91 95 78 60 43 52 91 98 88 91 88 88 92 94 95 86 88 94 93 100 99 100 98 100 96 96 94 88 92 99 99 93 88 80 77 74 74 77 78 84 83 79 75 72 73 72 67 59 52 51 50 45
99 96 99 93 78 55 38 61 77 92 91 93 94 96 96 97 91 95 96 98 99 96 100 98 100 93 88 96 94 98 100 100 100 100 94 83 74 72 74 80 83 82 84 82 79 76 76 75 66 57 53 50 42 38
98 99 99 94 82 43 40 62 61 99 89 95 97 99 96 94 92 75 65 82 98 86 94 95 93 95 94 96 97 97 99 100 100 100 99 87 93 80 73 76 88 86 83 83 85 82 79 76 69 61 53 43 36 36
97 99 99 95 82 49 44 61 86 100 97 92 100 100 97 100 100 100 98 99 98 80 81 83 94 97 87 76 66 65 67 89 100 100 100 100 99 100 85 77 78 88 86 85 86 85 81 75 66 59 48 40 36 47
98 99 94 85 53 44 60 76 98 95 94 97 96 99 96 90 92 98 98 100 98 86 88 89 81 74 56 43 43 46 53 61 77 96 92 96 99 99 98 90 78 82 90 88 86 84 81 75 65 54 46 42 46 62
98 96 91 53 55 60 72 82 97 99 92 92 100 95 92 97 100 96 98 89 87 86 78 80 65 44 35 29 26 29 40 52 61 85 96 95 95 97 98 96 91 79 80 91 89 86 82 75 64 54 50 49 72 50
97 93 63 58 60 69 67 86 86 96 98 88 85 76 87 91 98 98 91 84 91 75 82 71 53 49 43 34 32 35 44 50 54 61 80 97 92 93 98 96 97 89 79 84 92 89 85 76 63 57 54 90 60 50
94 89 73 76 68 72 78 83 85 84 84 88 87 80 87 99 89 93 91 80 74 70 71 68 60 58 46 33 37 46 54 59 61 61 62 77 86 89 92 94 97 97 92 81 90 92 89 80 65 60 74 92 52 50
95 85 76 73 75 72 69 77 86 84 79 92 88 88 98 89 95 86 74 70 55 55 55 55 60 47 40 42 46 54 63 67 72 72 62 74 89 100 100 98 96 96 97 94 88 93 90 82 71 71 97 71 52 47
95 93 68 58 54 55 59 66 65 71 85 80 76 92 90 94 87 72 48 47 51 52 51 48 41 43 45 47 56 63 68 74 77 76 76 76 81 89 96 99 95 96 96 97 97 95 92 84 84 90 90 66 52 48
84 67 76 64 71 61 75 72 78 80 70 62 75 90 88 79 68 37 38 40 42 36 36 40 44 48 53 59 68 74 76 80 82 81 80 81 80 84 90 96 96 96 96 96 97 96 96 90 90 96 96 63 51 57
87 73 61 91 89 78 73 68 67 46 45 57 79 72 74 46 32 28 28 31 36 39 41 46 51 59 68 74 77 79 82 86 88 88 91 92 91 92 93 96 96 96 95 96 97 96 96 96 96 97 89 74 56 53
97 72 75 85 84 79 67 55 59 50 54 58 59 58 52 39 32 32 33 35 39 45 48 51 62 76 78 80 79 78 80 85 89 93 98 94 96 95 95 95 96 96 95 96 96 96 97 97 97 97 96 78 53 43
90 75 81 78 81 79 66 64 67 71 70 67 66 70 68 56 43 37 37 37 42 48 55 68 74 81 89 91 93 94 86 83 92 96 99 99 99 95 95 95 96 96 95 96 96 96 93 97 97 96 94 79 51 90
96 87 87 90 91 88 84 78 79 79 83 78 77 74 74 72 68 49 48 50 51 61 71 79 84 83 87 91 95 98 99 93 91 93 95 98 95 94 95 95 96 96 96 95 96 96 95 96 95 96 96 94 96 87
98 96 94 90 94 97 94 87 93 90 92 92 91 92 89 84 83 56 52 50 61 72 77 79 80 84 89 95 97 98 98 97 95 93 94 96 96 96 95 95 96 96 95 96 96 96 96 96 96 96 96 95 72 30

GFSWCAN_850_rhum_018.txt.gz
RH
32 29 91 93 86 91 97 94 98 97 93 92 88 93 94 88 59 58 70 84 92 99 91 81 80 69 54 55 64 74 82 81 82 90 80 79 82 67 70 58 69 75 86 91 91 98 94 44 50 65 61 54 54 56
50 28 90 94 62 90 99 96 99 97 97 98 97 89 93 93 85 84 89 84 77 97 89 90 87 84 78 62 66 73 74 70 77 88 89 88 90 89 77 80 57 67 59 65 69 71 46 45 48 48 54 58 59 62
48 36 47 82 79 92 97 99 96 100 98 95 91 92 96 98 97 80 89 84 86 97 93 98 89 71 70 71 69 70 80 77 79 77 89 92 96 90 94 78 70 51 46 68 60 47 48 47 48 54 58 63 67 70
62 58 41 32 62 95 87 95 96 94 92 95 97 94 100 100 99 92 74 86 98 87 98 96 93 90 70 64 66 65 74 72 76 84 92 88 95 79 88 80 77 65 60 64 65 58 48 52 56 59 61 67 77 71
96 56 47 46 83 92 90 96 98 83 96 89 84 92 95 96 99 83 69 77 86 94 98 98 99 88 82 76 74 74 76 77 85 97 98 94 86 84 77 74 78 57 66 75 73 52 53 58 58 60 63 68 70 68
97 87 100 93 49 75 83 94 95 84 98 91 93 98 88 90 87 87 85 98 100 88 100 100 99 95 86 87 87 85 90 92 90 93 93 87 77 83 98 83 56 47 47 48 50 52 54 57 58 61 62 65 68 67
92 94 100 97 78 54 88 97 97 98 97 97 93 99 97 93 95 90 83 99 100 99 99 100 100 99 100 99 100 99 99 96 92 99 98 87 82 87 96 95 59 48 49 52 54 53 57 58 60 61 61 64 66 70
87 98 96 99 93 54 93 98 90 92 95 56 82 88 92 94 95 92 76 93 98 99 100 100 100 97 98 98 97 99 98 99 99 94 95 96 90 94 97 77 65 61 59 59 59 58 58 59 61 61 63 65 68 71
79 87 99 99 99 56 88 94 71 100 33 32 71 87 84 87 90 91 98 96 99 99 99 99 100 100 94 95 96 97 98 99 93 98 96 95 93 98 85 76 66 65 68 67 64 63 65 66 64 64 65 67 66 72
89 93 98 98 99 70 86 94 90 43 25 65 76 98 90 100 92 96 98 99 99 100 100 100 77 96 84 94 94 93 98 95 100 92 92 99 92 72 74 73 70 68 73 70 68 70 70 71 68 67 66 67 67 72
99 98 99 98 99 66 88 97 55 35 33 76 100 97 96 99 99 100 99 99 99 100 99 92 82 86 85 86 89 90 98 100 100 94 89 98 88 74 67 61 55 61 67 76 76 71 66 66 66 66 69 67 67 68
98 98 99 98 98 66 92 84 57 42 62 81 97 92 93 98 100 100 100 100 100 99 96 92 89 85 94 88 86 91 100 98 99 81 93 96 89 66 63 70 78 83 84 79 77 74 68 65 64 64 68 67 66 67
97 98 100 99 96 67 99 84 45 44 98 98 98 99 100 100 99 97 98 100 99 99 99 99 98 93 88 91 92 91 100 97 81 96 87 93 84 74 76 85 86 86 83 80 77 73 66 69 74 70 69 68 67 66
99 98 99 99 96 78 99 78 44 55 100 98 93 94 94 83 85 95 98 100 100 100 100 100 98 96 88 97 93 91 88 87 90 96 94 97 87 82 81 81 87 88 83 77 71 68 69 76 77 72 68 74 72 64
98 98 99 99 98 95 97 51 40 81 98 94 95 90 92 92 96 97 96 99 99 99 100 100 96 89 100 98 89 98 91 88 81 93 99 90 85 81 77 77 85 87 83 78 72 69 68 72 80 81 79 74 66 54
99 99 98 98 98 83 62 55 42 86 98 95 94 97 89 98 91 90 94 98 98 98 100 100 100 100 100 96 94 90 88 90 98 98 91 92 88 86 84 78 80 86 85 79 78 76 76 75 73 72 72 69 60 44
99 99 98 98 78 79 70 56 67 95 92 91 85 91 93 96 89 87 80 80 84 97 99 100 98 99 99 99 92 90 90 100 99 99 95 92 90 83 81 79 78 80 85 83 78 77 78 77 77 75 72 65 51 46
99 98 98 97 98 88 60 51 84 96 94 88 85 82 87 88 94 84 87 87 92 99 99 99 99 99 99 94 88 100 97 93 93 98 90 87 88 87 81 77 78 82 84 84 82 78 79 80 79 76 70 59 54 52
98 99 99 98 97 79 44 60 76 97 91 87 86 90 92 95 94 90 83 90 96 90 97 100 100 99 97 98 96 95 97 100 100 100 82 84 91 88 88 85 76 81 83 84 84 82 80 82 79 74 67 58 54 54
100 99 98 99 95 62 42 57 61 98 94 92 95 96 96 96 96 83 73 72 95 96 93 95 94 94 90 90 89 79 71 78 83 94 79 82 69 70 79 90 85 81 86 84 84 85 82 81 81 76 68 61 57 52
99 99 99 98 98 81 50 60 80 95 97 93 92 98 96 92 95 100 99 97 96 88 97 76 85 87 80 85 62 53 47 48 57 74 91 79 76 96 81 89 94 92 86 89 86 86 88 85 80 76 71 65 60 49
98 97 98 98 96 64 52 70 95 92 93 97 96 98 96 97 97 100 98 99 94 89 80 84 79 80 73 47 28 24 24 24 27 30 40 60 68 69 86 83 91 95 95 89 90 87 84 86 84 78 73 66 57 48
98 98 97 96 92 63 73 69 93 96 97 96 96 98 96 95 96 93 98 93 84 82 85 76 74 74 46 35 32 25 23 27 30 32 34 40 44 56 80 84 89 95 96 92 93 94 90 86 86 80 73 64 54 46
97 96 96 94 92 80 67 92 90 96 96 95 97 88 95 96 99 98 99 84 76 61 61 64 70 69 48 44 31 20 24 30 37 43 49 56 58 50 59 63 74 85 93 97 97 98 94 90 87 84 74 63 54 48
96 96 95 96 79 75 86 92 90 92 93 96 93 90 95 90 99 99 96 79 79 58 49 55 60 59 55 51 22 23 28 35 43 43 46 60 60 60 60 58 68 82 92 97 98 97 99 96 90 85 77 66 56 72
96 94 93 83 80 79 77 86 89 88 90 96 94 88 88 99 100 86 90 55 43 32 33 31 29 42 45 37 33 34 40 48 60 61 56 66 71 75 91 100 92 86 89 96 97 97 97 97 94 88 78 72 65 96
96 97 89 66 57 55 61 60 61 84 90 89 95 99 98 95 87 81 37 28 28 29 36 38 42 42 38 40 42 47 54 61 70 70 72 73 73 76 76 77 71 68 89 95 98 97 97 96 96 96 84 74 74 98
85 72 78 61 59 56 78 84 82 82 85 62 77 94 92 75 67 31 27 24 24 31 44 49 40 37 41 46 51 54 64 74 76 77 77 74 73 74 73 75 78 82 93 96 98 97 97 96 96 96 95 85 90 96
81 68 58 89 78 66 68 70 75 48 45 53 84 86 80 44 33 25 24 25 29 31 33 37 42 46 46 51 63 72 76 80 87 87 84 78 75 72 84 90 93 99 100 100 98 97 97 96 95 96 96 96 97 96
97 69 74 80 83 78 65 53 62 52 48 52 57 51 46 35 28 28 28 29 31 35 41 44 45 50 65 76 76 78 82 86 92 96 94 88 84 88 93 98 97 98 98 97 97 96 96 97 97 96 96 96 97 94
83 72 76 70 85 79 67 60 59 59 58 54 54 60 54 44 32 29 30 32 35 37 40 46 60 74 78 78 79 82 80 82 91 97 100 99 94 93 91 90 96 98 97 97 96 96 97 96 95 96 96 96 96 89
87 82 86 93 96 82 76 71 73 72 77 72 72 66 64 60 53 38 38 38 40 43 48 62 72 75 77 80 84 90 99 95 94 95 94 95 93 93 95 96 96 97 97 97 96 95 95 95 95 96 96 96 95 71
96 88 86 86 93 96 89 81 88 88 88 88 89 88 80 72 71 47 44 41 43 52 68 74 75 76 80 83 86 86 92 96 96 96 99 98 98 96 96 96 96 96 96 96 96 96 96 95 96 96 96 96 94 96

GFSWCAN_850_rhum_021.txt.gz
RH
93 94 84 60 43 34 78 90 99 96 79 91 99 96 90 96 90 63 52 90 87 96 80 78 81 88 89 59 70 79 80 83 90 96 92 90 88 78 76 74 86 88 94 96 97 99 93 46 60 69 56 57 60 62
98 94 97 48 76 93 92 80 100 95 91 96 96 93 90 91 90 87 74 76 89 91 65 79 81 77 85 88 83 74 77 77 74 92 91 89 88 87 87 90 61 76 71 78 79 76 49 46 49 52 55 59 61 65
97 98 87 78 83 60 77 88 88 96 96 88 93 99 98 88 84 88 90 76 98 97 80 80 57 62 75 78 84 74 76 75 76 76 88 88 94 84 90 93 77 62 52 63 65 56 54 52 54 54 57 59 64 70
99 99 97 98 94 76 61 87 77 89 92 90 95 94 86 90 84 87 100 82 87 99 99 85 89 92 72 72 73 70 70 75 76 75 89 92 92 81 75 85 89 74 67 70 76 64 58 56 56 57 58 65 74 71
99 99 99 96 99 99 82 88 78 94 92 98 97 90 88 88 87 79 85 74 70 93 98 97 99 100 90 71 68 66 70 71 81 94 97 94 85 88 80 80 86 67 72 80 82 56 58 58 57 60 60 63 69 69
99 99 99 99 98 99 97 53 79 90 98 87 98 97 87 98 99 99 86 95 85 97 90 99 100 99 92 81 74 78 82 87 86 85 93 87 83 83 90 93 63 55 56 54 56 54 54 56 57 58 59 62 67 68
99 99 99 98 98 99 100 77 79 95 91 98 99 97 93 92 99 98 79 96 100 99 99 99 100 100 100 100 99 97 93 91 90 91 98 90 86 84 97 89 65 60 63 64 63 59 60 59 58 59 60 62 66 68
99 99 99 98 98 99 100 51 85 93 93 65 92 76 80 91 89 89 84 83 94 98 99 99 100 99 98 100 99 99 100 99 97 93 96 97 90 92 96 79 73 76 71 67 65 64 60 58 61 62 63 63 67 69
99 99 98 90 99 98 99 51 87 90 36 32 67 78 92 93 89 93 97 88 93 99 98 99 100 100 100 98 99 99 95 99 90 96 95 94 92 99 86 84 80 72 72 76 70 67 66 66 67 66 64 66 67 70
99 99 97 98 99 99 90 57 94 60 26 60 78 96 90 97 95 96 99 99 99 99 99 100 89 99 91 92 100 96 99 97 100 96 96 99 97 78 63 59 60 63 59 65 81 72 69 71 71 69 66 65 66 71
100 100 100 99 99 98 90 73 99 49 23 66 99 98 89 97 99 100 99 99 99 100 100 98 87 91 89 91 97 93 100 100 100 95 92 99 95 71 68 72 79 82 83 78 79 79 79 72 69 70 70 67 68 71
100 100 100 99 97 98 83 80 99 50 37 62 99 98 98 99 100 100 98 100 100 100 99 96 94 91 88 87 89 94 100 99 98 85 94 88 92 78 76 77 85 89 85 82 80 76 77 74 67 71 69 67 67 73
100 100 100 99 94 99 89 90 100 54 51 97 98 100 99 99 99 99 97 99 98 99 100 99 99 93 89 90 96 94 96 97 85 96 88 90 87 84 80 83 85 88 85 82 80 77 74 68 70 73 71 68 67 70
99 100 100 98 97 100 98 84 60 49 80 98 94 95 98 95 86 95 98 99 99 100 99 100 98 97 92 96 94 85 89 85 89 98 92 99 94 88 83 83 88 90 86 83 80 76 72 71 84 85 82 72 66 71
100 100 99 95 99 99 99 72 47 52 96 95 96 95 95 88 92 96 96 100 99 100 99 100 98 91 99 100 90 96 94 91 78 88 99 97 92 85 81 81 84 87 88 82 84 75 77 83 89 94 91 83 80 95
100 99 99 100 99 99 90 60 48 65 95 95 95 98 88 96 96 90 92 100 99 99 99 100 100 99 99 88 97 89 85 86 96 100 97 93 89 88 84 77 78 81 85 86 82 78 76 74 79 87 90 85 86 78
100 99 97 97 97 92 94 79 53 93 94 91 93 86 93 96 92 87 84 87 85 95 100 100 99 95 99 99 96 84 95 100 99 99 91 90 92 92 92 89 76 74 78 81 83 81 79 78 78 79 80 78 73 68
99 98 96 98 97 95 84 58 66 96 99 90 92 83 89 93 89 88 86 86 77 99 100 99 100 99 98 99 92 99 99 90 90 90 75 79 87 83 78 84 88 79 76 81 83 83 81 82 81 81 78 74 70 62
98 99 97 99 98 84 57 58 66 99 93 91 86 81 86 94 90 91 90 82 90 94 98 99 99 98 96 97 97 95 89 76 77 68 59 60 86 68 54 58 82 85 79 80 84 85 84 83 83 83 79 74 66 58
99 98 100 100 99 76 50 59 60 89 97 87 94 93 94 93 96 92 85 82 90 88 96 98 92 88 88 85 85 77 66 61 61 55 43 42 47 42 48 66 75 83 89 82 81 87 87 85 83 82 80 75 67 58
99 100 99 99 99 78 60 52 66 88 98 90 96 96 96 100 89 93 91 88 94 97 98 74 79 82 88 84 82 64 46 32 28 30 34 28 32 40 38 40 50 62 81 93 90 86 91 89 88 85 82 78 70 63
98 100 99 98 95 76 75 74 74 86 80 98 96 96 96 99 99 100 95 99 96 80 72 74 67 80 82 82 64 34 26 25 26 26 32 35 32 30 30 33 37 48 62 84 98 92 90 94 92 87 83 80 74 68
99 99 97 96 91 96 88 74 77 88 97 94 94 95 96 96 98 96 100 93 79 55 51 71 72 68 72 59 34 32 24 21 19 20 23 29 35 40 41 42 53 51 45 52 85 94 93 96 97 93 86 83 77 72
98 97 96 95 97 95 81 90 91 98 98 94 95 84 93 96 100 99 99 88 57 52 60 65 69 71 67 56 43 43 27 21 24 26 32 38 37 39 50 47 46 46 49 54 75 88 98 98 100 96 90 84 78 71
96 97 96 96 97 78 92 98 96 97 90 89 94 88 94 95 99 100 99 71 55 60 51 46 45 50 56 56 50 49 38 29 32 30 30 40 49 54 54 56 54 51 54 65 80 88 96 98 97 97 96 88 81 72
96 94 95 89 90 79 79 91 92 90 86 90 91 88 87 99 100 75 82 42 31 27 22 16 17 21 26 27 28 30 40 41 40 41 35 47 58 68 66 63 59 52 60 66 74 92 99 100 98 97 96 96 92 81
97 98 97 80 61 59 68 63 66 81 88 85 91 96 97 87 73 70 30 21 17 15 19 23 26 28 30 36 41 47 48 45 49 51 51 58 63 68 72 72 65 62 68 69 73 82 100 100 99 97 96 96 96 96
87 81 89 70 58 54 75 77 77 79 77 65 77 88 82 66 58 24 19 16 17 20 21 23 27 40 51 46 39 40 45 50 55 63 66 66 68 70 71 69 71 73 80 82 80 85 99 100 100 98 96 96 96 95
73 69 58 90 75 66 64 68 70 43 46 58 74 75 75 38 30 21 18 19 20 23 25 28 32 36 38 40 43 46 58 69 74 76 80 79 75 70 84 80 76 80 92 100 100 100 100 97 97 97 96 96 95 96
89 61 70 76 92 92 59 45 56 52 50 50 52 50 44 33 25 25 26 26 26 26 31 36 41 40 39 42 52 64 71 73 76 83 87 84 80 83 88 87 89 97 100 100 99 98 97 98 98 98 97 96 96 96
71 67 69 65 80 73 64 57 54 52 51 49 50 52 46 37 30 29 31 31 30 32 36 39 40 41 52 65 67 67 67 73 77 83 93 96 93 89 86 89 95 95 96 98 98 96 96 97 98 96 96 96 96 95
75 73 83 90 93 81 75 66 63 64 73 66 65 63 62 56 50 40 37 35 34 36 38 37 46 65 68 70 75 78 81 80 81 89 94 97 98 94 91 91 94 96 97 97 96 97 98 95 95 95 96 96 95 96
95 85 84 88 92 96 86 77 85 83 87 86 86 88 77 65 61 44 42 40 40 38 37 50 65 68 70 72 75 79 85 87 89 93 100 100 100 98 96 97 96 97 96 95 96 96 96 96 96 95 96 96 96 96

GFSWCAN_850_rhum_024.txt.gz
RH
96 95 97 100 99 87 85 92 86 99 95 92 78 96 88 93 91 93 73 76 82 90 64 64 79 89 85 72 84 78 81 85 93 95 93 88 88 84 82 78 88 86 95 99 99 100 92 51 68 73 57 57 60 60
96 96 99 99 97 93 92 81 83 89 100 98 75 84 92 98 87 88 100 94 81 96 61 47 59 82 90 83 93 82 72 82 76 92 92 90 90 88 89 89 71 90 74 82 84 78 51 46 52 51 56 58 60 64
99 100 99 99 99 98 99 93 95 78 94 96 93 86 98 85 82 86 87 100 98 88 81 74 18 45 55 72 85 97 79 76 77 72 88 90 88 82 89 84 80 68 57 69 70 59 61 52 54 54 55 57 60 66
100 99 99 99 99 99 99 99 72 73 90 99 95 83 97 81 78 90 98 91 99 82 94 66 80 94 77 93 84 91 87 75 74 74 85 93 89 82 76 82 91 80 74 71 74 68 58 58 55 55 56 59 65 70
100 99 99 99 99 99 99 98 72 64 86 98 95 81 89 92 83 89 97 95 84 96 94 86 48 46 87 87 90 87 74 70 78 89 94 95 84 89 89 80 88 73 80 83 76 58 60 58 54 54 55 56 61 70
99 99 99 99 98 98 99 98 99 64 82 91 87 88 94 89 94 100 98 96 82 92 96 98 94 79 100 98 86 76 75 74 78 80 91 86 83 79 98 93 66 61 65 63 64 62 61 58 58 56 55 56 60 68
99 99 99 99 99 98 98 98 88 68 89 91 79 84 94 94 97 98 80 91 96 100 90 98 98 97 100 93 87 83 74 88 85 84 93 89 86 83 97 94 61 72 86 85 77 73 68 61 58 59 58 59 62 65
99 99 99 99 98 98 98 98 80 82 94 56 39 64 79 77 77 82 86 81 79 98 99 98 98 99 98 96 99 97 99 94 92 88 95 96 90 90 99 79 78 76 66 72 70 73 70 68 62 61 62 63 62 65
99 98 98 99 99 95 98 97 66 95 75 32 72 77 88 88 93 97 97 97 90 97 98 99 99 100 94 91 100 98 98 98 94 97 94 91 92 98 78 68 68 74 79 76 63 75 71 67 67 68 68 67 63 66
99 99 99 99 99 99 98 97 78 100 46 49 88 92 96 86 78 91 100 99 99 99 98 99 100 99 97 90 100 94 98 96 100 97 96 99 95 77 71 73 78 88 91 91 91 73 78 76 72 71 70 68 65 66
99 99 100 99 100 99 98 97 87 83 32 45 90 97 89 88 96 99 99 99 98 100 99 98 97 96 94 93 98 98 99 100 100 97 96 99 96 71 76 73 78 89 90 87 86 84 80 76 81 76 73 71 67 68
100 100 99 99 98 97 94 98 94 82 48 48 92 100 99 99 99 100 99 99 100 99 96 99 99 96 93 86 93 95 99 100 99 87 95 95 89 82 78 75 79 91 90 90 85 82 81 78 79 75 73 71 67 68
100 99 98 100 100 98 98 100 98 68 44 91 99 98 99 99 99 99 96 99 100 99 99 98 99 97 90 84 95 94 94 97 87 97 89 94 90 82 81 79 77 88 87 94 87 83 77 74 72 72 72 72 69 67
100 100 97 100 99 95 99 99 97 50 60 96 96 95 98 99 97 96 99 99 100 100 99 100 99 97 96 97 94 89 90 86 98 97 88 96 95 85 81 82 82 80 85 87 97 85 78 83 80 85 85 78 72 70
100 100 99 99 97 98 99 100 74 54 61 95 99 98 97 86 92 93 92 93 99 100 100 100 98 95 100 97 93 96 97 95 86 82 97 96 88 89 88 90 83 83 80 81 83 83 74 80 88 96 97 94 87 79
100 100 98 98 100 98 100 91 62 55 93 95 97 100 87 94 95 93 87 89 98 99 100 100 100 100 100 95 98 94 86 84 93 99 96 91 86 83 81 84 86 80 83 82 83 80 78 82 84 95 99 97 94 90
100 98 97 100 100 96 96 94 64 71 93 95 97 91 90 96 98 86 86 92 96 98 100 100 99 87 98 100 98 89 92 97 99 99 90 85 86 78 68 63 71 76 74 78 82 83 81 79 79 81 88 91 93 94
99 98 100 99 100 97 96 92 52 91 100 92 97 83 87 92 92 88 86 91 88 99 99 100 100 99 99 99 96 99 98 96 94 84 71 68 74 84 65 54 64 77 77 73 76 81 82 80 80 83 82 81 81 82
95 100 100 99 98 91 64 54 57 94 89 89 94 91 86 91 93 90 89 91 88 92 98 99 99 98 93 94 98 97 88 80 75 70 60 47 55 53 39 38 43 60 78 82 78 77 82 84 83 81 83 82 78 73
99 100 99 98 98 91 63 58 57 80 99 84 92 94 89 92 96 94 94 92 89 82 96 99 91 84 88 87 85 83 82 70 63 47 32 28 31 31 30 28 28 28 39 62 84 88 83 85 87 85 82 81 80 74
100 99 99 99 99 91 62 49 58 70 94 88 94 95 92 98 97 92 88 83 92 96 100 58 54 67 86 83 81 74 64 52 34 28 28 28 30 28 25 28 28 26 30 39 61 82 95 89 91 90 87 84 80 76
98 99 99 99 98 95 89 78 70 82 81 90 95 96 96 97 98 95 92 94 90 64 42 26 18 36 75 84 78 72 46 30 29 29 24 21 21 23 26 34 37 32 31 34 39 61 76 96 92 93 92 88 85 79
99 99 98 97 97 96 93 90 70 81 97 91 94 93 94 96 97 97 100 91 74 41 32 43 44 53 74 80 72 52 33 32 27 20 22 26 27 27 29 36 42 44 41 39 46 40 46 80 97 97 95 92 88 85
99 98 97 96 98 96 94 80 84 99 99 98 98 92 89 93 100 100 100 77 47 36 47 51 59 74 71 69 64 45 38 36 28 20 22 24 25 27 30 28 34 44 53 51 49 45 40 63 92 97 98 94 92 88
98 97 97 96 98 88 92 100 100 100 95 92 95 89 93 100 99 100 93 68 43 52 45 54 69 65 57 44 47 50 50 49 48 33 33 36 36 35 31 32 42 52 59 59 58 60 61 75 92 98 100 99 97 95
97 96 93 91 98 80 84 92 94 93 91 95 95 85 90 94 99 74 75 36 30 30 37 28 19 24 29 23 23 26 34 45 47 39 35 41 42 46 42 48 53 49 60 65 67 68 65 64 92 99 100 100 99 97
96 96 96 81 74 64 74 66 69 84 93 95 93 95 93 88 72 66 22 21 20 18 16 17 18 20 21 23 25 27 32 42 51 48 38 36 38 47 60 66 61 62 69 70 68 68 70 69 72 98 100 99 98 98
96 93 95 83 62 59 77 85 83 80 83 72 78 89 81 69 58 21 18 16 14 15 18 20 21 22 23 27 36 47 51 45 41 40 37 42 54 62 67 69 72 78 80 76 74 73 81 84 79 96 100 98 97 96
85 82 69 90 65 57 60 68 73 51 43 55 79 72 69 33 27 21 17 16 16 18 18 20 23 26 28 31 34 38 41 43 43 52 59 59 61 62 70 72 76 87 87 84 86 96 100 100 100 100 98 96 96 96
78 66 70 80 90 89 72 44 41 38 44 51 46 46 41 30 24 22 20 19 19 20 23 24 26 30 35 39 39 42 51 61 64 68 70 68 71 74 77 82 89 94 99 100 97 92 96 98 97 98 99 98 98 97
65 64 69 75 86 82 70 60 51 49 50 50 50 54 46 36 28 26 28 30 30 30 33 32 34 35 34 37 44 54 58 66 70 75 78 78 78 80 85 91 96 95 99 98 95 93 96 98 99 99 98 95 96 96
73 68 80 86 91 81 74 66 59 56 65 61 58 57 58 53 50 43 42 42 41 39 36 33 32 35 40 56 62 64 65 69 74 77 81 81 88 100 100 99 98 95 90 92 96 97 97 95 96 96 95 96 96 95
89 82 85 88 92 93 88 78 78 79 83 83 81 84 74 62 59 47 42 38 35 35 35 34 39 52 61 64 65 69 75 76 72 73 81 88 99 100 95 96 98 99 97 96 97 95 94 95 96 96 96 96 96 96

GFSWCAN_850_rhum_027.txt.gz
RH
93 91 90 92 92 98 99 98 90 84 89 100 100 83 83 93 94 98 89 75 71 75 48 57 74 90 92 90 87 76 83 85 93 91 92 91 90 87 87 80 93 93 95 98 93 100 94 57 73 73 60 56 61 61
93 89 98 98 100 99 99 99 99 97 89 83 98 99 89 85 92 95 100 92 94 98 59 46 48 50 64 63 98 94 77 84 79 92 94 92 95 92 87 91 77 93 87 92 85 77 53 54 54 50 54 60 59 62
90 94 99 100 100 99 98 99 99 98 90 79 93 100 93 75 92 86 99 100 98 98 90 88 51 26 39 23 56 96 90 75 74 71 86 91 86 88 94 93 82 72 64 70 77 63 65 54 54 57 54 55 57 63
93 97 99 100 99 99 99 99 99 99 98 79 91 99 97 75 78 87 100 99 100 99 98 70 57 70 81 94 84 80 82 97 84 72 82 92 86 79 85 80 83 81 77 79 79 67 58 56 58 54 55 55 56 59
99 99 99 100 99 99 98 99 99 99 99 86 82 99 90 86 88 87 94 93 96 99 94 82 71 28 22 37 81 100 93 95 88 86 91 92 86 88 90 87 93 77 79 86 85 63 68 62 60 60 58 56 56 56
100 100 100 98 98 98 99 98 98 98 95 67 88 92 82 84 92 100 92 90 91 100 99 94 58 46 48 62 72 100 95 100 80 80 89 85 80 76 92 94 70 66 68 80 76 87 83 74 69 63 61 59 57 56
100 99 99 99 99 98 98 99 98 99 86 81 90 75 77 89 99 99 85 87 90 100 96 97 97 93 76 95 99 100 100 92 78 80 92 88 86 81 90 87 68 81 79 78 73 84 76 70 67 60 61 60 60 60
100 98 99 99 99 98 99 97 99 98 74 91 54 65 83 75 78 82 92 97 99 99 98 98 94 99 92 99 100 100 97 85 85 92 94 94 95 90 98 83 68 65 64 60 72 69 65 76 73 72 65 63 64 63
99 99 99 98 99 99 99 98 98 97 86 71 58 84 92 93 89 87 81 96 99 98 98 99 98 100 98 94 96 92 82 98 92 96 95 87 93 98 82 71 71 73 79 81 73 76 67 71 74 70 67 68 69 65
98 97 95 97 98 98 98 98 98 94 82 38 90 99 98 88 87 98 100 98 99 99 98 99 99 100 96 90 100 94 87 97 100 94 94 97 95 79 73 70 71 76 87 92 97 90 81 80 82 77 73 72 71 68
99 93 98 98 94 98 98 99 95 92 67 45 77 97 95 94 91 99 99 99 98 100 98 98 100 98 93 93 98 93 99 100 99 98 98 100 97 73 74 71 75 82 91 91 96 93 89 88 83 77 81 78 75 70
100 99 99 99 95 96 98 99 96 98 87 57 79 98 99 100 100 100 99 99 100 100 99 99 99 100 99 87 94 98 100 100 99 89 95 98 91 83 78 75 74 82 90 91 97 92 87 82 84 78 81 80 77 72
100 100 97 98 98 98 99 97 98 100 76 82 96 97 100 99 97 96 97 99 99 99 100 99 100 100 97 85 96 94 94 98 89 99 92 92 90 82 77 74 72 81 89 92 100 95 89 82 78 76 73 71 75 72
92 99 99 98 97 100 99 97 100 97 54 96 90 92 98 99 97 96 96 100 99 100 99 100 99 99 97 97 94 89 93 90 99 99 90 97 91 83 83 83 73 79 86 90 90 96 90 96 97 93 92 84 77 73
82 87 100 98 98 100 99 99 100 85 50 93 95 99 99 88 91 91 94 92 98 100 99 98 99 98 100 92 93 97 98 97 88 86 97 92 84 85 84 83 79 75 77 82 86 85 84 86 89 97 100 99 98 98
81 90 100 96 96 94 98 99 97 68 69 92 100 100 90 96 91 94 88 87 97 98 100 100 100 99 98 96 99 96 87 86 87 99 92 87 83 78 73 68 73 80 76 74 78 81 81 78 77 80 94 100 100 100
98 99 97 100 99 99 99 97 80 61 82 97 98 89 93 95 93 92 90 95 98 99 100 100 99 87 99 98 99 91 93 95 98 89 83 82 83 80 73 54 46 59 69 72 72 76 80 81 79 79 81 90 98 99
91 98 100 99 99 98 97 91 80 65 100 91 98 82 89 89 91 91 89 92 94 99 99 99 100 99 99 99 97 96 95 92 83 76 70 66 60 66 65 37 36 41 47 61 73 76 78 82 83 81 82 83 80 85
68 98 100 100 99 97 80 67 70 84 77 85 89 88 90 94 92 92 92 92 92 90 97 98 100 99 93 92 97 94 92 82 80 78 70 58 41 41 31 28 27 26 26 33 47 66 80 82 86 87 84 83 82 79
100 100 100 100 99 96 87 59 55 68 89 78 91 93 91 91 91 91 93 94 95 82 96 98 92 84 86 78 78 78 80 81 75 69 57 36 28 28 29 26 22 21 21 22 31 54 68 82 89 88 88 86 83 82
100 100 100 99 98 98 94 58 52 57 75 84 89 92 87 91 94 94 91 90 97 92 98 56 49 54 70 71 76 80 80 75 68 53 30 26 28 26 20 21 22 26 30 31 28 26 35 56 81 93 90 90 87 84
97 98 98 100 98 97 99 89 69 71 77 83 88 98 97 94 94 94 90 100 93 69 57 43 34 23 29 42 68 79 71 58 42 30 30 27 17 16 17 19 18 20 25 31 37 37 32 31 36 64 92 92 91 88
98 98 100 98 98 98 95 94 84 76 94 86 90 94 91 92 94 96 100 93 66 34 26 29 27 22 27 52 77 78 68 47 34 33 28 18 18 21 22 26 28 26 24 30 42 46 44 39 34 41 75 95 94 92
100 98 98 96 97 96 98 91 85 98 100 99 98 92 86 87 99 100 100 75 36 24 24 28 31 50 55 67 79 68 57 42 35 35 29 22 24 26 29 30 30 29 32 39 47 48 49 48 46 49 63 93 99 97
100 96 98 96 98 95 93 100 100 100 100 95 98 95 92 98 98 100 99 66 35 27 32 35 46 64 61 53 54 54 53 44 41 44 43 38 35 32 31 32 30 34 46 53 53 53 54 56 55 56 68 88 100 99
97 91 96 89 98 90 88 94 98 94 94 96 95 93 89 96 99 78 78 31 23 23 26 30 29 47 45 34 40 37 41 47 50 46 35 42 43 44 42 38 35 40 56 63 64 62 59 58 60 60 60 84 100 100
98 97 94 94 86 77 75 70 72 90 95 95 96 95 94 91 76 67 20 18 20 20 23 27 21 16 16 18 22 24 25 28 30 32 40 47 49 44 44 51 57 60 62 64 70 73 70 66 63 65 65 66 91 99
87 90 95 89 69 64 81 91 87 88 90 93 83 94 83 73 60 21 20 19 18 16 14 16 18 20 22 23 24 26 30 37 49 51 43 36 36 43 62 66 64 62 60 62 66 73 79 77 72 73 79 74 80 96
100 91 89 91 68 67 62 73 76 51 62 73 76 76 72 31 21 21 20 17 16 16 16 18 20 20 22 24 26 29 34 38 42 40 36 37 52 61 67 67 66 66 68 71 78 89 92 89 86 91 93 92 89 99
91 86 79 71 79 75 46 42 52 54 53 46 40 40 35 26 20 20 20 19 16 15 18 21 21 22 25 29 32 37 39 38 40 54 64 62 63 64 68 69 70 74 82 88 87 90 95 96 97 98 98 99 98 98
83 74 71 72 82 74 68 55 48 50 47 45 48 50 46 41 38 36 34 32 28 23 22 21 22 26 31 36 36 31 40 57 63 66 68 68 68 67 70 76 84 90 94 96 94 91 90 93 94 97 98 97 96 96
77 67 79 89 88 84 81 72 60 53 57 55 52 52 51 50 50 48 47 45 43 42 41 39 38 37 37 33 37 55 62 63 66 70 72 71 67 70 77 91 99 94 94 94 94 92 93 96 95 95 95 95 98 95
94 83 83 87 91 93 82 81 83 87 78 78 74 75 72 64 60 50 46 43 40 36 36 33 30 31 36 54 62 61 61 65 72 78 78 76 76 79 93 99 98 96 97 98 97 97 96 97 96 96 96 97 97 96

GFSWCAN_850_rhum_030.txt.gz
RH
86 76 84 95 94 96 95 99 95 99 91 91 83 100 100 98 84 91 92 83 72 67 35 41 60 91 83 84 93 84 85 85 91 88 90 90 91 89 87 83 91 88 95 90 84 99 95 58 73 73 60 58 61 61
86 80 98 98 99 98 99 99 98 96 98 99 93 93 100 99 90 87 98 99 100 98 74 64 56 53 57 39 82 93 92 81 77 91 94 92 96 95 88 94 80 92 82 93 84 81 55 52 59 50 52 58 57 59
79 98 98 98 90 100 97 99 98 99 100 99 85 91 99 99 94 81 100 98 94 100 96 96 78 53 51 44 37 83 95 89 82 76 87 90 86 90 97 95 83 76 69 81 80 67 69 56 54 57 59 57 57 59
87 98 98 93 86 90 96 97 98 99 99 99 98 92 96 98 85 82 97 99 100 100 98 72 60 57 48 63 75 52 59 95 96 91 84 92 86 79 88 81 88 80 78 80 82 72 60 60 60 60 61 61 59 60
91 98 98 99 97 99 97 98 98 97 99 99 97 72 98 100 79 81 89 89 99 99 97 86 86 63 73 72 61 74 50 70 99 100 92 92 88 89 93 90 94 81 79 83 80 69 75 72 65 65 65 66 63 62
95 98 100 100 98 98 99 99 99 99 98 99 77 90 89 78 72 90 83 85 88 98 99 97 67 57 57 49 48 56 66 99 100 99 86 84 76 74 93 84 72 71 70 73 84 85 82 76 72 74 75 65 66 63
98 100 100 100 99 99 99 99 98 99 99 95 87 91 58 68 89 90 78 80 84 86 98 96 96 92 97 61 89 58 74 100 98 95 88 90 90 79 88 90 75 84 82 72 66 68 77 77 74 71 76 73 66 62
99 99 99 99 99 99 100 98 98 98 99 97 84 45 72 80 80 97 79 98 100 98 98 98 95 100 93 92 92 92 98 99 99 92 92 94 97 87 92 76 73 71 68 64 72 73 72 67 58 61 74 76 68 64
100 100 99 99 99 98 99 98 98 99 97 84 55 81 87 94 93 92 95 100 98 98 98 98 98 99 99 90 96 100 98 98 98 93 95 89 96 94 82 78 70 70 70 66 60 64 73 80 77 70 76 72 71 70
100 100 100 99 99 97 96 96 98 98 95 65 62 99 95 99 97 95 99 100 100 98 98 98 98 96 100 93 98 93 91 96 93 86 96 97 92 82 74 69 68 69 70 74 83 83 83 83 84 81 83 82 77 75
100 99 98 99 99 99 96 97 99 95 89 53 49 90 100 98 98 99 98 100 98 100 98 98 99 98 95 94 97 90 98 96 99 98 99 94 84 86 82 74 71 72 72 84 91 98 100 99 93 86 80 79 84 82
100 100 100 100 99 99 95 98 100 95 98 96 66 84 98 99 100 100 96 99 100 99 98 98 100 100 99 94 93 98 97 97 98 96 99 98 93 86 75 73 74 74 84 88 95 99 99 99 93 86 86 76 78 84
99 100 100 98 99 98 95 99 98 94 97 81 95 96 99 98 98 100 94 98 99 100 100 99 99 100 99 93 99 99 99 98 95 100 96 96 93 82 80 82 78 80 84 85 89 98 100 100 96 85 80 76 73 76
99 99 100 99 94 97 100 98 100 97 80 87 91 97 98 96 92 97 95 98 98 98 100 100 100 100 99 99 95 92 96 92 100 100 93 98 88 87 89 84 77 78 80 83 86 94 98 98 97 98 98 92 92 81
87 86 98 99 89 94 96 100 99 95 73 74 94 97 97 87 93 92 94 98 88 93 100 99 100 100 100 98 92 97 99 98 90 89 96 95 89 86 78 78 81 80 80 81 83 85 85 86 85 88 99 100 100 97
81 82 97 98 94 93 100 100 100 90 58 87 100 99 89 98 90 90 90 92 98 99 97 100 99 99 99 98 98 94 89 85 85 100 94 90 87 76 67 57 52 63 68 73 76 77 82 83 82 81 85 99 100 100
80 93 96 100 100 96 98 100 91 68 65 93 93 91 95 96 94 87 94 92 94 96 99 100 98 91 99 99 99 92 93 91 91 92 86 83 79 74 74 49 37 38 40 44 56 69 74 79 83 82 82 85 95 100
61 73 87 94 99 100 100 97 85 72 100 82 94 79 89 90 90 93 92 89 94 99 99 99 99 99 99 97 97 93 93 88 78 73 70 68 62 56 56 31 26 24 24 25 30 45 60 69 76 81 84 82 82 82
68 99 99 99 100 100 97 87 87 71 67 74 78 79 87 85 90 90 94 94 95 98 95 98 98 98 88 91 91 89 88 78 78 77 71 68 60 48 33 25 25 23 20 18 20 28 50 70 82 87 86 85 83 82
96 100 97 100 100 97 94 73 60 64 72 68 80 88 92 92 91 89 94 94 98 96 99 98 94 84 83 76 77 79 78 79 77 81 78 66 51 32 26 26 20 16 16 20 22 22 23 29 40 57 82 88 87 85
100 100 99 100 100 96 97 87 67 55 56 73 83 86 82 91 92 94 93 96 97 96 98 70 60 61 72 75 64 64 74 82 80 74 66 54 33 26 23 15 15 16 18 21 20 22 27 28 25 24 31 68 89 90
100 99 98 100 99 96 100 98 74 68 71 75 77 94 98 96 91 94 92 99 98 79 68 57 56 51 41 38 36 44 68 82 79 69 43 29 27 19 16 17 19 22 23 23 22 24 29 35 35 33 28 33 68 91
98 100 96 99 100 99 96 98 93 84 87 77 88 93 92 90 86 93 100 88 72 46 38 39 48 59 57 45 29 42 70 76 65 45 32 30 22 17 18 21 25 26 24 26 27 33 41 45 46 43 39 37 46 75
100 89 100 95 98 97 97 97 97 97 100 100 100 93 82 80 94 100 100 76 40 36 32 28 28 34 40 37 34 41 66 71 62 39 35 34 25 22 27 30 32 33 32 30 36 43 48 49 50 50 50 48 45 61
93 97 100 97 99 96 98 99 100 100 100 99 100 97 94 94 99 100 94 68 43 35 34 35 35 35 42 42 42 52 73 70 58 42 37 38 41 42 40 39 36 38 36 37 46 49 52 54 56 57 56 57 55 49
96 88 98 93 99 96 93 98 100 98 97 98 98 93 88 97 99 76 78 31 25 21 24 26 32 37 39 41 58 59 54 51 54 46 36 40 42 44 38 36 35 31 38 50 56 55 56 58 60 62 64 62 60 62
88 96 100 99 85 88 82 70 72 93 100 96 98 100 95 90 75 63 24 20 23 22 25 30 35 31 29 32 30 31 29 30 32 29 29 28 30 35 48 54 40 38 51 57 58 58 58 60 60 62 66 68 65 66
92 87 99 97 89 80 83 94 91 91 89 77 86 93 92 87 74 23 17 18 17 19 24 23 17 18 20 19 20 21 23 26 29 31 34 39 44 50 44 42 56 62 62 61 61 62 66 69 71 73 76 76 73 77
98 96 88 93 76 73 69 75 77 52 52 80 91 85 74 41 34 27 33 30 17 15 15 17 20 20 21 22 22 23 24 27 30 35 36 35 30 36 53 59 62 65 68 68 68 71 73 78 90 94 94 95 94 99
94 96 89 87 89 92 69 59 43 40 43 67 67 57 50 45 47 40 34 35 24 20 21 18 18 22 24 24 25 26 28 33 35 37 34 40 56 59 61 65 68 69 74 78 79 80 88 92 94 96 98 99 99 95
71 92 83 83 84 66 62 56 53 51 57 59 60 63 58 53 52 51 53 55 55 52 44 39 28 23 28 27 28 29 34 36 35 48 58 60 62 65 69 69 69 76 92 95 94 94 95 95 94 95 95 93 94 97
91 87 83 94 87 72 77 81 67 56 57 54 48 48 47 50 54 57 56 54 52 50 48 45 41 35 33 32 35 37 35 49 61 61 61 65 72 76 73 72 75 93 100 99 93 95 97 97 96 98 98 97 97 97
96 95 94 91 86 93 85 74 73 78 83 76 67 66 66 65 63 56 52 51 48 44 40 37 39 41 40 36 39 51 57 58 61 67 75 82 86 96 100 98 94 97 97 97 96 97 100 99 98 97 97 97 97 96

GFSWCAN_850_rhum_033.txt.gz
RH
100 99 80 79 98 99 98 95 97 89 97 99 97 93 98 100 98 87 80 82 87 76 62 60 54 74 75 81 97 91 93 89 90 87 90 88 90 89 88 82 78 79 92 86 78 93 93 58 70 78 63 58 59 62
97 98 83 98 95 92 81 100 87 93 98 99 98 99 99 99 100 98 86 81 97 99 74 58 72 82 73 62 54 72 97 95 81 88 92 91 96 95 88 97 83 92 79 86 79 75 56 59 63 58 54 60 60 59
76 69 88 93 92 92 88 86 90 93 99 98 98 99 95 99 99 98 86 87 97 99 95 100 62 61 59 60 54 65 82 97 97 94 86 91 86 91 97 96 85 82 74 86 80 68 71 57 57 60 62 63 61 61
64 70 86 87 87 93 96 98 96 97 98 97 98 99 97 95 99 100 87 94 96 93 98 79 68 63 53 53 56 50 50 93 92 97 92 92 86 81 91 80 85 80 83 84 85 75 65 64 64 63 64 65 66 65
86 79 87 94 100 100 99 99 98 94 98 96 99 94 95 96 95 92 80 92 98 99 97 90 78 59 59 83 71 68 65 68 77 98 98 92 86 90 94 90 94 84 84 90 90 69 71 66 66 76 76 75 70 68
85 89 98 99 99 100 98 100 99 99 97 99 98 98 93 92 65 93 89 83 84 96 99 97 74 63 65 71 66 83 80 97 92 100 96 87 79 73 95 98 72 70 68 66 77 83 81 69 72 78 74 70 72 67
90 92 93 96 99 98 99 98 98 98 98 99 98 97 69 60 82 91 82 85 97 98 99 97 88 67 96 90 91 92 78 88 94 97 97 95 93 76 92 95 70 74 74 84 79 67 67 77 78 73 62 58 72 75
98 99 100 98 97 100 99 99 99 97 99 97 98 69 73 91 89 82 86 85 95 98 99 97 95 95 80 90 90 74 74 72 99 99 97 97 99 89 94 76 79 76 74 71 69 71 68 64 61 59 62 61 74 76
100 100 100 98 98 99 97 98 94 97 97 97 80 65 98 97 90 88 93 99 99 98 99 99 98 96 100 98 88 86 75 98 99 98 93 87 98 96 81 81 75 73 70 70 71 65 67 75 83 82 78 78 78 73
100 100 97 99 93 96 98 94 97 96 90 92 50 98 96 95 98 95 100 99 99 98 99 98 98 97 100 100 99 99 96 100 100 96 91 97 97 83 78 76 74 70 67 67 76 77 86 90 92 88 86 82 83 82
96 98 93 98 97 99 98 96 95 94 87 90 75 68 92 83 98 98 99 99 97 98 98 98 98 97 100 100 97 99 98 98 98 98 90 94 93 91 84 76 73 70 68 79 89 92 100 100 99 95 87 86 84 82
96 98 98 98 98 99 99 96 100 95 94 100 96 87 97 96 99 100 96 96 98 98 98 98 100 100 99 98 92 94 99 98 97 97 98 98 92 93 84 78 74 73 78 87 90 95 100 100 100 98 91 88 89 82
80 82 99 100 88 88 90 96 97 100 100 91 97 99 98 97 98 97 94 97 98 99 99 99 98 100 100 99 99 97 94 93 96 98 96 96 94 87 84 82 80 81 84 86 87 96 100 100 100 100 100 94 87 82
80 82 90 98 86 86 91 93 99 99 91 78 92 95 97 95 98 98 98 98 96 99 98 100 100 100 100 100 96 99 99 91 98 100 94 95 91 93 90 85 78 78 80 83 81 84 85 92 95 97 97 98 94 96
77 79 88 86 79 83 90 96 96 100 82 68 92 86 96 85 90 88 92 100 94 100 100 99 99 100 100 100 98 98 99 99 93 75 94 94 89 87 80 73 71 73 71 70 74 76 77 78 78 79 80 91 98 99
71 91 84 86 81 77 83 89 93 92 69 74 99 99 85 98 89 80 79 90 99 93 99 100 99 99 100 100 100 95 92 92 83 98 90 87 86 74 61 49 46 48 46 48 53 59 65 67 72 77 80 83 98 99
68 90 90 98 100 96 84 94 86 80 63 79 83 81 90 92 95 82 90 87 88 93 99 99 99 99 99 99 99 94 91 87 74 79 83 81 73 68 72 47 35 28 25 23 29 35 42 55 69 76 77 81 82 88
40 57 99 94 97 98 99 98 88 80 75 70 85 72 76 76 82 83 86 92 92 99 99 98 98 99 98 98 94 93 88 85 78 78 78 79 76 72 68 41 30 24 22 19 19 25 38 46 52 61 75 81 83 82
64 74 98 96 99 99 93 93 93 81 70 69 65 62 71 68 66 76 89 94 98 97 95 98 99 97 94 89 90 82 84 79 77 77 74 72 67 61 53 31 25 23 17 14 15 18 21 25 29 34 49 72 84 85
98 98 99 97 96 96 97 82 70 65 62 60 72 79 80 74 76 80 85 94 99 97 100 100 92 81 77 74 76 75 77 79 76 77 76 74 71 60 36 27 23 16 15 18 20 20 20 23 26 25 24 30 57 82
90 99 95 90 89 97 98 94 79 61 60 64 76 77 70 84 84 88 88 94 100 97 97 75 65 55 65 71 73 71 65 72 76 76 74 76 70 58 32 23 14 14 16 16 15 16 20 25 28 28 29 28 29 53
64 97 99 88 99 99 100 99 89 74 73 77 76 77 86 95 90 94 95 99 100 78 71 59 55 54 48 50 53 49 55 53 77 84 78 69 54 32 25 15 15 19 23 23 21 21 22 31 38 39 38 37 36 40
79 95 98 85 100 100 95 96 97 95 92 78 88 90 89 90 84 91 100 85 70 49 45 47 48 53 56 57 54 47 40 42 66 82 75 50 30 25 16 17 21 25 27 28 26 27 31 38 43 44 45 46 44 43
90 92 98 99 98 90 98 98 98 99 99 100 100 95 80 74 88 100 100 76 44 41 34 41 45 44 45 42 38 45 51 52 76 78 59 36 31 26 20 22 27 31 34 32 30 30 40 47 50 51 53 53 54 50
94 91 100 88 98 96 98 98 98 99 100 98 100 98 94 93 97 100 99 67 40 23 22 26 34 44 45 38 38 38 47 62 74 76 60 39 36 37 38 40 42 42 41 42 34 31 43 51 53 54 55 56 57 59
100 78 99 94 98 97 95 100 100 100 100 98 98 92 94 97 94 77 82 32 22 18 20 28 33 40 42 44 44 58 53 67 78 72 51 43 37 38 40 44 43 37 43 42 35 36 49 54 53 53 52 54 59 63
99 89 96 100 96 94 87 75 75 92 99 95 94 100 96 87 84 67 37 23 21 19 17 21 29 33 44 44 44 48 50 43 37 31 33 33 34 34 36 37 40 47 44 36 40 53 55 54 55 57 57 57 60 68
85 83 99 96 94 91 84 94 94 95 89 72 88 100 96 91 81 43 21 27 38 39 24 15 18 20 18 19 18 20 21 22 23 25 26 28 29 32 38 45 44 40 39 50 58 59 60 62 63 64 65 65 65 77
98 100 93 98 89 90 80 82 79 56 50 65 91 91 79 55 46 43 44 42 40 38 54 26 17 18 20 20 21 22 23 24 25 25 27 30 32 35 36 37 46 58 63 63 63 66 68 69 70 77 85 87 88 94
91 90 90 94 91 90 58 54 54 50 50 51 57 60 57 50 45 45 46 47 47 48 50 60 60 40 31 26 22 22 25 26 26 27 32 35 36 34 48 61 64 67 69 68 68 73 80 83 85 88 91 94 96 96
72 93 94 89 84 60 58 58 59 61 59 56 54 62 57 54 47 43 44 46 47 47 50 51 53 55 52 47 39 30 33 31 29 33 37 39 51 59 63 67 71 72 70 69 77 88 90 90 93 94 93 93 94 99
89 92 89 95 84 67 70 76 74 71 67 65 62 59 58 58 55 49 47 47 48 52 53 53 51 48 47 44 40 37 34 34 36 40 52 58 62 68 74 78 83 88 89 92 94 96 99 98 97 98 97 95 97 98
100 95 94 82 86 89 80 80 88 76 78 69 61 61 59 59 56 49 49 50 54 56 53 50 45 38 41 43 44 42 41 47 56 59 63 68 71 76 82 87 92 96 96 95 94 97 99 100 98 97 96 95 96 97

GFSWCAN_850_rhum_036.txt.gz
RH
95 96 92 82 90 90 88 84 94 84 88 92 99 93 98 98 99 97 92 89 70 90 69 64 57 65 62 49 91 89 92 92 85 84 73 73 58 63 69 58 65 64 71 85 73 80 77 50 63 64 57 58 60 64
93 91 90 86 93 90 90 86 79 87 91 90 92 98 95 96 99 99 92 85 84 98 74 70 82 80 72 58 62 60 96 89 79 79 75 68 71 69 63 76 64 70 53 56 55 52 41 57 60 62 55 58 61 59
93 79 72 84 91 93 90 92 87 91 92 93 92 97 98 98 99 99 100 99 99 100 88 96 90 72 65 72 80 67 62 93 100 100 86 73 74 65 72 68 68 64 59 64 65 47 50 54 59 60 62 65 62 62
76 65 66 76 86 92 99 99 97 98 94 96 91 95 95 99 99 98 100 98 92 96 97 79 63 54 56 57 60 70 66 75 88 98 98 84 73 71 66 60 62 62 66 61 63 59 63 63 63 66 68 68 66 66
90 86 83 83 87 98 99 99 98 98 98 98 98 98 98 99 98 95 78 97 98 98 85 80 84 67 61 68 76 63 67 83 83 86 99 98 75 74 73 69 69 69 66 68 62 54 51 56 68 69 71 73 70 72
94 93 87 95 96 98 100 98 97 96 95 99 99 98 98 96 65 92 90 82 79 93 99 91 76 63 61 83 67 84 79 91 89 81 88 99 89 69 79 72 55 64 68 69 58 66 68 69 66 66 78 75 70 64
97 95 87 84 85 91 91 90 93 96 94 98 97 94 99 52 86 93 87 79 89 98 97 88 83 66 94 85 88 99 98 98 89 86 80 97 96 79 75 67 56 65 71 70 78 78 70 67 76 78 74 63 59 55
90 91 95 100 91 90 99 92 92 87 93 92 93 92 57 91 94 94 87 88 89 99 97 92 87 84 89 87 90 94 92 85 90 96 82 82 98 86 83 67 74 77 78 79 76 72 70 68 64 62 67 68 65 65
90 85 94 97 98 90 90 92 86 92 88 85 92 64 97 98 95 93 93 98 99 99 98 94 90 91 99 98 93 90 77 78 90 100 94 95 94 98 72 72 73 74 73 73 75 74 69 65 77 84 83 82 80 78
91 98 92 85 96 96 96 92 88 90 82 79 75 76 95 93 90 89 100 99 98 99 98 95 98 93 99 99 96 99 88 78 100 98 99 98 97 83 78 79 76 75 73 67 65 67 73 88 95 92 91 92 90 81
96 93 88 96 99 98 99 99 94 97 84 88 92 69 75 84 84 98 98 98 98 94 99 98 98 96 99 100 96 99 100 100 100 99 97 97 87 83 86 79 75 71 67 64 70 84 95 100 99 96 96 93 89 90
100 97 94 92 91 99 99 97 99 100 100 99 98 94 92 92 99 98 92 94 97 96 99 97 98 99 99 100 99 96 100 99 97 94 93 93 86 97 89 82 77 72 70 76 84 86 99 100 100 99 100 100 89 88
89 98 98 96 88 84 92 94 92 96 92 78 83 96 97 95 95 95 95 94 91 99 99 98 97 99 100 100 99 98 99 96 97 100 89 84 93 90 85 81 77 77 81 86 87 91 96 100 100 99 99 100 100 98
90 97 97 99 96 91 88 93 100 93 82 63 72 76 91 91 88 92 92 92 92 100 99 100 99 98 100 99 98 100 100 98 99 95 84 86 91 88 84 81 80 82 84 82 80 80 80 86 83 84 88 96 100 97
69 88 89 98 93 87 86 94 93 92 84 65 66 65 85 85 84 82 84 96 88 98 100 97 99 99 99 100 100 99 98 93 84 74 80 92 83 85 83 80 78 76 71 70 67 66 65 69 72 74 77 82 94 100
71 86 83 90 88 81 84 86 86 90 78 67 78 87 77 94 84 74 69 86 93 89 92 100 100 100 100 100 100 97 90 87 78 89 81 84 82 78 63 56 57 50 40 35 42 41 42 47 54 65 75 78 80 89
74 98 93 89 87 85 84 91 96 84 72 66 71 65 74 74 79 70 76 80 86 87 94 97 98 97 99 99 96 88 86 88 83 80 83 82 78 66 61 47 39 29 25 22 22 24 29 36 48 56 57 70 78 80
38 46 87 96 93 84 96 99 94 86 77 74 82 69 72 66 66 67 70 74 89 96 99 96 100 95 94 95 88 96 86 81 77 78 80 82 75 70 76 51 35 26 21 16 14 16 21 25 25 23 29 48 68 78
22 46 70 88 92 90 88 95 92 93 78 73 68 67 68 65 60 65 73 85 97 97 94 97 100 96 85 83 87 79 80 81 78 77 79 80 79 72 66 51 31 23 18 14 16 18 20 21 22 22 22 22 37 60
48 65 90 92 90 79 86 90 80 72 68 59 61 67 67 61 61 67 76 87 100 98 100 96 91 77 74 66 82 82 82 81 80 77 76 75 72 69 65 46 30 21 14 13 14 14 15 18 22 24 26 27 26 35
66 76 91 84 80 83 88 97 89 74 67 66 69 70 63 70 74 80 85 97 100 98 96 78 64 46 47 56 66 73 79 75 71 78 75 75 74 75 66 43 27 17 14 15 17 18 18 19 23 27 31 34 36 36
69 95 96 92 80 95 100 99 97 82 76 77 76 78 82 92 84 94 98 100 99 86 74 50 46 51 57 57 58 57 58 64 64 62 73 82 75 74 67 44 22 15 17 20 21 20 21 23 29 36 41 42 42 42
76 88 90 92 86 99 95 96 98 98 95 84 85 88 85 88 85 88 100 88 68 45 44 39 30 36 47 49 51 53 55 54 56 54 62 82 75 54 32 23 16 16 21 26 27 26 23 26 35 42 46 47 48 48
87 95 89 84 93 91 97 98 98 99 100 99 100 91 83 71 79 100 96 70 41 39 31 23 26 24 29 43 44 39 41 56 56 59 79 84 68 41 28 20 18 22 26 32 33 33 31 28 35 45 50 51 51 50
73 78 84 99 92 98 96 95 97 97 100 95 100 92 90 96 88 94 94 62 39 25 19 22 30 36 33 33 41 42 43 41 49 57 78 77 58 36 32 27 27 34 40 41 39 40 38 32 38 50 52 51 50 50
96 75 94 87 91 96 92 97 98 99 100 100 96 87 97 91 90 85 76 40 30 31 33 34 23 28 38 40 38 50 57 49 59 72 76 76 61 43 37 36 38 38 40 41 42 44 42 38 46 55 56 54 54 54
96 93 97 99 96 95 92 84 82 87 98 95 88 99 94 92 85 68 43 37 31 36 42 51 53 28 26 34 30 41 50 46 44 46 49 45 40 39 39 37 37 36 38 42 49 47 43 47 55 57 56 56 58 59
85 78 96 94 95 91 89 87 89 92 83 71 87 100 94 88 76 47 38 39 39 41 43 44 55 59 44 22 24 23 24 25 25 25 26 26 26 29 32 35 38 44 45 42 40 43 54 58 59 60 61 61 61 68
100 99 87 98 94 96 88 86 79 61 52 60 87 86 77 50 43 41 38 38 42 43 45 42 42 43 55 59 42 27 25 25 27 28 26 24 24 25 35 38 40 40 43 54 60 61 63 64 65 66 69 70 72 74
98 90 84 91 96 93 62 54 54 52 51 52 52 54 53 48 43 44 44 42 40 37 37 40 37 44 49 50 54 61 49 31 29 33 32 28 28 30 36 37 44 60 65 65 66 69 72 72 77 84 86 86 88 89
79 84 92 90 85 56 55 56 54 53 54 57 55 59 56 58 53 51 51 49 47 40 39 33 34 45 48 51 53 54 53 51 48 44 41 36 34 39 44 55 62 65 69 73 76 75 76 86 93 94 91 89 90 93
85 93 95 100 83 63 67 71 70 70 64 68 68 66 68 70 70 61 52 44 40 43 38 43 46 50 53 52 46 47 50 49 48 45 39 38 44 56 62 65 72 77 83 89 89 92 95 97 94 95 93 91 94 94
100 100 97 85 78 79 74 72 81 86 89 80 69 67 69 72 69 58 51 49 48 49 50 50 53 55 54 50 44 43 46 46 44 45 52 57 60 64 70 73 78 84 91 95 95 96 95 95 94 95 95 94 93 94

GFSWCAN_850_rhum_039.txt.gz
RH
81 87 86 86 77 85 83 82 82 79 88 85 90 93 95 94 96 100 97 82 79 81 70 69 66 54 50 45 69 82 78 87 84 77 77 59 53 49 51 46 54 61 67 67 61 69 73 43 61 62 54 54 59 62
90 87 89 82 84 90 86 84 90 84 91 91 87 91 98 98 100 100 99 100 99 98 80 77 80 78 77 60 61 57 83 81 96 85 62 51 49 45 48 57 43 59 44 48 47 48 38 44 44 58 56 54 60 63
86 86 72 72 78 84 86 86 96 93 94 90 90 91 95 92 94 99 100 99 100 99 84 89 84 90 72 76 80 70 56 72 100 100 98 78 70 45 54 50 54 50 41 53 50 40 41 44 52 58 60 63 66 62
78 72 63 64 71 89 94 96 99 98 99 94 93 98 99 98 94 100 99 100 99 92 91 68 77 74 64 59 69 82 73 71 79 90 98 98 88 48 48 44 48 45 52 54 52 46 55 50 49 60 65 66 64 63
83 86 84 77 85 98 94 98 99 93 96 95 98 95 96 96 98 88 81 87 94 96 84 81 80 65 72 79 78 78 83 80 79 71 91 100 92 65 57 55 53 54 52 56 52 40 42 41 54 66 69 73 66 66
90 87 84 83 97 87 84 83 84 89 91 90 93 93 97 99 97 89 98 75 76 82 88 83 81 74 57 82 74 84 86 80 79 74 60 67 83 98 75 57 37 42 48 49 45 54 57 62 72 74 69 75 75 72
88 83 78 85 94 90 85 86 84 85 86 92 93 93 96 65 86 91 90 88 86 88 96 82 78 74 95 97 96 94 91 97 87 83 63 61 86 99 90 56 41 46 52 62 70 68 66 70 68 74 76 72 63 59
82 78 80 98 100 98 88 83 78 82 87 92 90 90 80 90 96 97 86 86 93 97 97 87 83 86 97 80 76 84 78 86 96 76 62 56 55 94 99 50 57 58 63 68 72 73 69 70 69 68 63 62 66 70
79 83 94 99 100 88 76 83 85 86 85 91 83 82 94 92 99 97 92 95 99 99 95 92 92 89 99 98 92 85 74 77 58 81 70 68 67 96 88 65 64 68 68 67 76 75 73 71 71 71 81 85 89 85
81 85 98 100 91 81 68 83 90 88 81 80 84 85 99 88 78 80 100 99 99 99 98 95 98 92 99 99 98 86 85 88 95 73 81 95 97 69 82 77 67 74 73 71 68 68 66 71 88 95 97 97 98 97
89 88 99 93 88 80 82 87 91 98 94 96 97 96 73 85 90 96 99 98 98 95 99 98 99 95 99 100 100 99 99 96 98 98 91 96 88 82 84 83 81 78 73 68 64 70 82 90 96 99 99 100 100 96
99 99 97 91 93 84 76 80 96 95 97 98 98 90 92 97 98 99 96 98 97 98 98 97 85 96 98 100 99 99 100 100 100 98 100 95 84 89 84 84 78 75 72 69 76 85 89 98 98 99 99 99 100 99
98 98 99 96 88 84 78 85 90 89 90 73 87 95 98 91 87 88 91 87 88 93 90 95 91 95 98 100 99 100 100 100 97 100 86 80 88 91 89 87 81 77 75 77 82 84 85 94 100 97 100 100 99 99
73 98 99 93 92 91 87 94 96 94 89 77 79 64 88 87 79 81 81 83 84 97 97 97 92 94 99 99 100 100 99 100 99 94 80 82 85 84 88 85 83 84 84 84 83 81 82 82 83 83 82 87 94 100
46 93 90 94 93 95 85 89 90 88 88 78 75 63 76 79 78 72 76 86 88 85 99 94 93 100 100 100 100 100 99 91 83 89 84 91 86 83 84 86 83 81 78 77 74 70 65 63 64 63 67 72 75 83
45 79 84 83 91 87 82 84 83 82 82 70 75 84 75 87 84 86 77 93 83 83 97 100 99 94 96 100 100 100 97 82 84 98 88 85 79 78 77 72 66 58 48 43 43 39 37 38 39 44 50 59 67 74
33 53 63 79 86 88 88 88 94 89 76 68 81 67 86 87 82 78 73 75 85 94 88 92 95 98 92 97 96 96 100 97 97 89 84 88 80 73 58 50 47 32 26 24 23 20 25 28 29 27 26 37 55 70
24 24 47 87 87 91 89 98 92 91 87 81 84 90 77 74 75 74 80 90 92 97 96 90 100 95 91 91 82 99 99 99 100 83 85 82 80 67 65 55 40 31 25 19 15 14 16 16 16 17 17 17 23 38
23 26 48 78 86 84 82 90 88 97 91 81 74 71 73 77 74 72 69 81 92 100 97 98 93 93 82 75 87 83 84 88 94 98 82 81 80 70 73 68 48 35 25 18 14 15 15 15 16 18 19 21 23 24
32 54 79 97 95 78 81 85 80 78 87 74 60 73 72 72 71 65 74 82 99 100 97 93 86 72 72 63 74 95 99 89 81 77 82 77 78 79 83 88 69 38 26 16 13 13 14 15 16 20 24 29 31 32
48 67 98 100 92 84 79 88 92 84 76 81 72 65 72 73 70 97 100 100 100 93 90 82 73 43 46 50 53 53 57 62 78 87 86 82 77 76 73 71 63 45 26 15 14 16 18 18 20 22 27 34 37 37
55 79 100 98 91 89 90 98 100 88 82 86 80 76 93 91 93 100 91 100 98 93 84 59 46 47 38 26 30 48 55 60 59 56 60 74 81 78 78 78 72 54 25 15 18 21 22 22 23 27 34 40 43 44
76 83 98 93 94 94 98 92 98 96 94 92 86 90 85 90 89 78 99 93 71 44 42 41 29 24 25 25 32 36 47 53 54 54 55 60 66 73 76 70 58 40 19 16 21 24 26 28 26 27 35 43 46 47
96 81 90 97 98 97 98 98 95 98 100 94 95 88 82 86 76 96 85 76 43 37 30 26 29 31 28 37 40 40 50 49 47 49 55 63 72 76 74 54 33 22 17 20 24 28 31 32 34 31 33 45 50 50
93 85 96 95 98 100 97 94 95 93 100 89 91 86 86 92 88 87 81 65 42 33 37 44 48 42 32 30 37 39 44 52 47 43 49 66 80 82 69 45 30 24 20 22 29 37 39 38 40 39 36 43 50 51
95 80 96 89 95 96 87 95 97 94 88 91 88 86 93 90 93 88 75 49 40 35 39 45 47 48 48 38 30 36 42 50 49 46 55 72 77 77 70 48 36 34 34 36 38 40 41 41 47 46 39 44 52 54
92 94 92 86 88 88 89 86 82 84 91 93 81 91 92 95 89 71 46 42 34 36 38 41 43 43 43 43 49 38 32 33 29 38 50 55 55 56 54 48 41 36 35 36 39 40 43 49 48 42 47 55 57 59
89 77 95 97 95 90 90 92 93 94 87 76 80 98 90 83 74 47 43 40 45 44 43 40 34 34 36 37 39 40 51 40 38 41 29 28 26 25 26 28 30 32 34 37 42 45 44 40 44 56 60 61 63 67
100 98 82 99 96 96 94 90 81 58 49 59 82 78 70 46 37 37 35 34 34 32 31 32 32 34 34 34 33 34 40 46 54 42 29 25 24 24 25 26 27 30 36 40 41 40 47 58 61 63 67 69 70 73
96 86 84 89 93 92 62 54 53 53 53 50 51 50 48 45 40 39 40 39 39 39 38 41 43 45 42 39 32 27 30 46 52 51 53 45 39 40 40 35 33 35 38 42 52 61 65 68 70 72 75 77 82 83
80 87 92 89 84 62 62 62 58 60 60 59 55 57 53 56 49 42 40 34 34 36 42 44 45 42 41 35 32 39 46 50 53 55 55 53 53 56 58 46 42 44 54 62 67 73 81 84 82 81 85 88 90 94
89 96 95 96 77 62 66 71 66 63 62 67 67 64 64 64 64 52 42 42 46 48 42 43 46 40 41 47 48 48 53 55 50 50 53 53 50 47 44 48 58 65 70 77 85 90 92 92 91 89 91 92 93 94
99 100 99 90 79 75 70 70 78 83 85 78 65 61 66 69 71 52 47 51 54 55 54 49 48 49 49 50 52 55 55 50 47 49 50 47 47 54 63 68 75 82 88 90 94 95 95 95 94 95 96 96 94 94

GFSWCAN_850_rhum_042.txt.gz
RH
71 79 84 82 74 75 76 75 84 84 83 92 89 88 95 88 90 94 97 98 97 90 80 71 65 62 53 49 56 58 77 82 88 88 88 92 66 60 53 46 64 69 82 78 71 81 84 57 62 72 64 58 58 58
73 79 83 81 72 78 81 80 85 97 97 93 91 91 94 88 88 98 99 98 95 98 82 76 79 76 65 68 65 61 67 64 100 98 87 79 67 49 55 67 48 69 58 64 60 67 46 48 54 55 54 57 62 58
74 78 70 67 71 74 79 82 88 99 94 96 91 93 92 91 91 93 100 98 96 99 83 74 75 84 69 72 70 69 62 70 99 97 96 98 96 67 68 63 54 49 44 60 52 46 46 44 51 56 56 58 61 62
76 77 63 62 64 70 81 83 92 99 94 95 92 90 92 91 90 98 99 92 98 95 92 69 70 84 77 84 64 81 85 91 79 85 95 98 100 67 65 58 54 56 53 58 60 52 52 49 46 55 60 61 62 63
77 78 80 80 75 79 81 85 90 90 92 91 88 86 94 94 87 97 83 76 90 98 96 86 76 68 77 83 80 81 88 85 82 78 95 92 98 98 81 72 70 56 66 72 68 46 47 44 46 57 63 68 64 63
79 82 83 77 76 74 75 86 92 88 89 88 89 93 90 86 82 73 90 78 92 89 90 92 76 79 72 82 79 83 84 84 79 79 72 66 62 87 98 95 52 45 46 46 49 53 55 57 59 64 70 72 67 67
78 81 80 76 72 75 91 93 91 87 86 88 88 91 83 76 79 88 88 87 95 96 96 91 83 76 77 83 88 88 86 87 87 87 78 68 63 92 100 84 57 45 40 49 58 61 70 69 69 67 66 69 68 61
77 77 78 76 74 82 97 88 84 87 89 80 77 78 74 82 87 98 89 88 95 97 91 96 89 86 91 93 82 81 79 86 90 84 70 68 59 65 84 72 90 65 54 60 69 69 67 70 71 69 68 65 64 68
76 77 79 72 64 73 81 80 90 93 74 70 77 74 82 84 91 92 84 88 96 99 98 95 97 97 99 97 99 90 79 87 68 92 77 69 80 93 71 53 66 92 65 68 71 74 73 72 72 72 75 82 84 84
68 74 78 69 62 71 74 87 95 87 65 76 78 88 88 78 82 83 100 99 99 97 98 97 97 94 96 98 99 92 91 94 98 81 69 88 91 56 57 81 68 77 71 71 74 72 65 66 80 87 88 88 88 87
63 77 79 69 66 69 78 90 88 83 79 87 90 97 80 82 94 98 98 98 99 98 98 94 97 97 83 99 98 99 97 98 98 96 90 99 88 84 84 81 77 79 74 70 66 72 84 89 94 96 99 98 94 95
70 80 76 76 66 68 77 87 81 85 84 66 52 63 78 98 95 97 98 98 98 99 97 99 88 90 94 99 98 99 99 100 99 98 100 99 100 97 86 84 86 80 78 71 82 87 93 97 100 100 99 99 99 100
72 92 89 79 75 80 87 87 84 84 75 60 58 76 84 82 86 84 92 91 94 91 89 94 92 87 93 100 98 100 100 99 99 99 95 99 90 89 87 88 84 80 78 77 85 91 90 88 89 84 84 86 88 97
81 87 88 93 91 90 83 81 85 81 77 65 61 72 93 92 88 92 92 95 82 83 88 96 94 86 93 99 99 100 99 99 99 99 99 99 86 84 86 86 82 83 84 86 88 87 83 78 71 67 68 70 73 80
90 94 92 92 93 95 91 83 85 77 77 70 67 75 90 78 70 63 60 66 61 72 94 93 93 97 96 99 100 99 99 99 99 99 99 96 88 85 84 85 85 86 86 85 82 73 59 46 40 45 50 56 62 67
73 90 90 90 92 91 87 86 88 75 75 67 71 86 70 79 85 79 74 70 79 73 72 97 98 99 97 99 99 99 99 99 99 100 100 97 99 86 85 82 76 68 57 48 43 36 30 25 27 29 28 33 41 51
47 53 64 80 88 93 89 92 91 86 76 67 78 67 78 81 74 72 71 72 74 80 89 89 88 98 95 98 98 100 99 99 100 99 98 94 92 86 68 57 52 34 29 30 58 59 81 17 17 17 17 17 17 25
27 36 58 81 81 86 92 91 92 90 85 81 78 92 74 67 72 72 75 79 74 88 87 84 99 94 96 97 92 100 96 93 95 99 99 93 86 86 66 54 42 97 98 98 57 17 12 14 16 17 17 17 18 19
32 32 61 86 80 87 81 85 86 94 92 88 80 76 73 70 71 76 76 78 87 99 96 95 92 91 94 76 85 85 92 96 99 89 80 87 82 86 98 89 68 61 98 66 18 14 13 13 14 15 17 20 26 29
46 62 76 90 83 84 83 83 80 81 84 82 64 68 69 68 77 74 74 86 100 97 93 89 87 82 78 65 66 64 64 63 68 64 58 77 92 83 81 90 99 98 54 31 18 14 14 14 15 16 18 22 28 34
64 91 99 99 99 90 76 90 89 88 81 79 77 66 60 75 74 93 100 100 100 92 92 88 64 40 44 51 54 46 27 32 62 72 72 67 69 80 94 84 78 73 61 45 25 15 15 18 19 20 21 26 31 37
85 97 99 100 89 82 98 100 99 90 80 84 84 76 77 90 94 100 98 100 97 92 78 50 42 49 41 30 30 32 34 39 40 54 62 70 69 63 69 70 78 79 76 60 27 15 18 21 23 23 22 27 34 40
73 99 95 90 90 98 96 90 96 94 99 95 90 92 87 86 84 80 96 84 65 42 43 40 34 36 36 29 32 39 39 44 50 52 55 61 65 69 74 68 71 77 75 63 24 17 22 27 28 29 29 27 28 36
81 84 77 74 99 96 97 96 97 96 98 98 100 96 88 84 80 97 98 74 42 38 37 37 48 48 46 43 37 35 40 44 52 62 59 50 57 63 76 76 73 69 48 31 19 18 22 28 34 33 34 36 32 32
88 93 93 97 98 97 99 100 99 93 100 95 99 95 94 85 99 98 95 60 39 34 36 46 45 44 46 42 40 42 41 46 52 47 57 61 54 64 72 80 76 58 35 24 20 20 25 34 38 39 37 39 40 35
96 94 95 90 94 97 93 99 99 96 96 98 95 84 86 97 100 91 87 49 44 39 40 37 38 36 34 30 30 27 29 36 40 41 42 41 59 74 79 84 78 60 41 34 33 33 35 36 37 38 39 45 44 39
96 96 95 88 86 88 88 84 82 89 97 96 94 97 97 95 94 75 46 44 44 36 40 41 40 39 37 33 30 31 29 28 29 39 49 45 41 34 39 46 39 41 39 37 36 35 35 37 39 43 47 44 40 48
83 79 96 93 94 84 91 93 94 95 92 82 94 95 95 91 79 43 44 37 38 38 36 37 39 40 35 31 32 35 37 38 37 34 32 43 52 45 38 28 25 26 28 30 31 32 37 43 48 49 42 45 56 62
97 91 85 99 96 94 91 92 88 72 60 74 90 87 72 51 46 42 40 40 38 35 35 36 31 28 26 26 26 28 34 43 46 42 36 35 39 50 52 43 31 30 29 28 28 29 36 43 44 47 58 62 62 66
92 88 84 90 94 94 70 62 56 55 56 56 56 55 53 50 44 42 42 42 42 38 33 27 25 29 26 28 28 30 34 40 44 46 44 39 40 51 54 54 55 50 45 39 36 37 41 46 57 65 70 73 73 72
82 88 91 89 91 63 63 67 64 64 66 66 62 64 58 60 50 48 48 45 42 34 33 32 32 35 39 42 46 48 50 43 42 44 50 56 55 56 59 59 60 63 64 55 44 47 59 68 71 75 79 82 84 90
88 93 96 99 84 66 68 66 63 63 62 65 66 66 68 70 68 55 40 42 45 45 37 39 44 49 54 55 55 54 56 53 53 55 57 56 54 53 56 59 62 60 52 54 66 73 76 83 86 88 90 89 90 93
100 100 99 93 85 77 74 71 71 80 83 79 67 64 68 71 69 55 51 48 46 43 45 53 57 59 61 60 56 53 53 54 57 56 52 51 53 53 52 53 58 66 73 79 84 86 88 92 92 93 94 94 95 95

GFSWCAN_850_rhum_045.txt.gz
RH
69 73 70 66 65 73 78 80 86 93 92 90 90 86 87 86 83 89 97 95 95 93 81 77 71 78 66 56 64 60 75 87 92 94 89 88 80 66 60 60 77 83 88 91 84 83 87 56 61 73 64 60 59 54
66 68 71 67 69 74 82 80 88 89 87 86 91 87 81 84 92 94 98 99 100 99 78 75 75 86 86 71 72 62 70 65 99 100 100 98 83 68 69 75 57 73 68 78 72 71 48 58 56 56 57 59 59 56
63 65 64 63 66 69 73 82 90 98 100 89 84 86 81 86 89 92 99 97 86 94 86 74 73 74 71 69 71 68 76 93 98 88 97 99 100 91 78 75 62 54 51 62 56 49 50 43 50 56 56 58 61 57
64 64 60 60 62 66 79 85 90 87 90 87 82 84 88 89 91 91 97 82 96 98 97 74 85 76 68 78 79 83 90 96 96 92 86 94 98 97 95 81 70 61 59 64 65 57 53 50 51 53 56 57 60 62
68 67 68 69 67 74 82 81 83 82 79 80 82 90 94 89 83 77 78 64 88 93 98 81 82 74 72 79 68 77 87 92 87 82 98 93 89 94 92 98 79 60 63 71 73 51 49 45 43 51 56 61 64 65
71 71 69 66 70 73 75 83 77 77 80 80 89 93 87 79 69 78 88 80 88 92 91 98 72 77 71 74 78 80 83 85 81 82 80 69 64 77 99 93 64 54 54 58 51 50 48 48 50 57 61 67 68 64
72 70 67 66 66 72 79 68 63 71 81 86 93 86 78 68 71 78 82 86 91 96 94 93 85 78 83 85 85 84 84 87 85 88 86 72 62 77 95 83 51 52 64 60 60 54 71 69 69 71 69 70 68 67
73 68 67 62 64 68 66 60 61 71 82 82 82 79 71 69 75 80 76 85 96 96 86 97 92 83 94 96 88 81 80 85 87 88 84 82 70 71 92 58 51 53 75 81 72 62 60 66 70 70 68 68 66 67
69 68 65 58 57 58 58 56 60 76 73 72 76 83 72 72 86 78 90 89 86 97 97 95 100 99 99 94 99 93 84 95 75 97 86 76 84 90 68 66 56 44 97 100 82 68 70 72 71 72 72 72 75 80
70 70 67 55 56 58 53 48 51 55 68 80 87 83 86 76 85 89 100 98 90 87 86 94 92 97 91 91 98 98 98 97 100 86 70 84 89 60 57 56 73 76 89 99 86 78 76 75 75 79 83 87 88 88
72 73 67 54 51 50 47 46 45 47 57 71 78 68 72 82 96 97 99 95 98 96 97 93 97 96 81 97 97 99 98 98 99 93 91 98 99 98 94 75 91 95 100 100 76 73 78 82 90 94 99 99 95 92
73 74 68 54 50 53 48 47 49 47 52 50 51 73 81 97 96 92 99 93 95 98 97 99 91 84 91 97 97 98 98 100 98 99 99 99 100 100 99 92 88 86 96 97 90 94 98 95 95 98 98 97 97 99
78 74 70 64 62 63 56 54 54 52 56 57 48 67 80 82 73 80 87 85 92 86 84 90 91 84 87 96 99 100 100 94 100 100 99 100 98 97 98 99 99 100 100 100 99 95 92 90 86 81 79 78 81 85
73 81 78 75 74 75 63 66 62 60 60 61 51 50 82 94 88 93 92 92 72 81 67 88 98 91 84 99 99 100 98 99 98 98 99 99 100 91 94 99 98 99 99 99 100 99 88 76 67 60 53 53 57 62
67 77 76 68 82 84 81 76 67 61 60 64 64 59 85 76 82 70 65 60 56 62 82 91 93 98 96 99 98 99 99 98 98 97 98 100 99 99 91 89 99 98 98 99 98 99 90 47 42 40 37 38 42 50
37 69 74 78 82 90 88 76 74 66 74 67 70 72 76 73 76 79 72 66 72 66 79 93 95 98 92 99 98 98 98 97 98 98 100 100 99 99 98 93 82 73 62 60 62 58 44 34 27 21 18 18 20 29
37 46 65 77 83 88 83 71 72 78 80 69 69 71 84 84 74 69 72 68 74 67 95 84 90 90 96 99 99 97 98 97 100 99 96 98 100 98 96 81 65 41 33 59 80 67 85 84 45 17 15 15 16 19
32 34 46 61 70 71 71 75 76 86 86 82 76 90 79 67 66 69 72 77 76 89 86 88 97 90 98 100 94 98 97 92 75 67 68 69 78 97 99 98 58 60 97 99 99 91 56 17 15 12 13 15 18 22
26 24 42 70 75 64 74 79 77 83 90 90 79 72 68 61 62 68 77 84 87 92 94 93 87 88 94 81 80 81 78 79 81 57 30 30 51 89 95 99 99 98 99 99 49 23 17 14 13 14 14 16 21 24
41 51 72 92 81 80 76 80 76 79 76 76 65 59 56 56 62 68 74 90 99 95 93 88 88 78 73 46 63 62 60 58 46 41 30 32 55 83 87 99 98 98 99 97 69 28 16 14 14 16 17 19 23 29
64 98 100 94 92 81 82 92 83 83 79 72 70 69 58 64 66 74 94 94 94 90 91 88 68 38 50 53 53 40 31 36 40 47 51 58 53 72 79 88 100 99 90 85 66 45 23 15 18 19 20 21 25 30
81 97 100 98 89 81 98 100 100 92 81 83 83 77 71 74 87 98 96 100 98 83 74 50 43 49 44 36 31 34 36 41 46 49 54 58 58 60 66 72 82 88 86 84 81 64 28 18 21 23 24 24 24 26
87 95 89 92 88 93 95 97 98 98 95 94 94 91 82 82 80 85 89 85 62 36 36 42 44 42 46 43 40 39 40 40 42 47 55 64 63 55 55 61 71 80 78 75 84 73 29 19 22 26 27 28 30 30
63 83 73 75 96 97 97 96 100 100 98 98 100 100 89 83 94 95 100 69 43 39 36 37 42 48 43 33 31 30 31 35 39 43 47 46 54 56 51 59 73 77 75 73 62 49 23 19 23 29 34 35 34 35
64 75 76 98 98 96 100 100 100 98 100 99 100 99 88 93 100 100 97 51 43 42 39 39 45 39 33 31 29 25 27 29 28 28 29 42 49 48 53 69 76 80 76 59 39 26 20 20 23 32 38 39 40 40
93 86 97 92 98 90 94 100 100 98 98 100 98 85 89 100 100 94 84 42 40 43 44 44 39 39 39 39 39 35 30 33 38 40 35 33 34 48 53 44 43 49 66 60 43 34 32 31 33 35 36 38 42 44
96 98 94 90 86 92 93 88 84 92 100 100 97 100 99 99 95 77 44 45 44 49 44 40 40 41 42 42 39 33 27 30 34 37 39 40 40 37 39 53 52 40 31 37 40 38 36 35 35 37 40 44 46 50
79 76 98 98 94 86 87 96 99 99 94 78 90 99 95 90 86 44 49 49 45 44 43 43 43 42 41 37 30 26 23 26 30 31 32 36 38 39 32 29 46 58 50 33 30 31 32 33 31 34 40 46 49 47
98 93 83 98 96 94 88 90 86 61 52 67 93 96 87 58 54 54 50 48 47 47 46 45 42 41 39 33 26 23 24 28 37 39 39 37 38 32 34 31 32 44 56 58 42 35 35 34 35 38 42 43 46 58
88 89 80 98 98 96 64 56 50 46 53 55 57 58 58 57 54 55 57 56 54 50 44 41 38 40 36 31 27 26 29 40 48 51 52 50 46 47 43 45 53 56 60 61 56 50 45 43 42 44 50 58 64 68
89 92 87 88 91 63 60 61 61 62 64 64 64 70 65 58 46 45 48 42 44 45 48 46 42 39 39 37 36 38 45 55 57 53 52 53 52 53 57 59 59 66 73 71 68 67 62 56 56 63 73 77 83 86
88 94 98 100 87 67 69 71 70 68 63 64 64 63 64 74 75 58 40 49 50 51 46 46 47 45 47 48 48 48 55 61 63 57 57 56 55 56 58 59 57 61 70 78 82 71 64 71 79 84 88 88 88 88
100 100 100 97 89 80 74 73 70 73 76 73 61 56 65 72 72 59 52 44 44 44 47 49 50 51 53 55 57 61 63 65 63 58 57 58 59 57 56 58 56 55 58 65 75 84 90 91 89 88 90 90 90 92

GFSWCAN_850_rhum_048.txt.gz
RH
75 64 65 62 62 70 68 74 80 86 87 84 88 86 85 85 89 85 87 92 90 88 81 81 79 80 80 68 72 61 78 83 95 95 92 87 83 69 69 68 78 83 84 93 88 94 84 48 60 68 61 61 61 57
68 64 58 66 64 67 67 74 79 85 86 86 82 84 83 88 91 91 97 98 94 92 84 79 78 73 78 89 78 67 80 82 99 100 99 98 96 79 73 76 67 76 71 82 76 74 45 45 56 51 57 59 58 57
66 57 57 65 64 64 66 70 76 86 95 92 81 81 83 90 92 89 94 92 96 100 77 70 78 81 80 76 77 76 86 91 88 87 97 98 100 93 94 79 65 59 57 66 63 53 55 44 51 54 56 57 56 56
57 55 61 62 62 62 65 69 74 73 71 71 74 80 89 94 93 86 72 78 99 97 91 78 78 76 75 82 88 82 79 82 92 90 84 93 97 95 90 93 87 66 60 64 69 59 55 51 46 48 57 57 58 61
57 54 60 60 61 63 68 66 68 66 67 68 72 84 91 93 88 72 71 81 81 88 96 80 78 72 68 77 80 80 94 88 93 87 99 96 84 94 91 97 96 65 69 71 70 52 50 42 40 44 56 56 59 61
56 58 61 63 63 66 64 64 59 58 59 63 71 77 82 78 74 88 89 90 87 86 78 95 67 75 77 78 78 78 80 87 85 83 85 75 67 92 99 91 70 43 54 78 81 63 59 61 43 44 56 60 64 66
61 65 68 67 65 61 56 49 49 50 49 53 60 69 70 67 81 83 82 81 88 84 80 86 83 76 84 88 83 82 84 86 84 85 93 80 68 77 95 92 49 45 40 45 65 82 78 68 57 55 63 67 70 69
69 70 70 69 63 56 47 44 44 43 42 40 54 59 59 78 82 77 78 97 93 83 79 95 91 76 92 94 95 82 83 90 92 90 90 92 75 72 91 62 52 45 46 49 54 86 91 68 72 70 72 72 70 67
73 74 71 68 63 50 45 40 40 35 32 40 51 55 64 74 81 84 91 91 90 91 83 85 100 97 93 92 98 96 93 96 80 96 90 82 83 92 63 55 60 53 68 64 56 100 96 78 77 74 71 70 70 71
80 75 73 71 58 46 45 38 34 31 28 40 56 62 69 74 86 88 98 98 86 80 78 83 90 99 87 93 98 99 98 98 100 86 78 88 89 60 86 95 76 85 98 95 99 99 95 88 79 77 77 78 82 84
80 75 75 69 54 46 42 36 31 28 33 38 43 56 72 82 94 98 97 93 94 87 98 93 94 93 80 95 96 98 98 98 98 92 87 98 98 99 99 100 97 100 97 99 100 100 98 87 83 84 93 96 93 90
77 78 73 70 58 50 44 38 31 24 24 29 39 61 71 84 96 88 100 87 94 92 94 97 96 89 90 94 96 96 99 96 94 97 97 98 100 100 99 98 98 96 99 100 100 100 100 99 99 100 99 97 94 94
81 82 79 70 63 53 45 37 27 19 26 35 38 56 67 74 55 57 63 74 82 77 79 87 89 78 86 92 99 100 100 96 99 99 99 99 100 100 99 98 98 99 100 100 100 100 100 98 92 88 84 80 76 76
84 85 80 73 68 60 49 39 26 22 34 46 42 53 74 81 80 90 86 84 66 77 68 85 97 98 90 98 97 99 85 100 98 96 99 96 100 100 100 98 98 98 98 99 99 99 99 87 74 62 54 48 45 50
89 89 88 81 72 69 61 45 29 28 40 55 52 51 86 73 92 82 75 62 59 59 73 85 83 96 91 100 95 99 99 97 97 96 93 98 100 100 98 99 98 98 98 98 98 98 98 89 58 47 37 25 26 34
97 98 86 73 71 64 58 43 32 30 57 58 64 71 79 71 60 70 69 66 65 65 67 91 80 92 87 99 99 97 96 93 90 99 89 98 91 78 96 99 97 88 65 91 96 97 96 54 27 20 18 18 19 25
92 90 80 73 75 70 65 40 37 49 63 62 69 68 74 74 66 61 66 68 72 67 90 92 99 87 92 95 99 96 93 92 86 77 67 56 50 46 59 96 97 76 46 67 98 98 98 98 96 45 23 22 23 26
71 55 71 75 67 70 46 42 42 59 75 72 66 67 66 57 56 63 69 74 79 79 86 94 97 92 97 99 97 84 96 93 76 69 58 38 28 29 50 84 100 98 96 98 98 96 89 86 34 17 17 18 21 27
46 60 83 80 72 50 54 54 55 66 81 82 79 73 64 54 47 57 70 83 89 87 80 95 88 88 93 79 81 75 84 73 72 50 36 35 38 44 73 96 100 100 99 99 100 76 28 23 18 16 18 18 21 24
63 87 86 88 68 44 51 67 70 70 72 70 62 56 51 47 46 51 68 86 98 93 89 88 89 74 66 42 57 67 57 52 41 44 47 47 47 47 53 83 92 94 98 98 99 99 89 45 19 18 18 19 20 24
94 99 100 75 66 62 70 81 80 80 77 64 66 67 58 55 53 61 71 82 96 84 91 80 54 36 45 51 57 57 36 38 44 50 53 53 54 57 50 48 64 82 85 97 98 98 98 81 26 20 21 22 22 23
99 99 99 91 86 81 82 93 93 82 72 80 81 77 72 71 72 90 95 100 97 76 62 43 36 39 50 48 41 36 39 41 43 45 49 52 53 68 63 52 56 65 72 74 87 89 90 80 33 20 22 23 24 26
89 96 87 88 87 88 92 90 94 99 98 94 98 92 84 83 84 85 95 86 58 36 34 36 38 42 48 47 44 41 36 32 32 33 36 42 45 48 50 51 51 52 57 62 78 79 82 84 42 21 24 27 29 31
65 71 80 94 84 95 96 98 100 100 100 100 100 100 92 82 98 99 100 57 36 37 39 38 42 44 49 48 33 26 28 29 31 26 30 34 31 32 46 53 54 60 69 74 75 74 71 72 45 23 24 28 35 38
49 74 69 100 94 94 100 98 99 100 100 100 100 100 89 100 97 100 99 48 42 37 39 42 48 48 50 38 32 35 38 37 37 36 22 34 38 35 31 31 46 55 58 67 75 64 42 32 25 20 22 26 35 38
84 85 87 88 99 90 94 100 99 99 100 100 99 91 96 99 100 96 82 38 43 43 43 49 59 58 52 40 40 42 41 38 40 38 24 33 36 39 37 37 36 32 52 50 43 51 47 35 28 26 28 32 35 38
97 99 94 93 87 93 94 91 87 93 100 100 98 100 100 100 97 77 45 43 41 42 48 44 42 43 44 46 45 45 43 40 39 38 34 32 34 34 37 37 35 34 37 42 54 50 33 35 36 36 35 36 37 43
81 80 96 97 96 93 90 97 99 99 93 75 86 100 95 91 84 43 39 41 44 46 47 48 48 48 48 48 46 43 38 38 38 39 35 32 28 31 34 34 37 40 39 33 39 53 53 39 34 35 36 34 35 41
99 88 85 97 99 94 87 86 84 61 50 63 90 92 78 48 45 45 46 48 51 52 53 47 35 36 38 39 39 37 37 40 44 43 40 36 36 42 47 40 41 45 45 38 41 50 56 54 50 44 43 41 40 44
88 88 85 97 99 97 66 57 53 48 51 54 55 54 55 54 47 50 50 46 45 44 41 45 45 54 50 49 44 42 41 42 43 45 45 50 56 58 52 46 49 54 57 60 60 64 63 60 54 58 56 48 49 53
90 94 86 87 91 64 58 57 58 59 62 62 62 69 62 60 42 32 34 39 48 50 53 52 52 51 52 51 53 54 53 46 46 49 52 58 62 61 56 55 57 60 63 64 71 71 65 62 60 59 59 58 61 69
92 95 98 100 91 70 72 74 72 70 63 63 54 54 58 68 70 55 40 43 47 47 44 50 52 50 58 61 64 66 66 65 60 58 57 59 62 62 57 55 59 60 63 63 69 78 82 83 76 69 72 79 85 89
98 98 100 98 94 86 79 77 73 75 73 69 56 55 61 65 66 49 42 42 46 49 51 54 57 64 79 91 89 78 65 61 61 63 67 70 69 63 60 60 61 60 60 64 71 73 76 81 87 91 93 93 93 92

GFSWCAN_850_rhum_051.txt.gz
RH
92 78 66 61 50 54 55 66 77 84 84 82 77 79 75 80 84 85 91 95 86 85 91 84 80 75 76 73 76 65 84 85 96 94 96 88 90 74 73 70 77 83 87 92 89 95 90 46 59 67 58 61 62 59
84 75 64 60 52 55 61 74 82 82 87 87 82 74 75 79 82 86 90 99 99 90 84 79 80 79 80 89 76 70 85 96 99 100 98 97 87 92 77 78 71 79 71 81 81 76 48 42 55 50 56 61 60 60
86 72 63 55 54 59 72 80 78 84 89 74 71 72 79 85 80 81 77 82 99 89 73 73 81 79 82 79 84 72 89 91 90 87 94 96 99 90 93 87 72 60 61 70 67 55 58 44 40 42 54 58 60 56
86 65 58 53 57 66 78 76 76 77 65 62 64 68 77 78 77 78 65 88 97 90 82 77 75 72 80 87 87 80 84 80 81 78 85 93 93 87 87 90 93 74 69 69 74 61 52 46 48 44 44 54 58 59
75 61 54 56 61 72 76 72 64 62 58 58 61 62 66 68 71 61 71 80 85 90 86 68 75 76 72 73 75 86 99 91 84 84 97 93 85 93 89 93 97 64 67 82 78 84 87 68 58 59 54 50 57 60
67 57 56 61 67 72 74 60 56 54 55 58 54 55 57 48 57 72 87 89 90 88 74 88 70 74 80 84 83 81 89 93 84 80 85 79 74 92 96 93 65 52 61 68 75 50 56 49 56 58 57 58 60 63
58 58 58 64 68 67 60 55 49 50 47 44 49 44 41 51 56 65 85 91 97 86 80 75 77 75 86 88 86 82 84 86 83 84 91 85 71 79 94 94 48 39 41 48 46 50 51 40 72 69 75 68 65 67
58 57 62 66 68 63 52 45 44 41 37 42 35 41 49 52 61 73 78 82 75 83 84 94 87 74 90 93 95 83 86 90 91 92 93 96 79 75 87 65 51 60 76 69 62 69 79 67 50 84 78 78 73 71
57 64 68 71 68 60 44 41 38 33 37 38 38 42 48 56 63 74 73 78 81 85 81 82 99 97 85 92 99 97 93 96 85 94 91 84 83 92 64 89 98 99 100 83 94 99 90 100 95 94 85 79 76 72
66 71 71 74 74 56 44 36 30 31 37 39 43 46 57 64 69 76 87 98 97 83 80 82 99 98 90 87 94 99 98 93 100 84 83 88 87 70 97 99 100 99 100 100 100 98 99 98 100 99 96 80 79 80
75 73 77 81 76 53 43 32 24 30 37 35 38 55 69 76 82 93 91 90 91 84 97 96 94 90 78 97 94 96 97 96 99 90 85 97 97 96 99 99 98 99 100 100 100 99 100 100 100 100 97 98 95 90
77 78 82 84 67 53 40 30 22 29 29 27 35 56 72 82 79 73 99 78 88 81 92 95 96 92 88 96 98 98 99 99 96 91 96 97 94 99 100 98 98 98 99 100 100 100 100 100 100 100 100 100 100 97
79 82 82 82 72 53 42 32 28 30 26 32 35 54 58 61 50 42 42 69 75 72 86 80 90 81 82 94 98 100 97 95 99 98 97 96 96 98 100 96 91 98 98 99 100 100 100 100 100 100 93 87 83 79
82 83 83 78 70 60 45 33 26 27 27 34 33 48 63 73 71 85 78 78 64 75 63 82 96 99 96 98 94 98 86 99 97 95 90 95 89 98 76 91 94 93 98 98 98 99 98 99 96 80 57 53 46 48
87 87 82 78 70 60 45 30 22 20 24 40 39 39 85 76 96 78 74 63 59 57 67 82 81 82 83 96 93 97 95 95 92 89 91 67 72 74 59 50 89 95 92 96 98 98 98 98 85 53 40 22 26 36
92 93 84 76 65 53 32 20 19 20 34 46 56 71 84 68 74 82 72 68 64 64 72 88 87 88 74 97 85 94 100 94 87 94 75 70 62 60 51 39 48 99 92 70 95 98 98 97 95 32 25 24 24 25
88 94 81 77 68 54 34 25 24 34 46 52 67 59 57 56 58 62 60 65 68 63 82 92 100 84 87 94 94 91 96 89 86 77 62 52 50 44 38 36 47 93 99 88 85 97 98 97 98 96 62 25 22 23
82 84 82 76 68 57 34 30 32 45 63 63 60 55 55 48 53 58 65 70 70 68 73 84 92 92 98 99 89 87 93 80 81 61 44 39 47 49 48 52 72 94 100 100 99 98 92 78 91 74 42 21 21 25
46 77 79 76 54 27 34 39 47 63 83 73 71 65 59 52 48 52 64 72 81 82 78 93 94 92 93 77 75 59 60 75 68 52 38 45 51 55 54 51 83 99 98 100 100 98 98 70 27 21 20 22 23 25
68 88 86 73 37 28 42 56 55 53 66 66 62 65 55 51 48 54 66 77 93 88 91 94 91 71 50 32 41 50 57 59 65 46 40 41 49 58 66 63 50 61 77 85 98 98 98 98 80 30 20 20 21 23
92 100 90 63 36 34 47 58 57 58 66 61 68 64 63 65 62 63 68 94 90 84 90 72 43 30 31 37 48 55 59 62 54 44 46 45 44 49 61 64 55 54 59 65 75 90 98 98 98 56 25 20 23 24
100 92 87 55 50 50 58 71 74 72 68 80 76 75 71 69 71 82 93 98 96 57 50 36 28 31 32 35 38 51 52 43 43 45 42 38 36 36 42 52 56 55 53 54 65 71 82 96 96 98 74 22 25 27
92 65 55 63 63 67 88 78 82 96 93 96 93 91 87 83 85 85 97 82 52 36 36 38 37 39 41 42 45 48 51 41 28 28 29 32 36 35 32 32 39 48 55 59 70 69 72 76 78 86 65 24 25 30
61 56 73 81 68 98 92 98 100 100 100 100 100 100 92 86 98 100 100 56 37 38 39 40 44 46 46 46 46 44 41 34 39 38 38 39 35 30 32 31 30 34 40 50 56 71 76 73 72 80 74 27 23 27
38 73 61 100 90 92 100 99 98 97 100 100 100 100 95 100 99 100 99 45 37 38 44 42 42 43 50 58 54 47 33 38 42 44 41 44 46 39 29 27 26 22 30 38 42 51 58 69 48 36 38 24 20 22
82 86 79 94 100 88 97 100 98 99 100 100 100 97 100 100 100 96 82 32 33 39 41 41 43 43 44 44 52 52 39 40 46 48 50 46 44 43 40 35 31 20 26 34 42 44 51 51 53 42 29 23 23 26
97 99 91 86 86 88 95 92 89 93 100 100 100 100 100 99 97 74 38 33 35 39 42 42 44 46 49 52 48 47 49 52 54 53 49 46 45 40 39 38 34 33 41 38 38 41 39 43 53 46 44 41 38 37
80 86 96 99 92 89 92 98 99 100 93 78 86 100 93 89 81 41 35 35 38 41 43 45 48 50 52 49 45 43 42 42 43 44 48 47 42 39 37 35 41 45 46 43 42 42 39 35 39 52 53 43 41 42
86 84 85 100 99 96 87 85 85 63 54 60 84 90 71 41 38 39 42 44 46 50 53 52 42 45 48 47 45 45 46 50 58 57 56 56 48 37 38 40 49 54 52 46 50 55 50 45 45 54 60 59 52 57
95 85 84 99 99 99 65 65 61 52 54 56 55 53 52 50 43 45 46 35 38 41 44 51 52 53 55 58 56 55 56 58 60 63 66 66 56 54 50 58 60 59 56 52 54 57 61 62 62 65 66 64 60 62
90 91 87 90 93 70 58 59 59 59 62 62 62 68 59 60 35 22 32 40 43 43 46 47 50 53 58 59 66 66 59 56 60 63 64 68 72 71 70 67 64 63 61 57 58 61 62 65 70 66 62 60 60 60
93 95 97 100 92 74 72 70 68 69 64 62 56 55 60 66 68 50 34 37 40 43 47 51 53 64 73 87 88 87 82 77 82 78 69 69 67 67 68 71 71 67 61 59 62 64 65 73 85 89 83 78 72 72
99 98 99 96 95 88 82 80 74 77 75 70 55 55 58 60 60 44 41 42 45 49 57 82 85 61 64 78 88 91 90 92 96 96 80 69 68 71 73 73 70 65 63 64 66 69 79 86 84 81 84 91 93 90

GFSWCAN_850_rhum_054.txt.gz
RH
100 94 89 74 59 46 52 48 57 61 67 70 71 71 73 76 70 58 65 68 63 80 91 83 79 75 78 75 77 64 88 86 97 91 95 94 92 81 77 69 77 84 90 94 91 93 92 48 58 67 55 58 62 62
94 92 84 76 56 47 51 52 60 70 76 76 72 70 76 77 70 59 61 69 66 71 80 81 80 81 80 86 78 69 90 98 99 99 94 92 79 96 84 80 68 82 73 78 81 77 50 45 55 46 51 55 57 62
86 92 86 66 54 48 53 54 66 74 77 74 68 71 85 79 68 58 61 65 57 66 72 76 80 77 83 82 86 73 84 97 86 82 91 94 96 98 88 90 91 64 64 78 69 56 58 52 53 58 62 63 62 61
85 86 80 68 50 52 52 59 72 74 77 65 63 70 79 72 64 58 56 66 66 69 74 71 71 69 75 83 86 81 82 78 79 72 84 92 88 85 88 91 91 80 81 78 80 64 67 56 65 63 55 57 64 67
62 72 79 60 51 57 51 65 77 94 65 58 61 67 67 62 53 60 58 63 66 66 77 68 75 79 80 76 76 82 97 92 82 82 96 95 85 90 88 86 91 73 77 86 90 96 74 61 47 43 46 60 68 67
83 85 70 57 51 56 56 75 98 61 55 56 64 63 50 51 55 57 64 63 64 60 58 85 72 77 83 86 86 84 92 96 84 84 85 80 75 88 88 82 59 48 48 48 54 62 65 59 52 42 54 51 61 70
67 82 64 50 53 58 64 93 65 52 53 57 54 49 53 55 56 56 62 66 62 61 63 72 77 73 87 90 88 84 87 87 84 86 89 85 72 79 95 88 51 54 79 92 89 90 70 67 72 70 46 37 66 73
83 75 55 51 58 58 79 77 53 51 49 50 50 53 60 61 59 54 60 63 66 66 69 91 81 77 84 94 93 89 89 91 91 92 92 93 79 78 84 62 66 92 99 98 96 95 98 99 89 83 92 72 87 82
79 62 53 59 58 73 81 65 48 50 44 55 59 57 54 56 58 67 62 65 55 61 70 78 98 95 76 91 99 99 95 92 89 92 91 85 84 93 86 88 99 100 100 100 98 99 99 100 100 99 98 99 99 93
70 57 57 60 61 80 75 52 48 52 51 57 59 53 54 62 60 61 69 69 66 69 72 92 99 96 83 81 86 99 96 96 100 84 86 85 86 72 80 100 99 99 99 100 100 97 98 98 99 99 99 100 100 100
66 59 65 51 77 83 56 44 50 58 63 58 49 57 66 70 62 64 83 79 77 81 96 92 94 93 87 98 98 92 99 98 97 96 94 96 94 83 95 100 100 100 99 100 100 100 100 100 99 99 100 100 100 100
65 72 60 79 86 62 44 43 52 48 50 40 42 58 69 68 59 59 94 72 82 68 88 94 91 88 84 91 98 99 100 98 96 97 97 96 92 84 74 76 77 100 100 99 99 100 99 99 100 99 99 100 99 99
75 72 79 90 72 54 47 48 50 44 40 42 41 50 47 53 47 33 31 69 69 75 79 68 70 79 88 97 95 99 99 98 99 98 93 89 88 67 63 53 45 50 96 96 95 96 97 97 99 100 98 92 78 76
80 85 92 91 70 55 50 46 44 54 36 32 29 51 62 66 62 76 70 75 52 67 70 84 94 98 99 99 93 95 84 99 99 99 92 93 58 70 60 51 52 39 50 99 93 97 97 98 98 98 68 42 40 45
90 96 97 93 75 56 46 48 53 44 38 33 26 38 76 83 92 72 71 58 57 58 74 83 83 88 90 85 92 89 76 98 94 87 92 62 74 50 42 43 41 36 37 81 97 95 98 97 98 94 71 75 49 28
98 98 91 92 64 46 35 42 49 36 34 40 47 76 97 74 99 91 64 62 57 65 76 86 94 95 88 92 80 83 89 96 84 94 77 61 42 38 47 50 48 43 50 65 98 96 97 98 98 97 45 30 26 27
90 92 88 85 58 50 57 45 31 36 36 46 70 55 47 42 45 56 53 56 62 65 79 89 69 60 82 93 90 82 89 88 79 78 63 48 42 47 50 54 52 53 64 79 98 99 97 98 97 97 97 82 47 29
87 88 81 73 52 58 40 31 28 38 59 62 59 52 47 40 43 48 51 57 64 64 66 76 84 100 100 99 89 85 79 83 64 69 63 46 41 48 54 62 61 53 62 97 99 97 97 97 97 96 97 90 52 76
66 74 80 76 38 21 22 32 38 62 85 73 69 56 53 52 49 46 50 58 69 72 70 89 96 98 92 76 62 36 39 48 55 61 57 45 43 48 50 67 65 60 51 63 79 88 96 97 98 96 68 69 69 27
78 84 89 51 25 24 34 47 45 42 73 72 72 74 59 56 58 63 70 77 87 81 95 99 93 65 49 28 32 37 39 43 58 68 59 50 44 46 46 47 54 57 56 53 56 68 82 95 98 98 86 31 23 22
94 96 74 43 28 28 43 56 52 66 66 71 77 69 66 71 66 76 81 90 97 89 93 56 36 30 32 35 36 39 44 50 53 62 51 45 43 42 30 30 36 40 47 58 64 56 62 80 94 98 98 97 67 25
97 84 61 31 30 40 57 72 68 70 69 78 80 74 70 70 74 79 94 100 95 55 50 40 35 37 41 41 41 43 43 48 49 54 48 46 32 30 30 32 37 34 31 33 45 68 69 76 86 93 98 98 75 30
87 54 36 39 39 54 84 83 78 88 90 97 86 83 85 83 88 90 100 88 54 38 37 39 39 42 43 40 41 44 48 50 50 51 33 34 36 36 37 35 36 37 33 26 30 36 50 68 85 95 96 97 97 45
38 41 57 60 52 99 92 97 99 100 100 98 100 97 89 89 98 100 100 58 36 37 34 35 42 40 38 38 38 38 44 52 50 38 42 45 55 53 48 45 43 39 39 33 28 28 33 49 68 75 87 88 94 49
36 69 53 100 85 87 98 98 96 94 100 100 100 100 97 100 100 100 99 47 32 28 32 42 41 43 44 42 40 44 45 46 52 44 45 49 52 56 54 57 56 50 36 33 32 31 31 45 53 59 65 45 45 58
86 87 79 98 97 82 96 100 100 100 100 100 99 99 100 100 100 85 78 30 27 29 31 35 39 43 43 43 45 48 48 46 47 51 40 40 45 51 54 54 54 48 35 33 36 38 37 36 41 46 52 51 44 33
98 100 94 88 83 82 93 92 90 92 100 100 100 100 99 97 94 70 36 29 30 35 36 39 43 45 47 49 52 51 50 50 46 46 48 48 50 52 53 53 50 43 41 38 37 45 47 44 42 44 46 54 50 48
89 97 97 94 90 81 96 99 99 96 93 77 85 100 91 86 76 35 31 34 36 39 44 48 50 54 52 47 47 48 50 55 49 50 50 46 42 41 45 46 44 42 44 42 43 52 54 52 50 49 49 44 44 57
80 90 81 100 99 91 81 84 83 64 59 62 81 88 66 39 36 38 40 44 48 49 48 44 41 46 47 49 51 52 55 58 67 69 67 66 63 51 50 50 46 46 46 50 59 59 57 55 54 56 55 56 55 58
93 84 86 98 100 98 67 68 66 59 56 57 56 53 50 47 40 44 41 37 43 41 44 44 46 48 50 53 56 64 70 73 72 77 81 78 80 76 64 65 65 66 65 63 61 61 60 58 60 64 68 75 73 71
86 81 83 86 89 74 67 64 64 64 67 65 60 65 60 56 24 25 31 35 36 43 44 45 52 68 74 86 94 84 68 78 90 96 91 88 90 88 78 72 73 71 67 65 66 68 63 61 65 72 76 74 71 69
97 91 92 100 87 79 75 75 73 71 67 66 60 57 53 56 57 39 35 34 38 45 47 67 79 84 91 82 67 80 86 88 95 94 95 96 97 98 92 79 75 74 72 73 74 70 67 69 75 83 88 91 89 84
100 98 97 92 92 86 80 75 72 76 74 74 65 59 59 58 57 40 38 44 50 70 73 72 86 78 63 62 66 74 81 90 96 96 97 97 99 97 92 84 79 78 77 74 70 71 74 83 90 93 91 86 87 91

GFSWCAN_850_rhum_057.txt.gz
RH
97 100 100 100 89 75 57 43 42 52 50 42 54 62 66 55 48 50 52 54 45 84 92 79 77 76 78 75 79 65 88 86 96 96 93 98 92 84 78 69 78 85 91 96 90 95 89 50 57 66 67 65 68 70
96 100 100 87 85 66 45 42 44 55 47 47 58 66 68 59 48 50 51 56 52 61 87 79 80 81 80 83 85 73 94 100 99 100 94 92 76 95 88 80 70 82 75 78 81 76 52 55 57 70 66 52 58 76
99 99 98 83 80 65 46 43 45 55 42 51 59 72 72 60 51 50 42 53 61 73 76 76 79 81 86 81 83 72 87 96 85 83 92 97 94 94 86 88 95 71 71 79 70 59 74 73 69 56 47 48 47 54
100 100 90 79 81 59 46 42 48 46 44 54 62 77 68 58 53 51 43 48 53 59 71 78 75 72 75 78 85 82 81 80 76 71 81 88 87 86 85 91 94 84 81 85 83 80 56 65 48 52 47 45 44 45
100 100 89 84 78 50 44 46 47 42 43 53 70 74 66 54 56 52 50 51 50 54 70 74 77 80 84 84 82 81 92 86 77 77 93 97 85 91 87 86 92 81 90 94 92 68 78 67 72 74 60 53 61 60
100 97 98 86 60 52 47 48 44 37 49 64 68 65 58 54 59 57 51 52 49 50 58 89 74 79 89 88 84 85 86 88 81 80 88 79 79 88 89 82 60 58 70 89 80 91 97 92 77 76 72 88 80 77
100 99 90 77 69 48 47 49 40 48 61 67 62 55 55 59 61 60 57 47 47 52 53 81 78 80 86 91 87 85 88 86 79 86 91 85 73 75 90 80 50 67 92 99 98 100 96 95 98 100 100 98 92 86
100 95 88 79 56 50 47 50 39 66 62 59 58 61 68 73 68 61 56 52 52 43 43 85 80 77 77 94 84 89 89 90 91 92 90 89 78 76 76 58 74 93 98 99 100 100 100 99 100 99 100 100 99 96
100 95 88 63 55 51 51 42 58 62 53 59 68 72 70 67 64 62 53 46 44 44 51 70 98 79 74 82 99 98 90 93 90 92 90 83 83 93 71 77 92 100 100 100 98 98 99 100 98 100 100 98 100 95
94 88 73 57 53 49 48 45 66 55 56 68 72 68 68 69 63 57 53 54 56 39 57 91 99 97 78 80 86 93 96 98 100 90 87 93 92 68 67 78 68 75 98 100 100 99 99 100 100 97 99 99 100 99
89 88 76 56 57 52 52 65 73 56 69 75 66 72 70 68 60 55 55 65 64 70 74 90 89 96 87 97 98 92 88 98 97 93 98 98 97 84 72 50 43 38 39 74 98 100 100 100 100 97 98 99 100 99
97 83 62 61 58 66 43 96 71 59 62 57 59 70 69 67 47 57 91 72 75 60 95 92 89 86 82 94 96 88 97 95 96 96 99 100 89 70 62 54 48 46 41 37 81 88 89 98 99 97 99 98 98 98
92 69 67 63 68 48 71 98 53 53 51 63 51 45 44 43 43 34 43 69 72 79 87 76 69 75 88 93 97 95 94 97 96 98 97 91 78 62 64 55 43 44 45 44 46 92 87 89 98 97 96 91 62 72
78 72 68 74 62 48 97 54 55 51 42 37 35 51 60 61 56 68 67 73 59 69 64 74 85 97 98 94 85 90 87 98 98 100 97 93 66 61 49 44 48 47 48 41 41 80 93 89 91 96 94 96 62 51
84 81 86 81 46 98 71 53 53 48 40 31 21 47 74 88 90 77 69 62 61 63 63 86 89 91 95 85 77 80 83 76 94 90 91 69 61 43 37 44 50 52 51 49 57 72 100 94 90 94 96 94 94 70
91 94 88 58 97 94 50 60 54 44 36 37 46 87 99 77 99 86 55 55 57 65 70 79 95 95 93 94 81 90 89 90 87 91 73 71 51 48 43 47 52 58 58 54 55 85 100 100 97 95 97 96 81 47
98 100 95 99 86 42 91 66 53 41 38 47 67 58 49 40 47 47 47 51 60 61 82 83 71 57 81 89 87 79 84 90 75 62 47 52 59 54 53 50 57 66 62 54 56 96 97 100 100 96 97 96 96 97
97 94 87 61 43 86 68 46 38 41 64 57 58 52 46 40 42 45 43 46 55 58 59 71 73 100 96 98 90 85 66 47 40 42 46 42 53 55 58 52 53 59 57 58 58 60 78 92 100 100 99 97 94 96
71 69 48 41 40 32 25 36 36 72 91 82 73 57 52 48 43 38 40 56 63 60 59 83 98 98 86 74 55 35 34 38 43 44 42 36 41 52 51 50 46 41 48 53 60 64 61 69 92 100 99 99 96 95
63 70 43 44 32 24 32 45 46 47 78 78 73 64 59 52 55 56 62 72 82 72 90 99 89 56 42 29 33 39 43 43 47 48 42 39 43 52 48 44 33 32 31 34 37 47 66 65 70 85 99 99 98 94
94 83 67 41 26 27 46 56 57 67 74 74 83 61 63 71 68 77 84 93 94 87 88 49 34 30 33 38 41 40 40 44 46 51 51 49 49 52 46 35 34 33 34 32 34 33 35 48 74 85 92 98 97 97
91 74 46 35 30 42 58 66 66 70 70 87 72 68 73 78 80 80 96 100 95 56 48 37 35 37 41 38 40 37 36 36 39 47 51 52 55 50 36 38 46 40 41 41 39 35 30 35 43 68 89 98 98 97
51 33 27 29 32 50 87 85 70 79 86 86 79 80 92 86 88 89 100 94 62 39 38 39 37 38 38 41 38 42 43 42 40 42 44 52 52 41 42 48 56 65 57 58 53 42 34 34 36 50 73 83 97 97
29 28 42 50 49 99 80 91 90 94 92 95 99 86 92 92 93 97 100 62 36 34 31 30 34 34 37 39 39 41 45 44 42 46 48 46 46 42 55 60 58 52 59 75 55 51 38 38 41 45 61 72 68 75
31 62 49 98 78 80 93 97 97 96 100 100 100 100 98 99 98 100 100 53 26 24 27 29 31 34 39 39 40 40 42 48 49 51 44 49 49 47 46 46 45 46 51 52 52 52 44 37 44 50 46 47 56 58
89 88 75 91 94 78 91 97 100 99 99 100 100 100 100 100 100 87 78 30 25 28 30 32 36 39 42 44 48 50 52 56 64 64 44 57 60 60 58 54 48 44 45 48 52 50 43 38 39 48 51 50 51 56
91 100 95 83 77 77 90 90 89 89 100 100 100 100 99 88 91 67 34 29 29 33 37 42 48 54 58 57 52 54 58 58 62 64 60 59 66 66 69 64 59 51 50 48 47 46 46 44 42 51 53 50 54 56
94 93 96 92 82 76 95 99 96 92 91 80 84 100 86 82 71 31 29 33 36 43 46 52 55 52 50 46 47 47 48 52 57 63 62 60 59 60 61 62 62 58 51 50 53 52 51 52 54 58 56 54 53 58
90 90 72 100 100 85 76 82 78 62 59 62 79 87 64 40 31 33 36 42 41 42 40 39 41 46 48 55 64 72 77 90 96 90 80 80 81 76 77 73 82 82 72 65 64 66 68 66 64 62 58 56 64 64
92 80 88 100 99 98 72 71 66 61 60 58 54 50 46 40 38 41 36 31 33 37 42 48 53 63 64 67 71 82 86 72 76 90 93 81 86 88 90 88 91 92 91 83 76 79 78 71 69 69 62 64 73 74
84 74 76 86 85 80 74 73 71 68 68 67 62 63 56 57 37 23 23 29 33 38 47 50 52 61 66 72 75 68 57 66 75 82 91 92 97 97 92 96 97 94 91 88 83 79 73 69 70 69 65 69 78 80
91 86 88 100 89 85 78 73 70 71 73 68 64 60 57 56 52 29 35 38 42 48 60 69 74 76 82 68 67 73 78 82 83 85 87 88 96 98 97 98 97 96 90 81 76 74 75 77 72 69 73 82 93 95
100 96 95 93 92 89 82 76 78 75 76 76 73 69 60 56 48 34 35 40 47 61 72 74 78 84 86 70 70 71 77 80 83 92 96 96 98 96 95 96 98 98 93 90 88 83 75 73 75 83 90 92 90 89

GFSWCAN_850_rhum_060.txt.gz
RH
99 99 100 99 100 100 92 73 45 37 37 40 37 41 40 41 44 46 46 45 46 85 91 75 70 77 73 67 57 62 78 81 96 84 75 79 68 64 64 61 65 64 65 67 66 71 72 54 57 59 65 55 56 54
98 100 100 100 100 99 81 53 43 37 40 38 40 48 33 42 45 45 46 46 47 71 89 74 75 72 70 75 72 83 90 96 93 100 81 74 70 74 67 62 58 74 62 61 62 57 59 58 61 73 57 53 50 51
98 98 100 100 100 96 74 54 43 39 39 37 47 47 30 44 46 43 43 46 58 84 79 82 86 86 81 75 72 62 83 97 88 87 84 83 80 81 70 71 72 65 72 72 65 64 59 48 73 55 62 67 68 60
99 99 100 100 100 84 73 51 44 40 41 41 55 36 40 46 41 44 50 50 55 59 69 79 78 77 80 80 81 71 73 78 69 68 74 71 75 76 70 75 73 68 62 61 55 51 52 64 55 64 76 78 70 70
99 100 98 100 98 86 66 49 48 48 42 53 56 46 45 47 43 50 46 49 51 52 70 81 83 87 88 87 77 81 77 70 76 75 78 76 79 74 70 64 64 62 63 67 60 60 70 69 79 89 89 85 85 96
100 100 100 100 90 80 72 52 51 50 48 54 49 50 50 50 49 48 49 50 51 52 62 81 83 94 91 83 81 80 89 82 79 75 76 80 78 81 64 52 51 62 66 81 81 86 95 98 99 98 93 98 98 100
100 100 100 100 88 83 66 54 57 50 48 46 54 50 54 53 55 49 49 48 51 52 52 86 84 90 96 90 84 83 82 82 85 88 78 74 72 82 68 56 45 65 80 98 100 99 99 100 100 99 99 99 98 99
100 100 99 98 88 72 63 68 52 50 47 52 52 53 56 59 59 56 50 48 50 36 28 82 76 88 85 92 89 90 92 87 90 90 89 73 75 71 62 48 57 75 91 97 98 99 98 99 100 100 100 100 98 96
100 99 100 98 68 71 74 59 50 49 49 48 57 60 64 57 56 57 52 47 38 33 43 65 68 70 74 88 99 96 88 74 86 75 74 82 65 80 54 51 58 72 89 94 100 100 99 99 98 99 100 96 100 99
100 99 100 89 92 86 70 55 50 48 48 63 64 58 58 63 54 53 49 50 42 30 34 90 89 73 78 90 91 89 94 82 88 74 86 79 74 64 52 54 61 72 70 84 100 100 100 100 100 98 100 100 100 100
100 99 99 98 89 73 80 57 50 48 71 64 53 70 74 67 57 54 49 55 52 60 70 87 83 76 89 84 81 90 86 89 89 84 82 83 79 67 55 56 49 52 60 66 71 95 100 99 100 100 98 96 97 99
100 100 98 94 78 81 79 52 46 63 59 46 50 66 66 61 46 55 79 70 56 59 95 80 91 84 96 98 80 94 88 87 92 93 90 91 70 67 54 51 45 47 51 53 62 76 68 96 98 100 100 100 95 82
99 100 96 82 84 80 59 44 53 53 41 44 35 47 45 45 46 41 44 65 76 90 92 87 82 90 95 92 90 85 86 86 93 92 88 75 78 58 52 44 40 47 51 52 51 51 55 74 97 96 98 100 97 53
100 99 90 88 83 72 50 48 51 51 33 37 35 52 60 54 50 55 57 72 65 70 64 64 94 92 96 85 77 83 75 89 89 94 92 76 70 52 44 41 39 37 46 54 58 57 60 75 94 97 97 97 97 97
100 94 91 90 85 76 46 50 48 59 33 24 25 52 67 87 87 72 71 68 67 61 59 85 93 86 95 81 70 75 81 88 71 82 73 71 62 55 52 48 48 47 50 58 62 58 54 87 96 95 97 98 97 92
100 100 97 94 92 56 50 46 60 41 35 35 55 88 91 78 98 90 67 66 55 61 64 62 88 87 90 83 80 84 90 89 78 83 67 44 36 35 43 49 52 55 53 62 59 60 59 75 94 95 98 97 96 97
100 100 99 95 80 55 47 53 46 40 41 48 76 52 52 42 50 50 49 48 47 52 72 76 62 53 81 90 86 74 83 77 61 36 35 34 38 43 44 46 51 55 53 50 57 58 63 64 70 84 99 98 96 96
99 100 96 89 68 52 56 50 42 42 73 64 66 53 41 34 39 46 47 46 45 45 48 63 63 85 76 74 72 73 66 49 38 41 41 34 34 38 42 47 49 53 48 38 36 36 44 65 66 68 85 100 99 96
98 98 89 77 46 41 34 37 44 85 94 78 68 58 52 48 49 48 48 54 46 46 43 66 80 76 64 68 57 39 39 43 47 43 36 37 40 41 43 50 52 52 39 36 35 33 34 37 60 74 83 95 98 97
89 90 94 49 38 30 35 44 54 49 84 75 68 64 55 56 68 70 73 64 62 55 71 85 68 45 36 29 33 37 38 39 43 43 36 34 41 48 50 50 54 44 35 37 38 39 38 34 36 44 71 89 97 97
99 97 54 43 30 32 51 63 61 74 76 73 69 63 68 71 80 83 87 81 80 74 80 43 31 28 32 36 39 40 38 39 36 40 43 40 38 42 44 48 50 39 44 48 58 64 51 40 36 36 40 68 94 97
82 48 34 36 34 45 57 62 63 68 71 84 66 65 74 74 79 80 90 94 86 55 47 36 36 38 36 35 37 40 38 40 43 45 47 48 45 42 41 50 51 41 50 63 64 78 78 53 46 38 39 52 74 93
36 30 29 37 32 48 84 79 68 68 79 79 71 78 91 86 84 80 94 87 63 43 40 38 37 38 38 37 34 37 37 40 41 44 48 49 47 46 40 46 45 45 55 68 71 63 69 61 52 47 41 46 60 77
22 28 37 39 46 96 75 84 81 81 78 84 81 88 92 91 87 90 84 62 41 30 25 26 27 28 31 33 35 37 38 40 44 47 48 54 56 49 49 47 54 48 56 58 53 50 51 49 50 50 46 45 51 52
29 60 44 92 73 76 87 91 93 82 94 98 91 97 96 94 88 95 89 54 31 24 24 26 30 34 37 40 43 45 49 53 56 56 51 60 62 59 54 56 51 52 54 52 52 50 52 49 51 50 48 48 54 54
86 86 70 81 85 74 84 84 89 91 92 99 99 98 99 95 91 79 71 32 27 26 29 35 41 46 51 54 58 52 46 50 60 64 49 53 55 62 63 64 57 47 54 61 68 68 59 53 51 48 51 53 57 58
82 98 89 75 70 70 84 84 84 84 92 88 96 99 90 80 81 62 34 29 28 33 38 45 50 54 56 49 48 47 48 54 63 65 66 68 66 76 90 93 84 78 83 85 88 75 60 52 50 54 56 55 61 61
93 90 89 86 76 70 91 93 89 82 86 79 77 90 77 72 64 28 27 32 39 42 42 34 39 43 48 48 50 55 61 66 77 86 86 76 65 70 81 92 96 95 91 83 82 74 63 64 65 63 64 66 63 62
92 77 64 100 94 77 70 77 73 59 56 59 71 80 60 40 32 32 37 39 39 34 32 37 40 45 52 57 63 68 72 73 68 65 65 64 64 73 85 84 87 98 99 93 95 90 79 78 79 78 74 71 68 64
79 77 81 98 90 96 86 70 66 60 56 53 49 47 42 37 38 38 37 28 27 31 35 40 51 62 67 71 77 79 70 68 73 85 89 85 87 91 96 95 96 97 97 98 98 96 92 88 87 83 77 74 68 68
80 68 73 83 92 90 84 75 66 62 61 61 58 58 54 54 41 23 23 24 28 32 39 52 56 69 74 80 87 76 69 74 83 88 90 92 95 96 97 97 96 96 97 98 98 97 94 90 87 86 82 76 72 74
85 80 77 98 98 90 81 73 69 68 69 65 64 64 62 52 42 30 22 27 33 42 57 68 70 68 74 85 74 69 72 74 78 81 82 89 92 100 100 95 96 96 97 100 98 94 89 90 90 83 77 78 80 84
98 90 90 90 90 94 83 71 76 73 71 69 68 70 66 57 41 30 29 31 42 60 70 72 71 69 76 67 66 73 78 81 85 88 89 97 99 100 96 96 97 97 97 96 95 90 85 85 85 87 90 92 91 90

GFSWCAN_850_rhum_063.txt.gz
RH
96 92 78 98 100 100 100 100 98 71 44 43 44 37 38 35 38 38 44 44 61 67 89 80 76 61 57 52 48 59 68 71 82 72 65 57 54 48 51 47 51 54 57 56 57 70 66 53 53 56 56 49 50 48
93 90 58 100 98 97 100 100 96 60 47 46 46 41 36 39 44 44 44 46 56 66 92 82 71 67 79 73 61 76 75 75 80 94 68 61 62 57 53 62 50 62 54 54 51 55 53 48 51 59 53 55 58 60
92 92 94 99 100 100 100 100 77 53 49 49 45 43 36 41 42 40 39 47 44 78 78 76 88 81 72 67 70 66 82 91 79 94 74 74 73 67 58 56 58 56 60 61 62 55 55 44 52 55 55 64 71 68
88 93 94 100 100 100 98 97 66 52 49 45 47 36 39 40 41 36 38 45 58 64 56 78 79 81 77 80 69 73 80 75 73 87 69 64 68 65 56 61 59 56 58 53 50 39 41 43 50 56 71 80 78 76
90 96 86 99 100 100 100 85 66 57 51 47 48 36 42 40 40 43 45 48 51 73 62 76 87 90 88 86 77 80 83 74 65 67 69 69 68 66 56 55 52 51 48 50 42 52 60 58 64 82 86 87 82 94
88 65 98 100 98 100 98 98 76 60 57 51 46 42 41 42 48 45 46 50 53 38 78 78 87 99 92 97 92 92 89 82 79 62 64 68 75 74 60 47 40 53 56 64 65 76 86 88 91 91 96 100 100 99
91 63 99 100 98 100 98 96 68 63 61 62 51 46 42 46 47 47 59 48 52 50 68 89 82 93 90 92 92 88 89 88 78 74 65 60 63 73 59 51 38 46 55 69 80 88 87 89 92 99 99 98 98 100
94 77 100 99 100 99 100 97 81 67 82 66 51 50 45 53 52 52 51 49 51 33 29 90 86 84 91 79 79 92 78 82 86 76 75 61 65 61 63 41 47 52 59 63 78 84 92 98 100 100 100 99 99 99
76 90 99 99 100 98 99 93 79 85 80 59 52 55 54 51 52 55 49 49 33 23 70 73 79 75 83 83 94 88 81 65 82 67 63 70 56 73 49 44 43 51 58 61 68 73 78 88 95 99 100 99 100 100
62 99 100 100 99 100 99 92 97 83 69 54 56 47 50 53 50 43 34 45 32 34 39 74 82 71 80 78 83 83 81 71 84 66 76 70 67 53 55 55 57 62 67 72 80 86 84 82 87 91 99 99 100 100
93 100 99 100 98 99 97 96 92 68 57 55 50 76 66 52 46 40 55 68 54 68 73 78 76 69 91 78 75 82 81 81 88 80 77 75 71 54 58 58 62 63 64 67 70 76 84 87 86 89 95 100 100 94
99 100 100 100 100 99 95 98 75 54 53 41 41 57 60 46 39 65 74 68 62 62 79 65 72 76 94 81 72 87 80 82 86 82 86 90 66 78 54 47 42 39 43 48 65 69 63 69 76 85 98 98 99 93
100 100 100 100 99 98 95 77 58 46 40 31 23 37 46 50 59 58 58 64 73 78 93 80 80 80 97 89 79 77 82 80 84 80 81 71 74 60 58 42 40 41 45 47 45 50 57 59 56 60 98 100 99 100
100 100 99 100 96 95 92 71 55 41 25 22 24 54 69 62 64 64 64 81 83 89 86 76 80 80 87 78 73 77 67 75 77 77 79 70 74 53 64 55 50 36 34 43 49 57 60 59 57 64 81 89 91 100
100 99 100 100 98 92 84 62 44 29 22 22 28 54 66 85 90 94 88 80 84 83 65 84 83 76 86 84 67 74 77 82 67 69 76 73 40 36 34 35 35 37 46 54 54 54 55 55 59 61 71 90 91 97
100 100 100 100 98 91 69 52 34 22 28 34 55 82 81 78 89 89 89 94 69 73 63 72 77 77 83 75 78 82 79 77 72 83 70 44 30 32 45 46 42 47 52 56 56 45 38 38 45 62 65 67 81 98
100 100 100 98 93 75 59 41 30 33 46 58 84 59 65 55 78 66 61 65 50 65 74 71 59 65 76 82 78 67 80 71 74 58 46 34 38 53 51 42 41 48 51 52 51 36 33 33 34 37 58 71 90 100
99 100 99 91 91 67 50 36 36 43 84 68 79 61 61 55 57 45 45 46 45 45 60 69 68 75 67 65 63 66 76 58 47 40 38 33 36 35 39 46 50 52 53 52 45 34 35 40 40 39 39 59 87 97
100 99 94 94 68 46 31 37 41 87 96 79 71 68 63 56 57 49 45 44 38 35 34 63 65 69 59 58 64 56 38 40 46 43 37 31 33 34 34 35 37 47 52 52 37 44 55 51 45 41 41 44 57 89
100 97 95 72 45 21 38 59 58 70 94 75 71 65 64 70 74 71 58 51 42 41 56 74 57 46 41 37 31 32 36 40 41 50 44 42 42 43 42 41 39 39 51 49 40 60 68 62 54 60 47 43 52 72
99 99 69 49 32 33 59 68 75 80 74 76 68 65 79 86 87 78 76 67 59 63 74 44 37 30 32 34 36 38 39 39 40 38 39 44 44 44 46 50 53 51 45 52 44 48 67 73 63 89 64 50 45 55
97 67 46 24 33 52 68 72 66 71 72 75 61 64 81 86 95 81 76 86 80 57 47 40 37 37 38 38 39 36 34 37 39 38 38 41 44 46 51 54 57 53 47 47 54 46 54 66 68 62 54 52 50 46
67 31 21 29 40 56 85 74 74 68 84 82 70 81 88 91 79 70 91 80 61 45 41 36 33 30 29 29 29 31 34 36 38 40 43 47 49 51 52 52 60 62 56 48 53 53 58 64 55 52 53 54 54 49
23 34 41 46 54 95 80 88 77 76 73 74 74 82 87 94 77 87 76 70 44 37 26 25 26 28 30 33 35 37 42 46 48 50 51 51 50 46 56 60 59 58 61 62 62 61 56 55 56 56 53 57 57 52
32 61 49 87 70 74 88 88 85 73 80 83 78 86 90 83 84 84 74 58 39 25 26 29 35 39 43 40 38 41 43 47 50 52 43 49 54 56 58 62 70 69 75 81 73 76 74 73 64 60 61 60 58 52
84 86 71 77 80 77 80 78 76 82 81 85 89 96 90 86 81 75 70 35 27 26 31 38 42 40 34 33 39 41 48 53 56 60 58 67 75 90 91 91 92 89 100 100 97 93 87 79 82 75 66 60 59 60
87 94 86 74 70 70 75 75 72 74 79 81 88 92 84 78 73 60 32 28 28 32 35 38 37 31 36 40 45 51 56 62 66 68 70 70 77 84 90 93 97 97 99 100 99 97 90 79 80 76 68 62 65 64
90 81 87 85 76 62 82 79 78 73 78 73 73 80 75 66 62 30 30 31 33 39 43 33 33 39 44 50 54 61 65 70 74 74 66 64 65 70 77 85 90 90 89 91 93 100 100 90 84 82 76 74 74 76
89 76 65 91 80 71 72 73 72 59 56 55 71 72 59 37 33 32 35 39 40 39 28 34 39 47 51 53 57 57 69 78 75 70 68 67 67 71 86 93 94 90 92 92 99 98 98 97 94 94 91 88 85 80
77 71 74 79 81 86 89 74 71 61 55 51 46 43 40 38 38 38 37 30 24 27 31 38 47 52 59 62 56 59 71 64 64 72 81 83 86 88 96 98 93 94 99 100 98 96 98 100 98 96 94 87 83 79
72 66 72 83 97 94 87 74 64 59 55 53 52 51 49 46 38 24 24 23 24 28 36 44 47 60 65 60 62 65 60 63 72 78 86 94 96 100 99 98 99 99 99 99 98 97 96 95 95 93 90 87 84 77
75 78 79 91 97 91 81 74 70 68 65 62 61 58 55 46 30 23 22 22 24 31 41 52 61 64 64 62 67 66 66 72 79 81 88 92 94 94 97 100 98 96 96 97 99 99 99 97 92 90 85 81 81 82
83 83 86 86 88 89 76 71 72 70 67 70 68 60 53 44 34 22 19 23 30 36 48 60 68 70 66 68 66 66 73 82 88 93 97 98 100 98 99 100 95 94 96 96 96 97 96 94 91 90 89 89 90 90

GFSWCAN_850_rhum_066.txt.gz
RH
98 96 95 98 84 97 99 100 100 100 96 79 70 49 41 39 41 45 43 48 51 78 81 73 68 58 53 51 64 62 73 74 82 85 73 77 74 57 57 52 55 73 78 74 68 80 77 50 54 66 59 51 55 59
96 93 96 98 95 98 100 97 100 100 86 80 82 57 42 37 40 46 45 55 48 66 92 74 70 70 66 77 69 75 74 75 81 88 73 68 66 63 59 72 52 72 70 74 63 72 53 44 56 55 53 58 67 72
96 95 89 99 94 98 100 92 100 100 95 90 64 60 45 41 42 42 46 51 45 79 84 78 86 75 67 61 74 72 78 83 79 84 78 83 76 75 73 72 60 60 59 71 69 61 55 49 52 55 68 77 80 81
93 93 83 96 90 98 99 100 100 100 98 85 71 68 46 47 49 43 43 46 50 58 71 85 84 77 78 65 58 74 76 78 72 79 73 70 76 67 76 72 71 65 61 58 60 50 45 51 59 74 78 85 89 87
92 94 89 92 62 98 100 100 100 98 99 82 71 63 51 48 46 42 43 51 53 57 76 87 84 88 86 73 66 76 74 69 66 74 89 89 70 77 61 63 68 55 57 63 72 71 72 67 76 85 91 95 97 96
93 92 93 79 59 99 100 100 99 97 98 81 74 60 47 49 50 47 42 48 52 38 68 94 92 92 92 85 84 79 77 71 74 66 69 70 70 82 81 64 50 51 54 55 63 68 81 84 86 89 88 98 98 98
92 88 83 68 89 98 100 100 99 98 97 78 69 58 50 49 46 45 51 42 47 35 48 89 90 90 84 86 85 85 80 73 77 72 67 62 67 74 81 69 46 51 52 66 73 76 77 80 81 72 86 92 90 97
87 87 81 82 99 99 100 100 99 99 93 78 68 53 51 50 45 48 45 47 27 22 42 94 96 89 86 75 79 81 78 81 77 76 72 67 67 65 85 53 44 52 56 58 66 65 68 56 49 60 65 72 86 100
85 89 76 96 100 100 100 100 100 99 90 73 56 52 56 48 48 52 52 46 20 17 61 84 94 97 82 78 84 84 78 80 74 82 72 71 73 91 65 45 46 52 57 60 56 53 53 57 61 57 59 63 79 98
88 84 54 98 100 100 99 100 100 94 92 66 60 48 48 48 54 47 38 22 20 27 42 90 70 94 82 77 81 79 77 72 83 84 74 82 86 56 51 55 56 52 50 56 66 63 66 67 70 65 66 66 77 87
86 68 79 98 98 100 100 99 98 97 67 57 50 59 60 48 37 37 43 68 60 83 74 81 72 88 88 78 77 79 75 77 86 92 92 71 90 67 60 59 51 44 42 44 50 54 52 57 62 66 60 58 73 86
66 58 99 100 95 98 99 100 97 80 61 52 41 58 46 36 36 64 89 75 78 85 78 74 78 85 89 76 69 80 77 81 84 82 84 86 96 54 35 36 33 30 29 33 40 45 45 49 56 57 56 55 58 91
64 93 100 96 100 100 100 96 86 57 54 46 30 36 52 41 74 49 58 82 91 82 84 76 92 92 94 83 74 72 77 82 80 87 79 91 70 55 52 38 30 29 30 30 30 40 48 52 52 50 53 56 62 84
97 99 100 99 100 100 99 93 66 57 39 22 26 43 68 71 74 86 88 92 86 80 82 74 81 82 83 77 72 80 74 77 81 84 86 92 58 42 34 32 32 30 35 36 38 44 48 46 41 32 34 46 65 81
99 100 100 100 100 99 97 83 74 53 27 23 36 59 80 88 83 98 84 81 84 77 54 81 80 81 84 92 82 85 78 92 88 89 98 71 40 35 33 31 33 36 38 41 45 46 49 44 34 30 31 33 49 72
99 100 99 100 100 98 88 83 60 38 26 37 58 81 82 82 93 94 91 90 65 63 60 58 87 90 92 91 88 91 88 90 90 94 68 33 32 34 35 42 45 46 49 50 50 53 54 41 36 35 36 34 34 50
100 100 99 100 99 82 86 76 39 32 44 65 87 66 75 69 82 77 66 57 49 59 94 82 72 78 88 94 88 86 92 90 76 40 35 36 37 37 36 34 34 35 36 42 48 51 50 37 45 41 38 35 33 37
98 99 100 100 87 88 66 40 32 45 85 79 86 70 74 64 66 56 51 51 47 41 55 79 57 88 87 77 87 85 65 63 56 41 37 33 32 32 35 39 40 38 38 37 45 53 45 44 56 57 68 69 58 43
98 99 100 92 78 57 34 35 42 88 97 84 80 66 68 76 67 49 46 43 30 28 31 50 78 86 88 54 59 46 39 40 38 40 38 33 33 35 38 41 44 45 46 48 46 41 45 46 67 71 74 76 67 52
99 99 98 67 46 24 39 59 54 62 93 75 69 71 76 76 74 64 48 34 31 31 37 74 71 47 41 39 31 35 42 40 42 41 34 32 36 40 39 42 48 52 51 49 45 42 42 43 51 71 83 85 64 53
100 99 73 55 37 35 59 65 70 76 72 80 76 75 85 93 84 67 57 44 38 42 60 40 39 36 33 34 37 39 37 36 34 38 37 43 38 41 42 46 52 58 59 58 60 51 54 61 56 49 63 76 55 53
99 82 64 40 34 53 64 67 66 68 67 78 66 76 76 85 82 68 63 60 56 57 41 34 35 36 36 35 35 34 31 32 35 37 39 44 46 47 50 51 54 55 53 60 62 59 56 59 64 65 66 74 60 53
81 56 36 34 49 59 82 78 69 73 83 85 84 82 91 84 74 65 78 69 61 46 40 38 33 24 24 28 29 32 36 39 41 41 47 47 48 50 50 52 56 63 72 70 75 72 69 67 66 67 69 66 62 59
46 33 41 56 59 100 83 84 71 72 75 87 86 88 93 86 67 81 86 64 45 39 35 25 24 27 30 32 34 30 30 35 40 38 41 47 51 54 62 66 73 83 93 96 95 92 94 91 80 70 71 73 70 68
41 68 59 92 74 80 88 90 94 87 90 90 81 94 96 76 93 89 84 58 42 36 25 25 29 35 36 34 28 28 39 45 49 52 53 64 72 75 78 80 84 95 100 100 100 100 98 99 96 89 88 87 81 75
90 89 82 84 84 77 90 83 89 89 86 89 96 89 85 95 80 70 80 38 35 26 23 27 33 35 36 33 37 44 50 58 65 66 64 76 80 81 80 89 95 94 98 98 98 97 92 96 95 92 85 80 82 81
89 96 82 71 66 66 81 75 73 79 82 83 94 97 92 70 73 64 33 31 27 25 30 35 37 36 31 36 46 54 61 58 62 68 73 72 74 81 85 94 98 94 95 94 94 95 89 85 92 93 92 87 88 86
89 83 82 85 84 69 86 84 83 81 91 72 70 82 64 60 62 33 32 29 28 29 35 38 32 35 41 49 57 61 57 54 60 61 57 62 71 80 84 88 93 96 95 94 94 97 96 99 99 98 99 100 97 98
91 90 73 93 80 74 81 86 83 66 62 56 82 86 53 35 31 29 29 29 32 38 36 30 33 40 47 52 57 60 58 62 62 64 67 70 73 74 83 88 91 88 90 91 92 99 99 97 96 98 100 100 97 100
82 78 75 79 86 98 96 81 76 65 57 51 44 39 38 35 32 34 35 34 27 21 24 30 39 46 52 61 63 62 63 63 67 76 80 83 88 87 91 94 93 87 89 96 96 94 96 95 96 98 99 99 100 99
77 66 72 87 99 92 87 74 65 58 51 49 43 40 41 37 34 30 19 17 17 22 29 37 43 51 64 70 70 66 66 66 72 78 84 88 92 93 96 99 93 91 97 95 95 95 95 96 97 98 100 100 97 91
77 81 82 93 97 85 77 69 67 61 58 53 53 45 42 32 21 17 17 18 23 27 33 38 48 62 73 76 70 67 64 70 73 78 80 83 84 87 100 98 97 98 95 95 95 96 96 96 96 95 94 93 92 91
77 81 80 82 86 85 70 64 67 67 66 64 56 48 40 33 23 18 18 20 27 34 39 49 60 73 78 73 66 61 65 71 77 81 84 87 88 94 100 100 97 92 95 95 96 96 96 96 96 96 95 94 93 93

GFSWCAN_850_rhum_069.txt.gz
RH
98 97 92 93 90 93 96 96 100 99 100 100 93 94 65 54 52 56 43 54 46 76 87 69 60 57 57 62 84 65 73 77 87 86 81 86 78 66 67 63 73 77 85 83 81 90 90 52 60 65 64 62 66 69
97 93 92 92 88 95 83 100 100 100 100 100 95 82 59 54 52 55 52 58 45 49 92 80 74 70 64 62 67 75 77 84 86 90 85 81 75 76 74 80 59 76 70 75 72 75 53 53 64 66 64 74 78 77
95 87 94 90 92 90 76 100 99 100 100 98 90 80 77 57 54 53 57 52 42 83 83 68 75 69 65 64 69 71 76 78 79 80 84 88 80 85 82 84 71 67 64 79 68 63 57 74 76 72 71 75 82 86
95 91 92 90 92 87 91 100 100 100 100 100 100 84 58 56 54 54 55 49 46 58 83 94 86 74 68 61 63 63 66 70 77 76 77 85 84 73 84 77 78 72 65 66 67 62 68 72 71 71 75 73 73 82
93 90 94 91 91 80 90 99 100 98 100 100 99 92 80 54 49 56 51 46 46 52 91 94 86 91 86 66 68 70 69 68 68 73 92 91 80 79 74 71 80 65 71 74 73 69 68 69 79 76 70 66 80 90
92 92 87 91 83 75 92 98 99 98 100 99 99 96 81 57 58 55 52 54 57 42 64 98 93 92 86 77 70 71 68 67 68 70 78 73 71 82 83 79 54 56 55 55 71 67 73 77 75 80 60 66 69 72
91 89 88 91 84 72 100 100 98 100 99 100 95 91 82 63 59 55 48 53 44 33 43 97 99 85 83 79 78 72 63 70 67 71 72 70 70 76 88 77 53 53 64 68 69 66 76 78 64 51 50 50 52 53
91 89 87 88 78 73 100 100 98 100 99 98 93 86 73 59 51 50 48 43 38 33 44 95 98 87 84 77 82 80 75 75 77 78 70 73 69 71 84 65 57 59 57 63 57 48 49 50 48 48 53 51 52 54
86 86 87 89 79 76 100 100 100 100 99 94 79 81 60 54 52 50 33 19 22 22 75 83 95 96 79 75 83 78 77 87 75 87 80 75 82 88 66 58 59 54 53 51 40 38 39 39 39 41 44 50 63 59
86 86 86 70 98 96 100 98 100 100 93 87 72 63 54 50 48 46 37 22 21 28 39 92 79 97 77 76 78 76 76 92 90 87 73 83 88 68 61 53 43 42 39 36 30 28 30 28 36 37 40 47 53 55
84 84 74 88 100 99 100 99 100 98 85 73 58 60 54 52 40 32 37 45 59 86 73 80 80 94 89 88 86 76 79 78 87 91 92 79 87 68 56 38 32 30 29 30 34 40 43 44 46 52 53 51 49 50
81 77 76 99 100 99 99 100 99 75 60 52 50 56 51 38 34 55 87 70 80 84 83 80 84 88 84 75 77 79 80 81 78 84 81 85 96 56 38 31 27 26 27 28 31 36 37 45 49 54 55 42 36 38
74 79 80 98 100 100 100 98 79 55 54 50 43 38 49 45 50 40 45 78 91 92 86 87 97 86 83 74 71 70 79 84 80 77 79 76 81 52 36 28 27 31 34 34 34 38 41 45 50 49 37 30 31 32
68 74 75 94 100 99 99 97 67 68 54 29 30 47 60 59 71 78 76 84 87 76 73 74 88 84 82 76 70 94 76 76 88 89 87 92 59 39 29 30 32 35 39 37 39 41 42 45 49 46 32 31 36 34
70 65 95 99 99 98 100 93 81 64 34 33 42 43 79 80 98 97 88 83 84 64 50 75 84 82 90 94 89 87 83 99 90 89 87 71 46 29 30 33 36 34 34 35 38 43 47 48 50 43 32 36 35 36
80 95 100 100 100 99 100 94 88 51 30 43 57 81 88 90 97 92 88 87 65 52 48 48 93 92 96 94 93 94 90 95 84 96 73 51 31 32 32 32 30 31 32 33 32 33 41 51 54 41 40 49 63 62
99 100 100 100 100 100 97 88 48 40 50 61 82 72 78 73 90 80 75 62 57 44 87 78 63 69 91 95 92 92 90 86 76 60 32 33 34 33 33 31 37 41 42 43 45 44 41 38 48 43 49 63 76 73
99 100 100 100 99 100 82 57 39 47 90 82 82 82 84 76 70 60 53 56 44 37 53 68 66 82 81 68 87 84 63 65 68 57 38 36 36 36 35 34 40 42 45 47 49 50 45 40 41 46 48 62 82 72
100 99 100 99 97 71 48 43 43 89 96 86 84 79 78 75 59 50 44 43 36 32 32 41 70 81 82 63 59 51 44 42 41 39 36 31 30 31 32 36 41 46 50 51 54 51 49 48 48 50 55 57 80 82
100 99 99 90 58 31 43 60 53 60 84 74 74 76 90 81 66 47 42 34 29 28 32 65 60 50 39 36 34 34 37 39 38 34 27 27 31 35 39 47 53 52 54 52 49 50 54 56 53 54 61 68 68 71
100 100 86 56 39 38 60 62 67 70 71 77 77 84 84 75 60 46 41 33 31 40 51 44 40 35 34 34 37 38 37 32 33 37 40 42 38 41 44 46 48 51 54 52 56 60 66 71 70 69 68 74 76 80
99 96 69 50 34 51 63 65 57 63 69 76 77 72 82 83 70 54 46 41 50 51 46 36 34 35 36 33 31 32 32 28 28 31 35 39 40 41 44 48 52 56 65 70 78 85 90 92 93 90 86 80 80 81
97 74 60 35 48 56 79 79 71 71 76 86 79 85 93 77 70 57 57 60 58 47 40 38 35 28 25 32 37 33 25 20 23 36 42 47 52 56 64 67 74 81 89 94 97 100 99 98 100 100 99 95 86 83
76 55 39 55 58 100 82 86 72 74 83 92 88 90 94 74 60 67 74 60 45 42 43 37 23 26 30 34 34 29 28 34 40 45 52 56 59 62 76 80 84 86 95 98 98 100 100 100 99 97 93 96 95 92
42 68 57 97 77 83 88 94 95 84 91 95 84 86 90 71 90 84 77 51 44 43 35 23 26 31 33 35 33 33 41 46 52 54 52 60 67 72 70 70 70 77 88 100 92 88 87 85 83 86 90 96 96 90
86 91 82 81 86 74 85 84 84 90 92 88 94 90 84 91 69 58 77 42 40 30 21 24 30 36 37 33 32 36 43 49 57 56 56 59 64 71 80 87 99 90 89 96 98 94 92 92 93 91 89 95 99 98
90 94 77 72 62 66 79 84 83 79 74 75 91 94 81 62 65 57 37 34 31 22 25 31 35 36 30 34 40 46 56 60 59 60 59 59 65 78 82 91 96 94 97 98 98 99 99 98 97 98 99 99 99 100
88 78 72 78 74 65 87 90 78 75 91 72 67 76 57 57 61 36 32 27 25 27 32 37 31 27 31 37 46 56 59 57 61 61 60 63 70 78 89 94 99 99 96 94 98 99 100 100 98 97 98 99 97 97
95 77 65 94 87 90 94 83 83 69 62 51 74 84 57 38 36 31 28 28 29 33 36 26 24 31 37 48 60 65 64 65 61 62 66 73 77 81 87 92 94 91 88 88 92 99 100 100 99 99 97 98 99 100
85 82 87 91 89 93 94 82 77 67 60 48 43 43 42 38 35 27 28 31 34 25 20 24 29 33 41 52 64 68 66 61 64 73 79 86 92 91 94 92 92 91 90 92 93 93 96 97 97 99 100 100 99 97
90 76 82 90 98 93 87 72 61 55 52 51 43 37 40 38 37 37 34 20 16 24 28 30 34 42 57 71 75 70 62 62 69 76 82 86 91 93 95 100 98 95 94 96 95 93 92 93 93 94 94 94 92 90
77 82 82 91 92 85 75 68 67 59 55 48 46 41 35 29 24 19 14 16 22 27 33 36 43 53 68 78 74 64 60 65 70 73 77 78 81 90 100 100 99 96 95 95 94 93 93 93 92 91 91 92 92 92
75 77 71 79 88 86 69 65 65 64 61 59 52 42 31 21 17 17 15 18 24 34 39 45 53 60 75 77 66 59 63 67 70 74 77 80 87 98 90 86 89 92 92 93 90 91 93 94 94 94 93 92 93 94

GFSWCAN_850_rhum_072.txt.gz
RH
95 94 90 87 87 89 92 82 98 99 99 100 100 98 98 93 98 83 62 51 46 79 91 72 65 61 72 73 87 73 73 76 88 84 82 84 79 70 73 68 75 79 87 87 86 93 93 54 60 65 65 70 69 67
91 90 93 93 90 87 92 87 100 99 100 100 100 100 96 88 85 79 57 55 48 56 92 82 76 70 67 68 70 77 76 86 83 90 89 85 79 80 77 84 63 77 73 79 76 78 62 65 64 63 60 63 67 66
92 90 94 92 88 85 89 85 99 100 100 100 100 99 85 90 79 79 58 51 43 70 74 71 72 70 71 72 74 71 77 77 80 76 82 90 78 87 85 85 70 71 69 80 74 65 82 77 74 68 65 65 68 74
92 91 98 92 90 89 90 88 99 100 100 100 100 98 92 82 77 66 60 47 43 54 83 93 79 69 64 66 64 64 62 68 75 73 76 88 83 79 86 79 81 74 68 75 73 82 83 83 78 74 75 69 73 76
93 88 92 92 87 91 84 88 99 100 98 100 100 95 91 79 64 73 57 48 44 46 90 95 84 86 72 68 63 67 65 71 70 72 90 92 85 80 80 75 81 69 74 77 79 67 69 75 78 79 67 49 57 59
91 85 88 91 90 92 69 89 98 100 98 99 99 84 68 67 64 64 55 53 50 44 65 98 86 87 79 74 71 68 68 66 67 68 83 78 74 81 85 80 61 62 60 59 71 66 69 76 76 65 46 47 48 49
91 88 90 90 88 84 89 99 95 99 100 99 100 87 62 65 65 60 53 53 55 42 54 99 97 80 81 70 68 64 64 64 61 74 75 73 70 74 89 78 61 64 67 65 61 60 70 67 50 46 45 44 50 53
90 87 89 89 89 80 95 100 99 99 99 100 96 73 78 76 69 57 61 56 46 43 46 96 98 84 83 79 79 75 68 68 75 77 74 74 71 74 80 67 65 66 61 56 45 37 38 41 42 38 39 44 45 48
90 87 82 84 94 76 89 100 100 99 99 98 86 77 63 56 53 61 58 47 29 33 70 82 95 97 81 84 82 76 77 88 78 88 84 76 85 88 65 63 60 61 54 41 41 40 38 37 36 36 40 45 55 52
93 82 79 84 92 72 90 100 99 99 100 89 65 56 51 51 44 30 28 35 32 35 57 97 89 96 80 79 82 80 78 96 95 90 75 81 90 70 64 60 49 39 39 35 26 24 26 25 36 43 48 50 53 44
99 81 79 89 92 61 88 100 98 100 90 71 57 60 57 52 48 42 42 44 60 82 78 83 87 98 84 90 87 74 82 78 84 88 88 94 92 71 55 42 34 30 28 27 27 33 37 44 46 48 44 48 45 31
87 82 82 82 77 80 96 100 99 95 69 54 53 54 56 47 35 53 78 70 81 81 88 88 89 90 85 74 82 81 80 77 85 86 79 85 91 63 42 33 28 26 27 28 31 34 40 42 45 47 52 51 37 29
82 83 77 80 99 100 100 98 95 66 52 55 48 48 44 44 42 41 40 73 99 98 92 90 97 79 77 70 70 80 85 89 82 82 85 88 74 45 39 29 28 32 34 33 33 39 43 45 45 48 50 49 38 31
85 86 76 97 100 99 100 99 80 64 56 37 32 50 62 65 69 70 72 82 77 79 79 74 95 84 79 83 82 86 83 82 96 95 90 91 77 53 41 31 33 34 33 33 34 30 28 28 32 40 48 50 41 38
75 75 100 100 100 100 100 95 79 70 36 33 31 47 82 73 99 100 94 84 83 71 52 78 86 79 96 95 86 89 89 100 91 88 89 68 65 50 36 34 33 31 28 28 32 35 36 37 39 38 42 50 41 49
79 87 100 100 100 100 100 93 83 46 26 40 54 83 93 92 98 89 86 86 69 48 49 48 95 89 99 94 92 92 82 83 79 93 73 67 60 42 32 32 30 29 31 36 39 44 46 47 47 42 38 36 45 59
87 96 95 99 99 99 98 97 74 39 45 61 82 75 74 73 87 84 74 61 58 43 81 71 56 65 92 94 93 92 86 82 64 68 59 38 34 37 35 34 33 31 37 40 46 49 51 52 51 46 45 40 43 50
100 84 77 93 100 99 99 96 53 50 89 83 85 90 85 84 78 72 55 58 47 41 46 61 73 78 74 64 82 82 62 67 66 54 44 45 38 35 35 35 36 38 39 44 49 57 55 55 54 55 61 59 51 51
88 82 96 100 99 96 96 86 52 88 95 90 94 85 82 77 68 60 52 43 35 32 30 33 65 79 79 61 51 56 55 53 47 41 35 30 30 34 37 40 42 45 51 55 58 61 60 57 59 66 69 72 69 62
82 100 100 100 93 59 49 61 52 66 85 80 79 82 87 75 70 54 42 35 30 24 30 62 57 43 37 33 32 34 34 36 32 27 25 28 31 30 31 36 39 42 44 47 50 56 61 64 70 80 86 90 92 85
100 100 100 98 68 40 55 62 66 73 75 79 81 79 78 66 53 44 38 30 22 36 52 46 40 36 34 33 36 36 31 28 31 32 31 21 26 38 42 46 50 53 61 68 73 77 83 86 90 93 94 94 96 96
99 99 98 89 46 46 60 60 56 67 70 73 73 70 66 68 55 47 40 31 45 48 45 40 36 34 36 35 31 29 27 24 23 26 37 46 52 54 51 57 64 69 80 84 93 99 99 100 100 100 100 99 97 94
99 99 82 47 48 63 80 80 73 68 77 81 73 84 94 87 61 51 60 50 51 43 41 43 39 34 30 31 31 29 27 26 32 40 50 55 54 54 57 61 68 73 77 82 90 97 100 98 92 88 88 88 88 90
98 97 48 50 68 100 93 91 84 81 83 92 88 94 96 77 55 57 68 54 48 50 46 41 32 30 34 33 32 30 28 28 36 46 52 54 53 56 60 59 64 74 80 87 95 90 85 86 86 86 87 87 84 94
93 83 66 96 85 87 93 98 96 86 93 94 84 93 92 74 84 74 68 47 49 48 46 34 29 33 33 34 33 31 33 39 44 46 55 56 58 58 57 59 65 75 86 89 83 86 85 88 92 94 94 93 97 98
94 94 81 79 90 73 84 80 84 89 90 93 93 90 86 88 65 55 76 43 41 38 35 23 26 32 34 33 29 32 40 46 54 56 56 58 59 62 70 79 83 80 89 93 94 96 94 94 97 97 96 97 98 98
92 93 78 70 64 68 82 81 78 82 86 85 90 91 78 56 55 56 40 41 38 30 25 27 30 33 29 25 33 42 50 57 57 58 57 57 63 71 79 90 92 91 93 97 99 98 95 96 98 97 95 94 98 98
77 76 80 78 76 63 86 92 90 89 91 66 60 65 50 53 61 37 34 35 27 22 25 30 33 25 26 34 41 52 58 58 61 55 57 63 74 78 87 95 100 97 97 94 95 97 98 100 98 96 95 94 94 97
90 74 65 91 84 91 98 93 93 82 59 50 72 77 64 44 38 32 29 25 23 27 32 29 22 29 36 41 50 59 61 62 53 53 57 65 70 80 84 85 85 87 87 86 92 98 98 100 98 96 95 95 96 98
83 85 84 89 90 94 98 92 85 67 58 47 44 42 46 44 39 27 26 26 30 32 21 23 30 33 39 48 58 65 65 56 55 61 68 75 82 84 87 87 87 90 89 89 90 90 95 96 97 98 97 98 98 97
87 72 84 92 99 98 95 75 56 50 50 48 40 37 46 42 40 36 34 32 31 20 26 31 34 39 48 52 61 68 58 55 60 66 71 76 80 83 87 90 92 90 90 90 92 92 93 94 94 94 94 94 92 91
83 87 86 93 96 89 68 56 57 53 49 40 45 41 40 38 41 36 36 25 22 26 33 38 42 47 50 60 67 59 55 59 64 68 73 73 74 78 79 83 88 91 89 89 92 93 92 93 94 93 93 92 92 92
79 79 77 82 85 86 67 55 57 54 53 52 45 35 25 18 18 22 15 19 26 30 37 40 44 49 55 67 61 55 58 62 66 68 69 71 73 78 78 77 82 85 87 88 90 90 90 91 92 91 91 92 92 93

GFSWCAN_850_rhum_075.txt.gz
RH
98 100 94 94 90 92 90 88 93 99 100 100 99 100 99 100 97 74 69 55 50 78 92 80 70 72 76 72 87 76 75 74 86 84 80 85 79 75 76 70 76 81 87 87 83 86 92 60 59 61 64 70 67 67
91 97 91 90 89 91 88 86 94 100 98 98 98 100 100 100 98 92 67 53 54 58 90 87 83 78 74 69 71 80 75 84 77 90 89 89 84 82 79 82 69 77 74 79 78 78 70 73 69 66 64 66 70 70
73 86 86 88 92 92 86 79 99 99 98 99 99 98 93 93 98 91 62 51 50 68 74 71 75 76 77 73 74 70 76 76 77 74 81 88 76 86 85 83 71 72 73 80 74 71 80 77 74 68 67 67 70 68
76 82 86 92 88 86 88 75 100 100 98 98 98 98 86 92 97 80 65 51 48 55 79 90 75 70 71 71 67 65 65 68 72 68 75 87 82 83 88 79 81 74 72 78 77 83 83 79 75 72 68 59 49 56
80 81 88 87 83 82 87 69 98 100 99 98 99 100 87 79 82 82 68 52 46 44 88 89 79 77 72 69 66 67 70 72 68 71 90 91 88 82 84 80 82 75 76 81 84 69 71 72 73 72 72 43 43 46
80 83 89 89 79 78 79 64 93 100 100 100 99 98 83 72 75 74 61 56 49 46 53 95 82 83 74 73 68 67 68 67 65 73 87 82 78 80 85 82 64 66 64 64 66 69 68 71 76 74 53 44 47 48
78 82 90 86 76 78 74 85 98 99 100 100 84 86 73 67 72 64 59 60 53 45 52 98 94 80 74 70 68 66 64 63 61 74 77 74 72 74 85 75 61 68 69 64 62 60 70 71 52 56 49 46 44 48
78 86 89 88 78 78 76 98 100 100 100 100 94 64 64 72 73 66 59 62 55 38 45 96 96 82 80 74 72 67 62 63 70 75 75 75 71 74 79 66 64 71 64 56 44 35 38 42 43 44 39 36 36 37
83 87 92 89 79 80 74 99 100 100 100 96 88 77 75 68 59 67 72 65 48 33 58 84 95 96 81 82 80 74 75 84 80 88 86 77 85 87 60 65 67 64 59 49 35 36 39 35 36 35 30 33 42 43
83 85 86 91 79 82 83 98 100 100 100 82 70 65 55 53 57 53 43 35 32 38 66 94 91 96 82 85 87 80 81 95 94 92 79 83 89 73 65 64 62 58 43 38 35 29 35 33 34 34 37 45 51 51
85 87 87 96 78 84 83 99 100 100 95 68 64 63 58 53 38 47 49 45 59 77 80 88 87 97 86 92 94 78 94 91 92 91 87 95 96 77 59 52 42 36 32 28 28 31 35 38 40 43 40 41 46 51
88 91 87 94 79 85 85 99 100 97 68 62 58 59 55 51 41 50 75 72 77 69 92 92 90 89 85 75 83 80 92 90 87 87 90 94 83 68 54 40 32 29 28 30 32 33 36 40 44 47 46 50 51 53
88 90 90 92 78 88 84 98 98 84 66 62 54 52 47 49 43 39 40 69 98 99 96 94 98 80 78 70 78 88 87 92 81 81 90 89 70 66 55 36 33 32 32 33 32 34 38 32 30 33 37 37 39 53
88 92 94 87 76 82 83 98 100 95 66 57 43 54 66 69 71 67 73 83 80 81 88 70 99 84 78 85 85 87 85 84 95 98 91 89 60 62 42 40 37 33 35 32 28 28 31 37 39 40 41 42 40 40
92 89 90 83 75 72 82 98 100 96 72 44 35 49 78 64 92 97 87 91 87 75 59 81 88 76 96 97 85 85 92 100 89 84 87 60 57 66 56 46 39 35 32 30 28 34 38 42 44 44 48 49 45 46
92 96 97 71 72 98 100 100 100 98 43 46 56 81 93 88 100 97 92 87 75 59 55 54 89 87 99 95 92 90 76 76 77 90 68 64 62 63 54 38 34 33 34 33 31 38 41 45 50 56 55 54 56 58
100 98 84 100 100 100 100 100 97 94 55 69 83 68 71 75 83 86 76 73 61 52 76 74 58 66 92 92 91 91 79 80 53 66 61 64 58 37 39 38 32 33 36 38 40 41 46 52 57 63 62 57 64 61
100 80 98 100 100 100 99 97 98 98 83 84 90 92 83 80 82 77 68 56 53 42 42 62 77 80 72 63 80 85 63 71 62 58 44 44 46 36 31 33 35 38 39 40 46 52 55 58 60 60 65 73 80 78
93 84 99 99 98 97 98 98 92 83 93 96 98 92 86 84 74 66 56 50 43 43 35 36 63 76 71 59 54 60 61 57 57 55 46 34 30 32 34 32 33 37 39 44 49 55 60 66 74 86 91 92 94 92
90 91 100 99 99 97 96 98 81 74 95 86 87 89 83 77 76 62 47 40 38 35 34 63 52 41 35 36 32 30 35 33 33 27 24 28 24 24 36 44 49 52 53 56 63 73 80 87 92 94 95 99 100 97
96 94 100 98 99 97 94 87 82 77 85 91 87 74 81 73 60 47 44 39 35 34 74 47 40 34 31 31 32 32 30 22 20 19 20 19 28 41 49 52 53 55 62 67 73 76 83 89 92 94 100 100 100 100
94 99 99 99 98 94 78 71 72 77 84 87 76 64 57 54 44 39 37 38 48 53 43 36 33 30 33 35 32 25 23 22 22 20 25 32 43 45 51 56 55 55 61 69 80 88 91 88 85 88 89 88 85 82
100 100 98 98 96 86 96 77 85 83 88 92 77 79 87 78 54 43 55 52 58 44 35 31 30 34 34 29 28 27 27 26 24 27 38 46 53 59 61 60 63 70 76 80 85 86 85 85 85 90 92 90 89 86
99 97 98 96 87 97 88 95 95 90 88 88 88 87 94 79 56 55 68 59 60 45 36 31 33 33 32 32 31 30 29 29 30 38 49 53 51 57 61 61 67 73 79 80 83 83 82 85 91 93 94 94 96 99
98 97 96 96 97 94 93 98 95 89 93 92 83 95 94 74 80 74 68 54 65 51 39 35 33 26 25 30 32 30 28 28 37 46 54 56 59 59 60 62 67 79 82 78 77 80 82 88 92 94 96 97 97 99
96 96 92 86 91 74 86 82 86 89 89 92 92 91 88 88 66 54 72 40 50 41 36 34 26 31 34 32 30 24 28 36 48 53 57 58 58 60 63 66 70 73 81 87 90 86 88 91 93 95 93 92 95 98
95 94 83 70 60 67 80 76 73 82 78 79 92 95 85 58 55 59 44 42 38 32 33 28 24 27 29 26 23 30 38 51 56 60 55 57 60 67 72 77 77 81 82 88 92 93 92 92 94 94 93 92 98 100
77 77 80 80 71 67 88 93 92 86 87 82 75 73 54 53 59 43 42 37 31 36 32 31 32 32 21 22 31 40 51 56 62 55 56 58 65 72 78 84 88 91 93 94 91 90 91 94 92 93 94 94 94 96
90 78 61 94 91 92 96 92 92 89 69 59 75 77 71 56 44 37 37 33 30 21 24 28 29 20 25 34 41 50 54 61 53 54 54 60 68 73 76 80 84 87 87 84 89 92 91 92 93 93 93 94 94 94
88 84 90 94 92 94 98 91 92 68 58 53 44 44 54 53 46 36 32 26 24 27 28 20 18 29 35 42 49 56 60 52 51 52 55 58 62 66 70 76 79 82 83 83 82 83 86 88 90 92 92 92 92 91
85 83 89 93 98 98 96 92 76 49 41 40 37 38 50 49 50 40 36 35 34 30 16 20 31 37 41 48 56 62 54 50 51 55 57 58 60 64 68 74 77 79 79 80 82 83 84 87 89 88 88 89 89 89
84 85 89 96 97 95 97 81 54 48 43 38 46 45 45 42 49 45 41 36 30 19 24 32 35 40 45 52 62 57 51 51 53 56 58 60 62 64 71 75 76 78 77 80 81 80 83 86 87 88 89 90 90 92
82 86 84 90 95 94 71 51 49 48 46 48 40 34 26 27 41 36 34 34 23 19 29 35 38 42 48 59 59 52 51 53 55 58 60 61 61 70 76 75 75 75 75 80 79 79 82 84 85 87 90 91 92 92

GFSWCAN_850_rhum_078.txt.gz
RH
8 33 90 99 96 87 90 81 96 100 98 97 100 100 97 87 68 67 53 50 55 87 95 82 75 78 76 72 84 78 74 70 83 81 79 84 80 79 78 70 76 79 85 86 80 79 90 69 60 58 63 70 67 68
12 33 94 100 89 91 90 90 100 99 99 93 97 100 98 93 82 64 50 59 66 67 88 87 86 83 78 73 75 81 74 81 77 89 88 90 84 84 80 80 73 78 74 79 80 74 70 73 73 68 67 67 69 67
18 48 78 99 95 93 90 85 100 100 96 97 100 99 100 97 92 73 56 60 65 72 78 74 77 80 79 75 76 69 74 76 76 71 81 86 76 83 83 83 73 71 76 79 74 72 74 76 73 70 68 68 70 71
20 53 72 86 95 90 85 90 98 100 99 95 99 96 96 93 91 81 58 53 54 57 75 84 73 74 74 71 68 66 66 68 70 66 74 86 79 85 86 78 81 75 76 80 81 73 80 76 74 72 74 64 51 52
24 54 73 81 96 90 80 78 97 99 98 100 100 96 81 80 78 67 58 53 48 46 83 80 73 73 72 69 68 69 72 70 67 70 89 91 89 83 86 83 88 77 79 84 82 66 72 66 73 75 74 57 43 44
28 57 74 84 83 84 79 72 68 96 99 97 100 100 86 68 62 64 56 53 49 48 53 90 80 77 72 71 70 70 70 66 64 73 89 84 82 82 86 87 65 63 66 65 63 66 69 71 76 78 76 50 49 48
33 64 69 82 88 75 80 73 78 90 92 97 99 99 82 73 66 60 60 61 51 47 48 94 88 78 73 69 67 65 63 62 61 73 78 75 77 76 86 79 58 65 68 66 69 70 68 71 62 62 56 47 40 35
39 67 80 81 84 76 73 96 94 89 96 100 92 84 73 74 67 63 57 62 53 41 50 96 95 81 73 69 69 63 60 61 67 74 74 74 72 75 83 67 62 70 68 57 49 43 39 46 50 44 39 35 32 35
45 69 83 83 84 77 68 95 100 98 100 100 91 72 68 68 64 59 66 62 53 37 58 85 94 95 80 80 75 72 69 77 79 87 86 77 82 84 60 59 64 68 60 56 50 42 42 43 35 33 31 34 38 38
52 75 84 84 82 81 72 94 100 99 100 100 79 63 58 57 55 63 62 57 38 42 64 90 90 97 84 87 88 79 82 92 90 88 83 88 88 66 61 60 59 63 62 49 38 30 30 28 28 29 35 40 44 43
59 79 86 87 84 86 75 89 100 100 99 81 69 67 63 60 55 43 51 52 55 74 77 88 88 97 82 90 93 80 94 95 95 89 89 94 95 81 63 61 63 60 47 36 30 28 29 30 32 38 35 35 31 32
63 85 95 93 86 91 74 82 100 99 87 70 68 65 58 51 50 52 78 73 82 65 93 94 88 84 84 76 83 86 92 92 89 90 94 97 84 68 59 52 45 37 32 29 31 32 34 33 36 36 30 34 40 42
64 92 95 92 89 88 77 79 100 100 92 71 67 63 58 55 50 51 43 70 92 94 96 98 97 79 76 73 84 89 89 92 83 88 94 90 64 66 59 49 40 35 32 32 34 35 33 30 29 34 39 44 47 48
77 94 91 91 90 85 80 79 100 100 96 78 61 66 71 74 74 69 67 77 67 74 91 78 100 83 77 86 86 90 83 80 98 100 88 89 54 60 62 54 39 37 37 38 35 32 30 30 36 40 45 49 51 53
89 93 89 92 94 83 82 84 100 100 98 93 57 65 83 58 77 73 68 82 80 72 73 73 88 75 97 96 86 84 94 100 88 76 85 53 50 61 62 47 48 47 40 36 34 34 33 36 43 47 51 54 56 62
97 94 96 94 90 84 91 94 100 99 97 61 58 71 81 84 100 100 94 87 80 73 54 55 95 90 98 93 93 84 74 71 70 90 56 60 58 64 66 58 45 39 36 33 34 37 41 45 49 53 56 59 64 65
100 99 90 88 87 90 100 100 100 99 99 86 77 73 71 74 76 87 82 72 75 56 78 77 53 55 92 91 83 90 74 76 47 67 67 62 65 61 43 39 35 32 34 33 32 33 40 45 50 54 57 59 69 76
100 98 89 85 89 97 100 100 97 100 97 94 82 78 79 78 86 82 72 68 68 54 43 59 75 86 73 58 75 85 60 64 68 62 54 46 42 42 32 30 32 29 31 40 48 50 53 60 66 76 88 93 94 90
100 98 93 82 88 100 98 98 99 97 92 88 84 88 84 84 83 76 70 66 49 39 40 49 62 72 68 62 61 60 66 58 61 61 53 48 34 30 28 24 37 47 49 48 52 58 65 75 85 88 89 92 98 96
100 99 96 100 100 98 98 98 97 81 95 88 93 90 88 86 86 87 75 61 46 36 36 58 50 39 35 33 31 30 38 39 39 41 32 29 26 23 30 43 48 48 50 52 56 63 68 69 70 74 77 100 100 100
100 99 100 99 99 98 98 97 98 88 84 87 94 87 86 88 81 64 56 48 38 30 80 39 36 35 30 26 30 31 31 29 19 16 16 18 25 33 40 45 51 55 56 60 67 70 76 80 80 81 84 89 91 90
99 99 99 99 98 97 97 90 75 83 84 91 83 78 66 58 49 44 44 39 33 38 38 37 37 33 31 31 31 25 17 18 19 20 20 25 33 39 46 51 52 54 59 68 74 80 80 82 85 88 93 91 91 93
99 99 98 97 97 97 97 88 83 86 92 94 94 91 92 76 51 45 50 39 45 44 36 38 34 32 29 28 21 19 21 23 23 22 25 33 44 50 54 54 53 58 66 74 81 84 85 84 85 92 92 90 94 92
99 97 98 97 96 96 96 96 96 94 94 94 93 87 90 83 62 61 70 50 50 43 38 37 35 36 29 24 24 26 26 26 23 26 34 43 49 54 52 54 61 70 80 81 84 82 82 83 89 92 90 89 88 90
94 98 95 96 96 96 96 97 97 94 95 94 89 90 91 81 83 78 67 48 58 44 40 38 36 26 18 24 28 29 28 26 27 38 45 46 50 50 56 63 69 74 80 76 74 75 77 83 89 89 92 94 94 95
95 97 92 92 95 85 92 92 89 88 87 92 88 88 84 90 73 54 65 34 38 36 34 34 33 25 23 24 27 28 26 27 41 44 48 48 48 54 60 64 70 76 80 81 78 75 79 85 87 88 91 94 97 95
94 96 96 92 77 70 80 72 68 80 84 84 92 94 93 72 57 69 31 27 26 24 25 26 25 16 19 25 28 25 29 42 45 48 49 49 54 58 61 66 71 75 78 80 80 84 85 85 87 89 90 93 99 98
96 93 88 79 74 69 81 82 80 73 89 84 71 80 73 57 56 40 42 34 30 25 30 32 26 29 29 26 22 30 41 44 48 50 49 53 57 60 63 68 76 80 78 83 83 84 86 88 87 90 92 94 95 95
84 77 67 96 94 91 94 85 89 86 60 60 73 75 70 52 49 45 38 34 31 29 33 28 33 33 25 21 32 40 42 49 52 47 50 56 56 59 64 72 78 77 78 81 86 86 84 86 88 88 89 89 91 91
85 80 88 93 89 92 95 87 87 78 62 51 44 55 61 60 54 46 41 40 38 33 21 21 23 23 18 30 36 42 50 51 47 50 52 54 56 62 66 69 70 71 73 74 76 78 80 84 87 89 90 90 90 89
80 80 89 92 99 99 100 94 82 68 54 52 60 68 77 74 60 51 50 42 30 23 25 26 20 26 31 34 41 48 49 45 48 52 53 53 57 59 60 62 62 63 64 65 70 71 75 80 81 84 86 87 88 89
90 89 92 96 99 97 91 84 77 57 47 46 52 59 55 48 54 52 47 39 35 30 20 15 23 28 32 40 48 48 44 46 50 54 54 55 57 57 58 61 63 65 66 68 70 70 73 77 81 85 86 86 88 89
85 88 88 91 96 98 82 78 72 66 55 59 50 38 40 38 53 47 44 41 33 20 18 28 35 34 37 45 52 46 46 49 52 54 56 58 57 58 60 63 66 68 70 72 74 75 75 77 82 86 88 89 90 90

GFSWCAN_850_rhum_081.txt.gz
RH
89 7 32 60 82 82 74 86 92 92 92 100 100 100 93 86 63 49 56 50 56 80 91 84 79 80 76 77 81 78 74 70 81 79 77 83 80 81 78 70 75 77 83 84 81 85 87 67 62 60 62 67 66 67
84 6 26 53 86 81 70 73 88 98 93 92 98 99 95 89 76 57 47 64 67 66 85 85 84 81 78 78 75 78 70 79 77 88 88 90 81 85 80 77 74 80 74 77 76 72 65 66 70 68 64 64 68 66
71 5 28 53 85 85 76 63 96 100 98 92 96 99 100 98 89 53 53 61 64 75 80 76 78 78 77 76 75 69 72 73 73 69 79 85 74 81 82 84 75 71 76 80 73 70 73 71 72 70 67 66 68 68
46 5 26 50 74 85 70 66 90 98 95 87 96 97 99 92 87 77 50 52 58 59 74 78 74 73 73 71 70 67 66 68 67 65 71 84 75 84 85 77 81 74 79 80 82 71 74 72 72 71 71 69 60 52
27 6 27 48 70 84 75 66 66 98 88 84 93 93 89 90 88 82 52 46 46 45 75 77 73 72 71 71 68 67 70 70 66 68 88 87 88 84 87 86 91 80 80 83 80 67 70 67 68 75 75 71 55 48
14 9 30 51 71 80 79 68 55 75 88 87 94 98 86 80 86 66 48 48 46 46 54 88 79 72 72 72 74 74 71 66 64 70 86 84 84 84 87 87 65 70 70 67 64 64 68 70 75 78 80 71 51 48
8 12 35 58 75 80 80 68 65 57 84 86 91 100 91 72 74 61 56 55 48 46 46 86 84 74 72 69 66 64 64 62 62 70 76 76 83 79 89 86 56 60 64 65 65 70 70 70 67 71 69 51 44 37
6 14 34 62 80 84 74 74 98 83 92 87 95 98 83 76 69 62 57 60 51 40 49 94 93 78 72 68 67 64 61 62 65 73 76 73 74 78 87 68 59 66 69 62 57 54 42 40 53 47 40 34 30 30
6 18 43 67 81 81 71 83 98 96 100 98 87 81 76 75 71 61 60 61 52 36 47 82 90 90 77 78 72 69 66 73 78 84 83 77 80 85 64 56 61 65 64 56 56 44 39 40 42 35 31 32 34 32
7 23 46 68 82 83 76 85 98 99 100 100 79 71 66 65 61 66 72 62 49 38 51 83 81 96 81 85 86 79 81 93 90 87 84 91 89 59 53 51 52 60 61 56 47 42 33 29 29 30 32 34 36 33
9 30 53 71 85 85 80 84 100 98 98 99 72 68 66 66 70 46 49 54 48 62 69 82 83 94 81 89 92 81 93 96 95 89 90 94 93 78 64 59 59 63 64 58 39 29 28 30 32 32 30 30 30 33
14 35 58 76 85 85 86 83 100 98 95 80 68 66 65 66 56 57 81 70 81 60 90 93 86 80 81 77 84 90 90 92 89 89 94 97 83 64 64 63 64 61 50 35 29 30 34 35 32 33 31 30 36 40
22 39 58 83 90 88 88 83 99 100 98 78 67 65 68 60 56 67 58 69 90 86 91 98 97 78 80 76 86 91 90 92 84 94 95 87 61 65 62 55 47 39 36 33 35 38 37 32 31 33 34 38 45 49
28 46 66 89 89 88 89 87 99 100 99 89 89 92 79 81 81 78 74 82 59 73 87 80 98 81 78 85 85 89 83 80 100 100 82 88 53 59 62 55 49 43 40 40 41 36 33 35 36 36 41 46 52 56
36 52 76 88 86 87 91 90 98 100 98 98 97 83 84 64 72 69 70 77 72 75 78 72 84 74 97 95 86 82 93 100 87 70 82 48 51 60 62 62 50 48 50 42 35 30 31 36 41 43 45 50 57 62
43 74 90 82 88 90 96 100 100 99 99 99 95 72 62 87 84 88 79 85 78 84 58 51 92 90 92 92 98 93 80 70 67 89 54 56 57 65 65 59 57 47 39 32 31 29 32 43 50 53 54 62 70 77
70 97 82 90 90 99 99 100 100 98 99 99 91 63 60 62 71 75 74 68 76 65 80 77 66 58 89 93 87 88 75 74 50 62 68 62 59 63 60 47 39 32 30 25 32 45 48 52 57 61 59 62 69 72
96 95 86 98 99 100 100 100 96 99 98 98 88 64 70 60 76 80 80 73 79 67 48 60 68 92 82 65 70 82 58 58 72 68 55 57 46 39 36 29 28 24 38 45 45 50 54 55 56 58 63 67 70 78
93 99 93 99 98 100 98 99 96 99 96 93 88 76 77 73 72 79 76 76 74 62 46 63 67 74 65 63 64 55 60 67 70 63 49 48 41 30 27 23 33 42 41 47 52 54 57 60 63 66 70 76 92 90
95 88 98 100 99 98 98 98 95 78 96 82 83 85 76 85 84 79 80 83 76 52 47 70 52 36 30 26 35 32 44 43 43 52 50 37 29 22 26 33 36 44 48 53 56 58 58 60 64 70 78 89 90 88
99 97 99 99 100 99 96 96 98 97 77 76 87 89 91 97 95 90 94 86 61 40 68 26 27 27 31 33 34 36 35 39 33 19 19 24 22 28 32 41 47 49 50 50 54 60 65 70 74 79 85 86 88 94
99 99 99 100 98 98 96 97 94 95 91 94 97 90 92 90 91 87 82 76 51 27 23 28 29 33 32 38 39 31 27 18 15 15 15 17 22 32 41 45 49 50 54 60 67 69 71 74 80 85 86 84 84 87
99 100 98 98 98 97 96 99 94 96 96 96 97 95 96 95 90 75 60 49 40 27 24 28 36 40 34 34 29 19 19 18 17 16 14 19 31 41 48 47 49 55 62 66 70 72 74 78 82 85 86 84 82 83
99 98 98 98 97 96 96 97 96 96 96 96 96 96 94 94 86 86 82 48 28 26 28 34 40 39 34 27 21 19 21 23 19 15 19 32 43 49 47 49 53 57 63 67 69 74 76 78 84 87 89 87 87 87
98 97 97 96 96 96 97 97 98 96 96 96 96 96 95 91 90 90 72 46 30 31 34 41 37 32 26 22 22 23 25 24 16 17 30 41 47 45 47 52 58 64 68 71 72 71 75 80 85 86 89 88 87 89
97 96 94 93 97 88 94 98 97 94 95 96 91 92 86 92 86 66 67 24 23 26 30 30 32 33 25 16 16 24 23 21 17 29 38 45 43 47 51 57 62 67 71 72 71 71 75 80 82 84 85 87 89 89
96 96 97 88 79 76 83 75 73 85 86 86 92 97 90 70 66 64 23 20 19 19 20 24 27 27 19 18 24 27 22 19 28 36 44 42 44 48 53 57 64 67 72 72 71 74 76 78 79 82 83 89 92 90
96 94 97 98 79 63 82 86 77 75 77 72 77 82 73 65 58 28 25 23 22 21 22 26 29 26 18 18 23 20 19 29 37 45 42 44 48 51 53 58 62 65 67 68 71 75 78 79 78 81 83 85 85 84
87 82 79 98 97 84 87 77 74 50 43 55 69 79 71 40 31 33 34 36 33 31 28 30 34 29 27 27 24 20 30 34 42 41 43 47 48 51 55 60 62 64 67 68 70 75 77 77 79 80 82 83 84 86
91 67 84 91 84 82 81 76 80 71 58 55 49 43 46 47 43 41 48 48 40 34 30 32 28 28 22 23 18 26 34 45 43 42 45 45 47 51 55 58 59 61 63 65 67 69 73 77 80 82 83 83 84 85
76 68 86 89 94 92 91 88 88 79 64 56 60 55 71 69 67 64 66 60 53 44 36 30 27 23 22 18 22 29 40 42 41 46 48 48 49 52 56 57 59 61 63 63 64 66 68 71 73 74 75 77 80 82
81 84 90 96 100 100 91 84 76 70 69 76 84 79 73 74 80 74 78 66 49 42 32 24 22 21 22 29 33 39 40 38 41 46 49 51 53 55 56 58 62 66 67 66 67 66 66 68 72 72 74 77 81 83
87 87 89 91 98 100 92 83 86 76 67 74 66 58 49 51 67 62 71 60 45 34 24 23 18 19 26 37 41 42 39 41 46 49 52 54 56 57 60 64 68 70 70 72 73 72 72 73 74 74 76 79 82 84

GFSWCAN_850_rhum_084.txt.gz
RH
98 81 9 16 47 72 83 95 100 87 88 99 100 89 86 77 65 52 51 50 55 70 88 78 78 80 79 77 59 74 66 63 65 60 58 61 58 62 61 59 60 60 59 57 60 63 54 58 59 53 50 62 62 64
97 79 12 12 42 70 78 70 97 96 79 77 96 99 96 89 79 56 50 63 62 61 80 80 77 74 72 75 79 74 67 72 69 65 64 61 57 63 60 50 62 61 53 52 53 46 53 64 64 63 61 62 68 69
96 70 12 10 34 66 72 60 97 100 98 80 77 92 99 94 96 63 54 56 58 72 82 78 76 73 71 74 76 74 69 69 69 64 64 64 61 55 54 54 58 59 63 57 58 56 56 64 67 66 66 69 68 70
97 75 12 9 32 60 77 85 64 96 99 90 80 83 94 99 95 88 55 56 62 63 70 75 75 72 72 71 71 70 70 70 67 65 68 61 58 70 58 60 58 56 66 60 58 57 65 67 70 68 69 70 70 63
96 76 12 9 31 51 73 83 70 65 90 91 93 82 86 94 94 87 70 48 45 47 68 77 75 73 72 70 68 68 72 72 67 69 72 63 73 70 69 69 65 64 55 55 46 58 58 60 64 69 74 74 67 57
95 79 12 9 30 55 71 78 68 57 73 91 89 91 81 80 88 82 57 50 47 49 54 78 75 72 74 76 76 75 75 70 66 72 72 82 80 76 72 61 49 65 65 63 55 60 62 63 67 73 79 76 68 51
94 78 12 10 30 56 71 72 62 62 54 85 90 99 82 58 81 66 59 59 52 48 51 82 80 72 72 71 69 68 68 64 63 70 72 72 82 86 72 61 48 58 66 68 66 65 70 69 70 71 76 69 45 36
92 77 11 13 32 62 70 61 90 87 82 96 95 97 86 63 63 63 60 59 55 46 50 86 82 76 72 70 70 64 62 62 66 77 74 66 75 76 73 55 56 59 66 68 67 68 54 43 53 54 44 35 30 30
92 74 9 16 40 66 73 75 98 96 98 98 88 83 73 66 66 60 58 63 58 49 42 78 81 80 74 75 70 68 65 62 74 71 68 72 63 75 51 54 62 61 65 59 56 49 42 41 42 38 32 29 30 31
91 65 8 18 41 71 76 88 96 93 94 95 75 66 61 65 63 55 62 65 57 48 48 74 72 83 80 87 81 77 81 69 81 71 87 76 65 53 50 46 45 53 62 56 57 54 44 36 30 29 32 34 33 34
86 47 8 23 48 74 78 79 100 90 89 94 72 65 63 60 67 57 50 61 52 58 61 78 85 83 78 77 68 80 80 83 85 79 80 74 72 59 59 52 50 54 63 58 54 39 28 29 33 36 34 33 35 35
83 28 11 30 56 76 83 80 100 99 90 82 68 64 66 66 58 62 74 61 70 55 80 84 86 81 79 75 77 87 81 87 84 84 88 81 66 61 64 62 59 63 66 62 39 31 32 36 38 36 33 32 32 34
77 15 16 38 60 80 85 84 97 99 97 76 66 66 66 65 69 69 67 63 71 76 87 97 90 80 80 76 85 79 86 85 85 90 80 66 63 63 64 64 65 63 49 36 36 37 39 40 35 34 36 38 43 43
59 10 22 42 69 84 89 92 90 100 99 89 77 89 80 82 74 75 68 70 56 70 80 83 94 81 82 77 74 82 72 75 96 93 71 66 53 62 62 59 50 43 41 41 42 43 39 31 28 29 36 43 48 53
31 10 28 44 69 86 90 98 89 100 98 92 96 96 90 69 64 60 53 62 67 74 83 74 78 78 82 84 73 80 90 97 81 67 64 51 51 61 62 55 50 47 47 49 45 36 29 27 35 40 46 52 59 66
13 21 36 50 74 86 94 100 100 99 99 99 100 91 72 73 80 82 70 67 62 78 71 61 78 83 79 81 93 91 80 70 65 79 51 52 58 64 64 62 54 53 52 39 29 25 33 44 44 48 51 54 56 61
13 26 27 62 79 89 100 100 100 97 99 100 98 94 59 58 54 51 64 61 66 80 78 74 72 65 82 86 83 76 79 69 59 55 54 52 57 62 62 59 54 38 27 24 30 37 43 49 52 51 52 56 60 64
16 21 58 78 92 100 100 100 98 98 99 99 95 76 75 66 59 67 72 70 74 74 60 66 65 82 80 72 67 75 61 54 64 64 63 64 60 58 48 35 27 22 24 29 35 44 50 49 51 55 59 66 66 67
12 42 89 95 96 99 99 99 99 99 98 99 97 81 70 63 58 55 64 84 74 70 57 64 76 80 65 60 60 49 50 69 78 70 62 54 43 35 27 23 21 27 32 39 46 49 51 56 58 62 68 67 72 78
38 80 94 99 94 98 99 99 98 90 100 92 92 88 78 71 68 68 79 89 86 92 72 78 58 36 27 23 27 35 44 57 45 53 51 46 38 29 23 26 29 37 40 46 48 51 56 57 60 68 70 76 77 74
88 100 99 100 100 100 96 95 96 94 79 80 80 79 83 92 90 93 97 98 96 90 79 43 31 24 21 21 32 40 46 41 31 25 29 36 28 26 31 31 38 43 45 47 53 58 57 57 64 70 74 75 72 76
98 100 100 100 98 99 97 96 87 93 89 91 100 92 96 99 98 96 94 100 92 69 56 45 34 29 24 26 34 50 38 41 37 18 18 17 17 25 31 38 45 43 45 51 56 56 58 63 71 76 78 76 75 77
100 100 99 99 98 97 97 98 95 96 97 98 100 99 99 98 93 95 97 92 83 67 56 50 44 31 26 39 46 47 40 29 14 13 13 16 22 32 38 44 42 45 49 54 57 59 62 68 77 80 81 81 79 80
98 98 98 98 96 96 96 97 97 97 98 95 97 98 99 99 100 99 94 84 60 59 62 52 33 32 42 49 41 32 19 17 16 14 15 21 29 36 43 42 44 49 54 57 60 63 69 74 79 82 81 79 81 83
98 98 98 97 97 96 98 97 97 96 96 96 99 100 98 95 96 98 92 62 50 44 41 40 31 36 30 35 32 22 18 19 19 13 17 28 38 42 42 44 48 52 56 58 62 70 75 76 79 81 80 81 81 87
97 93 95 88 96 89 93 99 97 96 95 100 97 92 85 92 96 93 79 50 44 39 32 31 34 40 40 28 24 20 20 22 24 17 26 34 42 42 41 43 47 52 54 58 65 71 73 75 78 80 83 84 86 88
97 96 97 85 82 84 85 82 80 84 91 87 97 100 95 82 78 70 36 36 36 38 36 26 24 26 26 26 22 18 23 24 22 23 35 40 43 44 43 45 47 48 51 59 67 69 71 75 76 77 79 84 85 84
95 95 94 98 79 70 88 88 85 79 75 71 77 92 81 76 74 37 33 34 34 30 30 28 29 29 26 22 18 18 23 27 19 31 42 43 44 45 46 46 46 48 53 62 65 68 72 74 73 75 78 83 85 83
96 96 85 98 97 86 79 75 75 50 50 62 70 70 72 44 38 35 31 31 31 34 34 36 40 36 30 22 19 21 23 18 16 32 41 40 41 43 44 45 44 46 51 55 60 65 68 67 68 73 79 81 81 80
94 85 84 94 83 80 65 56 51 49 49 48 46 49 50 42 37 38 35 30 35 41 44 44 36 32 27 20 23 26 25 25 28 44 39 37 39 40 42 42 44 48 53 57 61 64 62 61 66 72 76 79 81 81
82 72 82 85 84 74 77 71 73 70 65 60 56 57 46 43 45 46 46 52 49 42 56 53 42 36 26 20 19 20 23 19 34 40 40 42 41 41 42 44 48 54 60 62 64 62 60 64 70 75 75 78 79 80
75 74 89 93 99 99 90 88 86 74 79 72 71 68 72 63 72 56 54 63 52 45 57 54 41 31 23 19 18 17 15 30 34 36 42 44 43 43 45 49 55 62 66 68 67 64 64 68 72 73 74 76 78 81
86 89 92 94 98 100 97 77 77 82 74 75 76 83 81 74 72 62 58 52 56 56 60 49 34 26 26 21 20 21 30 35 37 42 47 47 47 47 51 57 62 67 72 74 74 74 74 74 75 75 77 79 81 83

GFSWCAN_850_rhum_087.txt.gz
RH
86 91 82 17 12 30 47 88 84 80 80 90 88 82 72 72 70 52 60 50 58 71 82 81 76 71 70 65 50 64 60 60 55 56 48 46 44 46 48 43 43 46 45 43 46 51 48 46 51 50 47 51 52 55
84 92 90 35 7 29 48 55 96 92 85 74 72 83 78 78 82 59 55 64 63 65 77 74 74 72 68 66 73 70 60 57 57 55 48 44 44 46 44 36 48 47 43 45 43 42 43 51 52 59 58 53 58 59
84 94 91 46 6 25 44 57 67 96 95 87 76 76 83 75 80 83 51 53 61 75 75 73 77 70 70 71 70 67 65 72 70 64 54 51 55 45 41 39 45 46 49 49 50 39 45 48 56 62 63 62 69 72
89 97 87 49 6 20 36 64 60 59 86 92 78 81 84 87 79 81 59 50 58 66 70 71 70 70 69 71 72 70 66 66 67 64 62 52 52 53 43 49 47 44 54 48 47 41 50 53 56 60 69 70 72 69
89 96 90 51 7 17 33 60 65 56 64 89 83 82 86 83 85 81 73 55 47 48 70 67 74 72 71 70 70 72 74 81 71 67 72 57 57 59 54 58 53 48 42 51 35 42 44 52 61 66 71 73 70 67
88 92 93 60 8 15 36 57 63 57 52 82 87 84 86 77 81 78 73 54 49 47 59 76 74 74 73 75 76 76 78 76 76 64 59 67 73 71 66 50 35 43 51 47 44 57 59 66 64 68 76 74 72 68
89 92 93 64 9 14 38 61 59 52 51 51 87 87 86 74 74 70 57 50 52 47 49 85 78 74 72 73 72 73 72 70 73 71 66 61 70 79 68 56 33 44 54 62 63 62 68 67 66 64 68 69 65 42
88 92 93 69 9 17 39 64 59 78 83 78 89 91 85 78 76 66 55 49 50 46 44 94 85 77 72 71 67 65 69 71 74 70 69 61 68 68 72 48 50 51 59 66 69 70 58 57 53 52 48 39 32 29
89 90 93 74 10 24 51 64 92 88 94 98 91 88 78 68 74 62 58 56 55 48 62 78 87 82 72 79 75 72 67 64 72 66 60 65 57 79 52 42 52 59 59 61 73 67 54 43 44 38 34 31 32 36
91 88 93 76 11 29 62 76 95 92 88 83 73 69 80 62 62 61 64 63 62 54 50 73 79 77 77 76 69 71 70 63 84 63 77 71 66 49 48 48 52 55 62 58 61 61 53 46 39 36 31 35 41 38
89 90 92 73 12 35 68 76 95 88 87 87 70 68 62 59 59 61 70 76 63 70 75 78 79 68 79 74 61 68 76 75 84 76 74 72 67 48 52 52 42 52 58 58 55 48 39 30 28 33 38 40 36 32
92 92 93 54 14 38 70 75 94 86 82 84 67 62 63 66 61 73 79 64 67 56 68 69 74 80 82 72 70 75 82 82 81 75 81 81 64 64 65 65 54 58 62 58 57 44 31 32 36 40 40 31 28 30
93 94 93 34 20 48 77 78 89 98 85 78 66 66 67 72 77 68 67 68 69 67 85 88 84 81 80 80 77 78 90 83 75 86 79 69 63 69 67 63 63 66 66 65 46 34 36 40 43 37 28 26 31 39
99 100 92 20 25 60 81 85 91 100 86 86 73 83 82 84 73 75 61 71 68 79 88 88 87 76 76 78 67 88 64 69 88 90 73 71 60 69 65 62 62 64 58 41 38 39 43 44 32 26 31 37 45 51
100 100 76 15 36 70 89 94 84 100 87 86 94 95 93 74 70 69 57 50 55 83 90 84 82 72 78 79 66 75 83 90 73 74 80 70 60 62 62 63 58 46 43 44 45 48 39 25 24 30 38 45 47 51
100 99 35 16 52 84 91 100 100 100 99 98 100 99 86 80 86 84 73 89 62 81 82 70 78 81 80 75 80 85 75 74 77 86 74 56 62 62 57 52 48 49 49 51 47 30 24 29 35 43 42 46 49 54
100 94 47 23 64 93 94 100 100 98 98 100 98 100 83 76 80 72 64 65 60 84 80 79 80 73 79 81 78 69 82 85 83 65 55 57 60 61 58 56 56 53 52 34 22 26 30 40 44 44 45 47 52 56
98 94 39 29 85 100 100 100 94 88 99 100 98 93 92 74 68 67 64 52 70 84 68 77 72 76 75 72 73 86 59 48 47 70 64 64 60 59 58 55 53 36 24 20 26 34 43 46 48 48 49 52 55 60
98 94 46 60 97 98 98 99 99 99 98 100 100 89 82 80 75 70 51 55 77 74 56 65 76 83 71 63 63 36 32 40 62 70 72 68 62 56 49 36 25 19 20 27 36 44 47 50 49 50 57 59 60 59
100 84 64 94 98 95 99 100 99 90 99 95 96 98 86 81 70 63 68 79 81 74 88 88 66 53 36 23 25 29 28 34 59 67 66 61 51 38 30 24 19 21 28 37 44 47 52 51 51 59 61 62 58 62
98 96 99 100 100 100 96 96 98 100 91 85 88 95 93 95 92 100 100 99 100 98 94 83 58 44 31 24 25 29 26 29 50 50 44 43 38 34 26 22 22 28 37 44 47 53 55 53 56 64 64 63 64 68
94 99 100 100 98 100 99 95 87 92 88 98 99 100 100 99 100 100 100 100 94 75 75 67 62 54 51 48 44 35 28 30 53 46 33 33 31 25 22 21 26 36 42 44 50 54 53 54 58 65 66 66 70 72
100 100 98 99 99 99 98 98 94 97 96 98 100 97 95 97 100 97 98 97 86 69 68 64 59 58 53 44 38 43 30 41 49 41 29 23 19 18 22 26 36 41 42 46 52 54 53 57 60 67 68 69 72 72
98 99 99 98 99 96 97 98 98 98 97 94 94 94 92 93 100 100 95 74 64 58 60 59 60 60 51 48 49 37 38 47 45 32 15 13 13 18 26 34 40 42 43 48 53 53 55 59 64 68 68 72 75 76
98 98 99 98 98 94 94 94 92 92 93 90 94 92 96 100 96 93 89 78 58 54 53 60 64 63 55 64 66 47 46 44 33 14 13 13 16 26 33 36 39 43 45 49 52 53 58 62 66 67 71 75 77 77
97 98 97 90 94 89 90 93 95 94 89 97 93 93 95 92 98 96 81 60 50 48 49 53 56 60 59 63 67 47 41 34 17 15 14 12 17 27 33 35 38 42 45 48 51 56 60 64 66 68 72 76 78 79
97 98 99 86 84 82 82 78 77 85 96 94 94 94 85 93 90 73 44 40 41 39 38 45 48 49 48 48 52 41 34 24 18 16 14 15 26 36 35 36 40 42 45 50 54 57 62 65 66 68 71 74 75 78
92 91 92 92 84 77 89 86 91 89 83 75 81 94 92 83 70 39 36 34 34 36 40 39 43 51 55 49 43 36 32 22 22 24 21 27 36 38 36 39 41 42 50 51 52 57 60 61 64 67 70 72 76 77
97 90 82 98 89 86 85 83 81 66 59 75 78 70 76 48 40 40 37 35 36 37 38 40 44 48 53 51 44 39 27 20 21 24 20 27 33 34 36 40 39 44 48 49 53 53 55 57 60 63 66 70 71 72
100 83 85 90 89 85 71 57 56 47 48 47 47 46 45 43 41 40 38 38 39 38 38 38 47 46 46 45 39 35 26 20 20 18 12 17 26 31 35 38 40 44 47 50 51 52 54 56 60 63 67 70 70 73
84 80 85 79 86 72 57 53 52 54 56 55 55 59 54 49 46 44 42 40 42 42 40 38 46 48 46 45 37 29 26 21 23 22 25 32 32 34 36 39 42 45 49 52 54 56 56 58 62 65 68 67 70 74
90 83 84 89 88 80 74 77 74 76 78 76 66 66 60 60 58 45 41 41 43 44 41 42 48 48 48 43 38 28 19 18 18 20 32 35 34 36 38 41 44 48 53 56 60 60 60 62 65 68 68 69 72 77
96 90 91 94 99 100 96 87 91 87 86 88 78 74 68 62 76 46 41 42 43 41 48 56 69 83 58 43 32 24 20 20 21 32 37 39 39 39 41 44 48 54 59 62 65 66 68 70 72 73 73 75 80 83

GFSWCAN_850_rhum_090.txt.gz
RH
63 74 83 83 55 7 22 40 70 80 74 71 74 78 73 67 67 48 52 56 52 71 77 74 71 72 69 64 66 65 63 64 66 71 60 56 57 56 55 42 45 54 58 62 54 60 67 47 52 57 54 50 52 55
68 76 81 84 71 12 14 32 48 72 85 80 69 66 75 73 68 71 46 51 61 60 67 70 71 71 70 70 75 68 62 58 66 74 62 54 56 52 48 52 48 60 53 65 53 59 46 46 53 56 52 54 56 57
72 84 81 86 77 22 8 27 48 54 82 76 76 72 77 75 82 77 65 45 52 68 67 66 74 68 68 69 70 77 66 69 70 63 70 68 66 57 60 55 45 47 48 64 55 44 49 47 50 53 56 59 61 62
74 86 81 92 82 38 7 22 40 55 51 69 78 74 79 80 86 89 76 46 56 61 80 72 63 61 65 67 72 71 69 70 70 65 74 76 70 52 60 59 59 53 56 58 57 48 46 46 49 54 59 61 64 65
77 89 81 91 86 53 7 21 35 56 51 59 79 77 80 82 89 90 79 56 44 45 69 66 54 63 64 62 67 70 71 78 76 73 92 86 62 65 61 69 77 53 62 66 63 47 49 56 55 58 62 64 67 66
87 88 84 91 86 60 8 19 38 50 49 45 78 78 82 77 83 85 82 54 47 45 48 93 72 69 71 71 68 70 73 77 76 74 71 66 70 68 89 80 43 35 41 41 46 49 52 55 56 59 66 70 68 66
99 90 86 96 90 63 10 20 44 53 47 44 45 79 80 80 72 80 70 55 52 46 48 81 88 75 68 72 74 73 73 74 72 74 71 66 72 69 92 80 42 36 40 46 52 51 62 62 63 61 62 61 60 57
100 97 89 95 92 68 10 24 52 54 71 78 67 82 83 82 69 74 62 54 53 47 43 98 96 74 70 75 74 69 72 71 73 75 69 70 71 74 95 68 51 44 46 56 58 64 60 60 64 57 50 47 37 30
100 100 92 96 94 75 12 33 72 78 76 80 80 85 86 74 71 70 61 55 53 52 67 80 95 95 71 76 72 70 67 83 73 86 75 70 80 90 72 56 48 49 49 53 66 68 65 55 46 41 38 36 33 34
100 99 99 93 94 80 14 42 87 92 87 82 71 63 73 61 64 62 60 62 64 59 54 87 76 93 77 77 73 77 70 90 95 84 74 88 86 56 44 48 44 46 51 55 68 66 59 48 44 41 36 36 38 42
100 99 99 98 92 81 16 48 88 94 89 82 66 65 60 58 61 64 72 82 76 81 72 77 78 86 70 93 88 68 92 94 97 92 91 94 91 65 50 52 48 49 53 56 53 50 50 46 37 32 34 40 42 34
100 100 100 100 94 76 20 57 92 92 85 86 73 62 60 64 64 78 90 72 80 83 68 73 76 80 76 72 80 77 93 94 97 79 94 97 87 64 54 54 54 59 60 58 53 47 42 34 33 38 42 38 25 24
99 99 100 100 96 61 25 66 97 86 85 77 68 63 64 74 83 86 78 86 88 64 71 79 91 78 70 74 80 91 96 94 72 91 93 84 68 64 63 61 69 66 62 57 54 46 37 36 41 43 31 21 25 33
100 99 100 100 100 42 32 72 97 98 82 79 73 88 84 94 90 88 88 93 71 72 71 87 88 81 76 86 80 97 78 79 97 100 85 93 67 63 65 66 68 65 63 61 51 39 39 44 42 25 20 24 37 40
100 99 100 100 96 29 56 86 88 100 74 82 93 93 96 73 78 68 67 48 49 70 78 84 84 75 92 91 81 87 89 98 90 82 90 82 66 65 66 65 65 64 62 48 40 42 47 40 21 21 30 37 42 45
100 100 100 100 82 39 82 96 100 100 86 90 99 98 96 85 94 80 60 70 58 67 78 76 88 94 93 94 92 92 90 83 80 94 65 59 61 66 66 65 62 55 44 45 47 48 30 18 19 32 36 42 46 46
100 100 96 100 61 74 94 100 100 99 99 100 99 99 95 85 85 78 69 61 61 76 96 89 94 78 89 95 95 87 88 84 62 47 50 54 57 62 63 57 50 49 50 50 44 23 19 21 34 35 40 45 48 48
100 97 100 98 69 96 100 100 90 89 100 99 99 97 98 88 62 61 64 58 62 78 82 86 69 85 87 87 87 86 56 34 30 35 46 58 67 62 60 55 55 55 52 33 19 21 26 36 36 38 43 48 49 49
98 98 100 98 94 98 98 99 99 99 98 98 98 96 92 81 76 66 54 52 60 70 67 64 91 92 88 72 64 41 33 28 32 38 47 53 66 61 58 59 56 45 27 17 22 28 36 38 40 42 46 50 50 53
100 100 100 98 99 98 99 100 97 94 98 94 100 100 95 80 74 73 75 68 66 79 84 95 86 59 50 29 26 23 24 26 31 39 49 52 57 61 57 52 36 23 18 21 29 37 38 40 42 46 52 55 54 57
100 100 100 98 99 99 88 98 100 99 97 87 88 94 93 97 91 91 88 86 95 93 97 63 55 50 45 42 40 41 29 28 30 33 32 41 52 54 50 35 25 20 19 27 37 38 40 42 46 49 54 60 60 65
98 99 99 99 98 98 100 98 93 98 96 100 100 99 100 100 100 99 98 100 93 75 69 60 58 61 58 54 51 51 51 42 40 38 38 48 49 44 37 30 23 18 20 31 38 38 42 44 48 51 56 62 64 69
98 99 98 97 98 99 99 99 86 97 99 100 100 100 99 99 98 100 98 100 89 69 68 64 60 60 60 61 61 56 53 53 53 41 39 49 38 33 31 26 19 18 25 34 36 40 44 46 49 53 59 65 69 69
98 98 99 98 98 97 98 97 98 100 98 98 97 99 96 98 100 100 95 94 58 55 54 50 58 67 69 68 66 61 58 54 45 44 50 54 37 31 27 19 16 22 33 36 37 40 44 48 51 54 60 67 72 72
98 99 99 98 99 96 96 97 97 97 96 96 95 95 100 99 100 97 93 84 51 50 48 48 55 59 62 56 54 54 56 55 50 64 68 55 36 25 21 21 22 34 35 35 37 40 44 50 52 56 62 67 74 72
97 98 96 90 96 88 91 96 96 96 94 97 93 95 95 98 100 97 94 59 43 42 46 47 46 51 57 55 62 58 54 56 69 95 61 46 24 15 12 13 22 30 34 35 37 41 45 48 54 59 62 70 73 68
97 98 100 90 83 82 84 80 79 91 95 94 97 97 96 98 95 85 42 34 36 36 39 41 45 48 46 49 55 58 55 82 92 67 48 35 16 16 20 24 27 31 33 34 37 42 44 49 54 58 65 69 67 66
92 94 94 91 88 76 92 91 93 90 89 81 84 98 91 87 83 46 34 29 29 34 36 37 38 41 44 56 61 62 62 80 80 60 39 21 19 19 19 28 34 38 38 37 39 41 44 48 52 59 64 62 61 60
97 94 84 98 93 87 86 85 84 68 64 81 81 88 86 62 41 34 34 36 37 38 38 37 36 37 40 49 65 66 63 66 58 42 26 22 20 20 20 32 34 39 40 38 39 41 42 47 51 57 57 56 55 60
97 78 91 92 90 86 78 60 65 54 54 54 52 47 44 42 40 38 36 40 42 42 42 41 41 39 39 48 52 67 83 59 50 37 24 17 13 16 19 26 34 39 40 41 41 41 44 48 51 55 56 57 58 65
86 85 87 86 88 77 66 62 58 61 59 56 52 52 51 51 49 46 44 45 46 44 43 42 41 41 40 41 52 62 60 52 45 33 26 18 16 16 22 30 37 39 41 42 43 47 51 50 53 55 57 57 61 69
83 85 88 92 94 85 75 70 64 65 70 71 63 64 60 58 57 50 47 46 45 43 41 40 41 40 41 43 62 76 68 43 39 31 26 22 17 22 29 34 39 40 42 45 48 54 53 55 57 60 61 61 68 73
95 90 86 90 100 100 93 79 91 94 90 94 81 69 64 60 71 47 45 44 43 40 40 39 40 44 47 48 55 60 55 44 36 26 25 22 27 30 32 36 39 43 47 51 56 56 59 62 64 66 66 70 75 80

GFSWCAN_850_rhum_093.txt.gz
RH
14 21 36 71 82 68 19 11 32 47 64 69 70 68 69 68 67 60 49 53 52 56 63 68 68 66 66 70 81 69 67 67 76 78 71 70 66 61 56 51 46 59 64 70 67 65 62 47 54 57 52 52 53 54
15 18 33 68 82 82 45 8 20 38 41 56 72 70 65 67 68 70 60 48 59 68 67 69 63 64 64 61 63 68 67 72 75 82 81 72 64 65 61 59 51 57 55 63 56 58 46 47 50 49 48 50 54 56
19 20 29 67 80 88 71 11 17 29 41 38 64 72 71 72 71 71 73 50 60 68 67 71 67 63 62 62 63 64 71 66 75 73 77 83 75 71 69 69 52 51 55 60 55 44 52 45 50 52 52 53 58 60
27 21 33 70 79 90 81 25 12 26 44 34 53 74 73 75 76 74 71 60 53 66 83 71 66 65 64 63 63 66 67 66 67 68 80 87 83 60 71 63 67 54 58 64 67 56 48 47 46 47 53 57 59 62
66 24 27 82 79 91 87 48 10 26 47 40 44 75 76 78 78 82 78 73 52 52 77 62 64 58 65 68 66 68 71 73 77 78 92 88 76 71 75 77 88 58 62 68 62 46 48 54 53 54 56 59 63 65
85 39 31 65 81 91 88 67 11 26 47 45 38 75 78 81 70 82 75 65 52 47 51 87 70 73 71 74 74 73 72 78 78 79 78 76 71 70 89 93 60 41 42 42 45 44 49 51 56 60 61 63 66 66
78 44 48 76 93 98 92 74 12 27 46 45 38 43 79 81 66 81 73 64 53 49 49 71 84 75 66 73 75 75 76 76 75 77 82 75 73 72 94 77 55 43 38 40 44 46 58 56 54 59 62 67 62 56
82 73 55 88 92 99 95 83 15 38 50 59 69 60 82 83 78 68 73 56 53 50 48 91 86 72 66 75 75 74 75 76 76 72 79 75 76 80 94 71 52 55 51 50 52 52 52 54 61 63 58 53 42 32
100 96 66 99 99 98 97 86 21 56 60 72 82 86 86 82 71 66 64 64 57 54 62 81 90 90 71 76 77 72 73 87 79 88 85 77 87 92 72 62 54 51 49 54 60 60 61 60 60 54 45 38 34 34
100 98 69 98 100 99 96 82 37 79 81 83 80 74 68 61 62 60 64 62 65 63 60 79 79 89 72 79 79 83 78 94 95 86 79 90 87 63 52 51 52 47 51 50 62 70 67 60 51 46 42 38 36 40
99 98 73 97 100 100 96 76 52 93 88 78 67 63 68 59 61 64 71 77 83 80 67 66 76 88 69 91 91 78 94 96 96 87 91 93 94 76 58 49 50 54 50 50 51 50 55 51 47 44 39 37 41 36
98 99 83 100 100 100 100 69 60 88 84 80 73 64 60 65 67 67 84 78 83 81 74 72 65 77 77 77 82 80 93 92 95 85 95 96 82 64 59 59 58 55 53 56 55 48 50 44 38 34 38 42 28 18
100 99 88 99 100 100 100 68 55 80 88 82 70 64 65 72 84 80 75 82 92 68 70 80 84 75 72 73 85 94 96 96 79 98 95 86 72 70 64 63 65 65 65 58 50 46 41 38 38 41 38 20 19 30
100 99 90 100 100 100 100 74 66 90 88 78 73 84 84 94 92 86 84 80 56 54 60 74 84 76 80 86 88 93 82 85 100 100 85 90 69 55 70 69 68 66 64 56 51 46 40 40 44 35 19 19 31 36
100 100 93 100 100 100 100 73 88 99 88 84 93 98 95 68 77 68 72 57 58 55 67 82 81 79 93 94 90 89 95 100 92 80 85 62 48 56 73 71 70 64 61 59 54 41 41 47 33 19 22 31 35 40
100 100 100 100 100 100 100 92 100 100 87 88 100 98 94 93 94 76 69 50 53 62 69 73 93 98 97 94 96 94 93 88 71 89 38 44 39 62 69 72 64 65 64 58 43 44 47 30 18 23 32 35 40 41
100 100 98 99 100 100 99 99 100 99 98 100 99 99 90 89 79 81 65 54 57 65 92 91 92 74 87 98 100 92 89 81 52 35 31 35 42 53 60 62 63 62 55 46 47 48 29 18 22 32 35 40 43 42
100 100 99 100 100 99 99 99 98 100 99 99 99 98 100 91 73 75 76 62 66 63 72 86 69 88 84 84 88 83 54 40 37 26 26 31 34 49 61 58 58 52 48 50 51 31 18 21 30 33 39 42 45 46
99 99 100 100 98 99 98 99 98 99 98 98 96 98 95 93 82 66 57 62 62 59 64 76 85 88 79 74 65 30 33 31 26 26 29 36 39 43 60 62 57 53 54 52 33 19 22 30 33 37 40 44 48 48
100 100 100 100 99 98 99 99 98 99 99 93 96 100 90 82 78 74 72 62 67 71 85 98 81 57 43 31 30 29 28 31 31 27 29 34 38 41 48 58 58 58 56 37 21 16 28 31 37 41 42 45 50 50
100 100 100 99 99 99 97 99 100 100 83 88 97 93 96 100 89 83 80 75 87 86 96 56 46 43 42 42 42 42 42 41 40 42 44 41 41 42 47 58 60 59 45 25 20 20 32 31 40 44 44 46 53 53
98 99 99 99 98 99 99 98 92 98 99 100 100 95 100 100 100 96 88 94 96 72 68 61 54 52 51 50 48 47 46 46 49 53 54 53 48 49 47 52 57 50 36 23 22 25 34 34 43 43 46 50 55 57
99 99 98 97 98 99 99 99 92 99 99 99 100 100 100 100 96 96 99 95 82 67 65 67 50 53 54 51 51 52 53 55 56 56 56 56 54 53 46 47 52 44 33 22 20 34 37 38 45 46 49 52 56 59
99 98 98 98 98 97 98 98 98 97 97 96 98 100 100 99 100 100 97 92 74 54 56 42 50 57 60 60 59 55 53 61 65 65 64 62 59 51 48 46 44 39 31 22 22 38 37 40 45 47 50 55 59 61
98 98 98 98 99 96 97 97 97 97 96 96 98 100 100 99 99 99 92 87 52 41 36 39 47 55 55 48 49 47 47 52 56 56 58 62 57 53 54 47 38 35 25 17 26 34 38 42 45 49 53 58 60 61
97 98 96 90 96 90 92 97 96 96 96 98 93 98 96 97 100 97 93 67 41 32 31 35 37 45 48 47 48 46 44 54 60 61 56 59 56 62 64 48 34 23 16 15 30 34 38 41 46 49 55 60 61 58
97 98 100 92 82 84 88 85 81 91 95 94 97 99 96 95 94 84 52 36 30 27 29 33 37 39 38 39 44 52 54 60 63 60 58 65 87 94 88 55 23 13 15 25 30 33 36 41 46 50 55 61 62 58
96 97 93 96 89 78 94 95 95 89 89 83 85 100 93 86 81 49 37 31 26 27 30 34 35 36 38 38 39 42 52 61 67 70 80 96 81 74 59 30 18 18 25 30 33 35 38 43 46 50 57 60 56 55
98 93 80 98 91 89 87 89 87 71 70 79 79 89 86 63 51 35 30 30 31 32 32 36 37 38 38 38 39 42 49 60 67 72 84 76 64 52 36 18 18 24 29 30 33 36 41 45 48 51 55 56 55 58
97 82 92 93 90 93 80 59 59 59 54 57 52 64 64 54 51 47 39 36 36 32 35 40 42 41 40 40 40 43 49 55 65 67 79 78 63 42 25 16 18 24 32 33 34 38 42 44 45 49 54 54 56 58
90 80 90 92 90 90 73 66 61 63 64 66 67 68 51 43 43 42 40 39 40 42 42 45 45 44 44 42 41 41 42 48 67 72 70 65 57 40 23 19 21 28 33 34 37 40 42 45 48 52 54 55 56 59
91 88 91 94 97 92 82 72 85 82 83 76 66 62 60 59 60 49 45 45 46 46 44 46 47 43 40 41 43 45 45 57 67 74 67 55 46 30 21 18 23 33 36 37 40 43 47 50 52 54 56 56 59 65
94 85 88 93 96 97 97 89 96 95 96 96 81 69 64 60 72 47 44 45 44 43 42 42 42 42 43 44 44 46 46 57 69 62 60 46 31 20 21 43 32 34 37 40 44 47 50 53 56 59 59 61 68 73

GFSWCAN_850_rhum_096.txt.gz
RH
82 51 17 17 26 57 75 67 13 15 35 54 69 72 67 68 66 63 46 46 53 53 53 59 67 66 68 71 80 65 67 67 80 80 76 74 72 64 66 55 50 54 67 73 73 74 69 52 57 54 43 56 53 55
87 83 33 20 18 56 71 69 35 10 24 40 57 66 70 68 72 70 68 51 48 64 64 62 65 65 66 65 62 66 65 69 74 84 85 84 68 74 66 67 49 69 58 56 60 58 40 49 43 42 43 43 50 50
89 85 57 21 24 43 85 73 58 11 18 37 40 53 71 71 75 78 77 67 49 63 63 63 60 64 65 66 69 74 73 68 73 66 76 87 83 77 78 76 56 52 57 67 52 41 55 44 44 48 48 48 50 54
95 93 89 36 28 55 94 89 74 25 14 37 39 50 73 72 76 82 81 74 50 59 78 68 66 65 62 63 65 70 75 73 73 73 77 89 86 64 80 66 69 54 60 65 70 59 48 45 47 46 53 53 55 60
92 92 90 85 26 69 99 89 85 47 12 35 43 43 74 74 74 81 86 79 68 47 63 53 58 58 66 67 67 70 74 76 79 82 96 93 81 81 82 83 92 61 63 68 55 43 41 41 38 48 52 55 58 62
92 90 89 89 27 58 98 98 91 68 12 27 44 40 71 77 73 79 83 80 64 52 49 80 66 76 74 72 72 74 80 83 85 85 83 80 79 72 90 93 64 44 42 44 47 42 41 44 48 52 56 58 63 65
97 89 90 88 32 35 97 99 94 81 15 28 40 40 48 80 80 73 78 73 55 52 49 63 65 78 68 69 75 76 80 83 83 78 89 80 75 77 94 77 56 44 41 41 43 50 58 55 54 58 60 63 68 67
100 92 90 82 42 37 96 100 98 86 20 42 50 55 53 82 84 78 68 67 54 52 49 88 81 70 68 74 76 77 78 80 79 79 84 84 80 88 98 73 59 57 57 55 54 50 50 48 57 62 66 68 64 47
100 99 95 93 80 53 86 100 100 84 24 63 72 79 84 87 81 73 71 71 69 56 54 78 83 79 70 77 77 78 76 88 81 93 88 84 90 95 78 67 62 56 55 55 61 62 59 55 60 66 64 59 40 34
98 100 100 97 98 71 90 99 100 69 52 73 84 82 80 72 70 68 64 64 67 63 61 83 64 93 68 79 81 84 84 95 96 86 82 95 92 67 59 55 56 55 54 57 65 73 70 68 67 62 50 41 37 36
99 100 100 99 100 81 100 98 100 64 77 86 77 66 71 67 58 63 70 80 79 88 69 64 71 86 72 88 90 82 95 96 100 84 92 94 93 77 57 54 51 56 60 59 55 52 56 58 59 50 45 40 38 40
100 100 100 100 100 83 99 100 99 72 75 74 71 68 64 66 72 76 86 80 91 86 79 80 74 73 79 77 82 86 90 91 99 88 97 99 81 45 61 56 59 61 65 66 59 50 53 52 50 46 38 37 40 23
100 100 100 100 100 88 99 100 100 91 90 89 76 66 71 72 88 85 79 88 93 71 80 81 93 76 77 74 88 94 94 95 84 98 97 86 47 45 54 65 67 67 66 63 56 52 48 45 40 37 39 34 16 17
100 100 100 100 100 93 100 100 100 98 99 85 79 86 89 93 92 84 82 80 47 55 68 64 89 76 81 90 89 94 79 85 100 100 83 87 36 47 46 67 70 67 64 57 50 45 42 40 40 41 30 15 20 30
100 100 100 100 100 100 100 100 100 99 98 88 90 98 95 71 69 70 63 65 65 54 60 71 85 76 96 92 93 90 96 99 93 80 83 35 39 37 40 61 69 67 63 58 52 49 43 41 45 32 16 22 32 37
100 100 99 100 100 100 100 100 99 100 99 96 99 99 93 93 90 93 82 64 58 63 60 61 96 98 95 92 98 96 93 92 74 88 34 26 28 32 36 53 67 70 62 59 57 51 42 45 40 18 19 30 36 38
100 100 97 100 100 100 100 100 99 99 99 99 98 98 91 89 83 78 74 55 55 57 89 91 88 74 91 100 99 91 89 81 43 31 24 27 34 34 34 46 62 68 64 62 60 46 46 46 24 18 28 34 39 38
99 97 100 100 100 100 99 99 99 99 99 99 99 99 100 86 85 88 72 58 65 62 64 77 61 89 88 86 91 85 60 43 37 35 24 25 34 39 37 39 52 61 63 60 48 48 49 35 18 23 32 40 38 42
100 100 100 100 99 98 98 99 99 99 99 99 100 88 96 96 88 83 81 65 54 53 54 69 85 89 81 78 71 32 31 30 28 28 27 25 30 40 42 42 46 59 62 57 50 49 46 22 20 31 35 42 37 45
100 100 100 100 100 98 99 99 98 98 99 92 92 96 87 84 83 90 87 75 68 68 80 96 81 58 50 34 30 29 28 30 32 32 30 30 35 43 45 44 44 51 59 56 56 55 34 19 19 32 36 45 38 42
100 100 100 100 100 99 98 99 100 98 93 91 94 88 92 95 93 96 95 80 88 84 93 54 53 40 37 37 35 34 33 35 38 40 42 42 43 48 49 48 48 52 60 60 59 53 30 18 24 34 39 44 40 42
99 100 100 99 99 99 99 98 93 97 96 99 100 85 100 100 100 98 96 97 92 73 62 52 45 46 42 41 38 37 38 40 42 47 50 50 50 50 52 53 53 52 54 59 58 47 24 20 29 35 39 45 41 45
100 99 98 98 98 99 99 99 95 100 97 99 100 100 100 100 96 92 97 91 75 64 60 59 56 55 57 50 51 48 45 49 51 52 53 54 54 56 58 58 55 54 53 54 58 42 24 24 33 36 42 45 43 48
99 98 98 98 98 98 98 98 97 97 97 97 96 96 98 99 100 100 99 94 72 64 62 55 58 63 63 56 58 46 44 47 52 56 55 61 64 64 65 64 60 58 51 52 54 41 28 27 40 37 43 44 46 49
97 98 98 98 98 96 97 98 98 97 96 96 96 96 97 98 99 100 98 89 70 54 44 45 49 50 57 47 46 43 40 44 48 49 47 54 62 68 69 68 65 57 53 54 52 40 32 35 40 40 41 45 50 51
97 98 96 92 97 90 94 97 96 96 95 96 94 94 98 97 100 96 92 60 44 39 35 34 37 51 51 43 43 39 38 44 51 57 49 53 56 57 61 64 60 53 53 43 44 36 27 34 42 41 40 47 51 52
97 98 100 92 82 85 89 85 80 90 95 96 95 97 97 93 91 84 48 37 36 32 31 31 33 34 33 32 35 40 46 51 52 50 53 54 56 57 58 58 56 58 61 42 29 22 24 34 40 40 43 49 51 54
96 98 93 95 90 78 95 95 94 90 90 86 83 97 93 84 78 46 38 34 36 34 28 31 33 33 34 37 41 43 42 41 43 51 61 61 60 60 65 69 76 82 59 27 17 24 32 36 38 42 45 49 51 54
99 94 82 97 93 91 88 90 88 75 72 81 77 87 85 61 45 37 37 34 31 30 25 27 30 32 34 36 38 38 38 39 44 50 56 60 61 73 88 96 98 67 25 19 27 32 36 38 41 45 48 51 52 54
98 84 94 92 92 90 81 60 64 61 61 61 52 56 54 50 42 41 37 37 38 31 26 29 31 34 36 38 39 40 40 41 43 48 51 54 56 66 75 74 59 29 22 38 31 33 40 45 46 46 48 49 52 54
88 86 92 95 91 89 78 67 64 64 64 61 54 63 53 48 48 48 48 49 47 44 37 37 39 40 41 41 42 42 43 42 42 45 47 56 67 73 88 75 44 23 23 28 34 37 37 42 45 46 47 50 53 56
95 94 93 96 97 99 92 84 83 78 82 87 80 83 71 60 55 46 44 44 44 43 41 43 43 41 39 41 43 45 45 45 44 45 52 62 73 78 71 63 38 24 23 30 38 40 44 45 44 46 49 53 56 58
93 88 92 94 97 99 93 88 95 97 97 96 93 80 66 62 73 50 50 52 49 48 47 43 39 38 41 45 46 46 46 46 49 58 70 71 76 64 50 42 33 25 32 37 39 42 46 47 48 50 54 58 60 63

GFSWCAN_850_rhum_099.txt.gz
RH
93 85 90 83 46 22 19 60 77 48 11 21 38 36 56 64 65 65 61 47 50 54 47 48 58 65 69 74 81 65 69 68 80 77 81 76 77 67 70 62 53 56 67 79 79 83 75 54 58 52 44 51 51 54
100 92 90 94 73 33 25 36 83 77 20 12 34 36 54 64 67 72 71 64 53 56 58 58 56 58 67 64 63 70 69 71 75 86 88 87 76 81 70 67 54 69 56 52 65 64 42 48 45 42 44 43 50 49
98 98 94 93 92 52 26 45 80 85 52 13 26 39 34 68 69 75 80 78 68 58 59 63 54 55 67 66 67 65 74 69 76 74 79 89 85 83 82 84 62 56 58 69 57 47 54 42 42 43 45 44 45 47
91 96 96 95 94 96 56 45 80 92 79 17 16 41 43 67 74 75 81 80 74 55 78 59 62 67 66 69 69 70 71 74 76 77 75 90 87 67 81 68 72 54 64 69 74 61 50 42 40 39 46 51 52 53
90 94 96 100 96 97 94 59 86 96 90 33 18 33 40 69 73 74 77 86 80 61 64 50 50 56 69 70 72 72 73 78 76 84 97 97 84 84 86 88 87 62 56 65 57 43 40 36 34 37 46 50 52 56
87 93 95 99 100 98 100 69 89 97 94 53 18 38 39 53 74 72 84 87 85 64 54 79 60 69 67 69 70 72 76 81 79 85 87 82 76 71 91 96 67 45 44 47 49 47 46 43 44 42 46 53 58 61
79 91 94 99 100 100 99 84 88 100 96 68 20 41 46 39 55 76 80 80 63 56 52 63 64 76 72 72 76 78 83 88 88 83 93 86 81 82 96 83 60 53 54 54 53 54 56 51 47 49 57 61 65 67
73 86 94 100 100 100 97 95 96 100 99 75 27 50 50 50 64 72 74 70 62 56 54 85 81 67 70 71 77 81 84 86 85 85 88 92 86 90 98 77 65 59 55 52 57 61 56 54 50 56 64 65 67 67
61 70 90 99 100 100 96 82 100 100 100 66 38 70 79 78 80 77 76 74 76 62 56 78 84 74 73 77 80 85 81 93 86 95 92 88 92 98 80 70 61 59 61 61 60 60 67 63 57 62 66 68 67 61
53 58 77 91 100 100 100 94 100 100 100 54 66 75 80 81 79 73 69 68 74 70 68 86 64 93 70 83 83 85 89 95 96 88 87 98 95 68 59 58 59 54 52 64 74 68 69 67 66 65 66 65 59 41
73 68 67 93 99 100 100 100 100 100 92 84 73 67 68 69 64 64 72 85 79 92 72 70 64 85 68 87 86 84 95 96 98 89 94 96 94 75 50 54 44 52 60 62 71 67 61 61 62 66 67 53 41 37
74 68 74 94 100 100 100 100 100 100 92 68 67 70 72 67 71 83 90 78 96 89 79 83 78 70 73 74 82 91 91 92 98 90 98 100 82 42 44 44 47 61 63 66 70 64 54 61 64 64 52 43 39 39
77 88 87 91 100 100 100 100 100 100 97 95 93 69 71 77 93 92 81 86 93 74 85 85 97 75 80 79 91 94 93 95 88 99 98 89 51 40 43 39 56 62 64 64 62 55 54 55 59 50 44 38 39 28
98 94 93 90 99 100 100 100 100 100 100 99 97 93 91 93 93 86 81 81 55 57 79 68 89 78 79 90 90 89 82 86 99 99 89 87 35 34 35 38 56 60 63 63 58 52 48 48 45 40 40 38 20 15
98 98 94 88 100 100 100 100 100 100 99 99 99 96 95 72 72 67 62 57 62 65 64 68 82 76 97 94 93 92 97 99 96 83 83 31 26 28 28 32 45 53 59 60 54 46 44 42 40 41 38 19 16 25
99 97 89 93 100 99 100 100 100 100 99 100 99 97 95 93 92 84 76 84 70 68 48 56 95 93 90 91 98 95 92 93 76 89 35 26 29 30 28 28 36 49 55 59 59 52 49 45 42 44 30 17 23 31
100 98 94 86 100 100 100 100 99 98 99 99 99 96 84 83 80 74 72 79 68 54 84 86 84 70 88 98 96 90 88 80 47 30 25 24 30 34 37 33 33 42 54 59 58 57 55 46 45 46 27 16 28 36
99 96 98 97 99 100 100 99 98 99 99 99 99 99 100 83 80 84 85 73 72 67 64 78 62 90 84 81 87 88 61 39 33 25 21 21 25 33 39 40 39 38 41 50 57 62 60 47 46 44 21 19 32 38
96 99 100 94 99 98 97 99 99 98 98 99 99 78 91 90 82 67 83 80 56 53 46 66 84 86 77 77 79 38 33 32 29 30 28 30 24 27 39 43 42 40 40 43 54 56 54 47 48 41 20 24 31 37
99 100 100 100 100 99 99 99 98 99 99 96 99 98 90 79 77 79 87 89 78 71 84 99 80 58 49 35 39 41 30 28 27 29 27 28 29 28 33 41 44 45 46 48 54 61 58 52 52 39 19 22 32 36
100 98 100 100 100 100 98 98 99 98 87 90 99 99 96 96 100 100 99 100 98 95 87 58 44 38 36 35 44 45 34 33 33 32 31 32 32 38 44 44 46 48 49 49 53 56 57 54 52 41 23 24 32 40
100 100 100 100 100 99 99 99 95 97 96 100 100 90 99 98 100 98 100 99 92 81 72 63 55 55 48 41 40 45 44 43 38 36 36 40 42 43 47 47 48 50 51 52 52 54 56 56 57 41 22 28 38 40
100 100 99 99 98 98 98 99 98 100 98 99 100 97 97 98 98 96 98 90 74 75 74 72 64 61 56 51 54 51 47 44 44 44 42 44 44 45 51 54 56 56 58 56 54 56 58 60 61 39 29 37 41 42
100 100 98 98 98 98 98 98 97 97 98 99 98 97 97 97 99 98 98 88 64 64 69 68 69 70 68 72 70 63 56 56 51 48 49 53 53 50 52 52 57 60 62 62 61 59 59 63 61 38 29 37 40 42
98 98 98 97 98 97 97 97 97 96 96 97 98 100 97 98 96 97 94 90 58 55 54 56 57 56 64 62 65 61 60 64 55 52 45 48 52 54 51 54 60 63 67 68 66 62 56 63 59 37 30 37 40 41
97 97 95 93 96 91 95 99 98 97 97 97 94 89 98 97 96 92 93 56 53 47 45 45 48 58 73 72 73 63 46 45 49 53 47 48 45 47 48 52 54 53 57 64 66 60 56 59 52 34 32 39 41 42
97 97 98 94 84 86 91 86 81 92 94 95 96 97 96 96 93 85 50 41 40 35 34 36 41 43 42 40 39 42 44 46 44 44 43 44 47 50 53 53 50 48 56 61 61 57 53 53 43 29 32 40 41 42
98 99 96 96 87 81 94 96 96 89 91 86 83 100 95 87 79 41 34 37 35 36 37 38 37 35 35 34 35 39 41 43 45 44 44 44 42 44 51 52 56 60 65 64 62 61 50 44 30 28 36 39 40 44
99 99 89 96 98 94 90 88 88 74 66 80 83 87 87 61 42 38 37 43 39 35 39 37 35 36 34 35 40 44 44 40 38 40 39 37 39 39 47 58 59 63 64 72 63 40 38 29 30 37 40 42 45 50
99 94 90 93 94 91 81 64 69 59 62 57 54 57 55 49 43 41 39 44 45 42 34 30 27 26 30 35 38 39 38 38 38 39 38 38 41 46 50 58 74 85 91 86 35 23 29 37 41 42 44 47 49 51
93 91 92 96 92 83 74 71 66 65 65 62 57 58 53 47 45 43 42 52 61 58 36 32 28 30 31 34 35 36 37 37 37 38 41 41 43 49 58 64 74 88 96 47 24 27 32 40 55 41 43 45 49 53
98 94 94 98 97 98 92 82 80 74 79 77 73 73 68 65 65 48 49 56 57 46 39 39 36 32 33 35 35 37 38 40 43 44 45 45 49 55 67 78 84 86 73 28 34 36 62 53 42 41 44 47 52 53
96 96 95 95 96 95 96 89 92 98 94 95 89 84 78 74 82 59 56 55 51 44 42 44 45 45 44 42 40 42 44 46 48 48 48 48 52 60 74 82 91 88 39 30 33 74 79 43 43 44 47 52 54 56

GFSWCAN_850_rhum_102.txt.gz
RH
100 96 98 94 93 93 82 55 34 69 70 23 14 34 35 44 60 62 60 59 50 56 47 48 54 60 69 74 80 63 72 72 82 75 82 79 78 73 73 64 58 59 69 83 88 90 81 53 58 52 42 45 48 54
100 99 98 94 96 95 92 84 57 65 79 60 14 25 43 49 58 61 68 68 66 60 51 50 52 53 59 64 65 69 72 69 72 87 89 87 83 85 75 70 58 62 54 53 66 64 44 46 48 38 42 42 43 46
83 99 98 97 98 97 98 99 92 75 92 81 36 14 43 50 69 66 68 75 78 71 60 61 56 56 56 64 70 69 74 70 73 73 77 88 85 86 85 88 66 56 57 66 61 46 53 42 38 39 43 46 45 43
72 87 98 97 96 96 100 100 98 92 95 95 74 18 33 45 74 74 72 76 81 71 73 56 56 60 60 63 72 73 71 72 74 79 79 89 88 70 84 74 75 55 64 68 77 58 48 38 35 37 38 41 48 49
66 84 95 97 96 97 100 100 99 96 99 99 94 32 30 39 62 78 77 71 84 73 66 56 60 58 58 71 75 76 76 78 79 83 97 98 85 85 86 91 97 63 63 74 60 42 46 44 42 41 41 40 46 56
75 80 85 90 98 98 98 100 100 99 97 100 97 58 36 50 52 81 77 83 88 84 68 82 52 62 65 74 80 79 79 82 82 87 88 83 81 77 89 94 69 52 51 51 54 49 53 55 56 49 48 44 50 59
73 75 77 76 84 99 93 100 100 100 84 100 100 84 33 59 49 74 71 79 68 61 54 66 63 73 81 81 81 81 83 90 88 87 95 90 85 87 97 86 54 52 50 53 56 60 62 56 61 50 48 47 53 59
48 57 64 73 75 92 98 100 100 100 97 100 100 88 38 59 64 59 63 80 76 58 54 89 82 56 78 75 80 85 88 93 90 89 92 96 88 93 98 67 62 58 61 59 55 61 61 58 64 62 57 56 59 62
40 38 46 60 69 80 97 100 100 100 94 100 100 72 57 87 83 79 81 80 81 70 58 79 86 75 75 80 82 89 85 95 90 97 94 91 91 98 84 69 63 59 64 62 61 52 53 64 62 66 65 65 65 67
39 34 32 41 54 67 90 100 100 100 100 100 97 72 95 86 83 80 84 81 85 80 77 87 66 84 73 88 92 88 90 96 97 90 90 96 93 70 56 54 56 58 58 49 68 67 65 68 65 64 65 67 68 67
39 37 33 34 51 63 74 100 100 100 100 100 95 80 75 74 74 73 79 91 84 94 77 78 68 84 68 87 88 82 94 95 98 92 96 96 96 78 43 39 45 45 44 59 65 69 66 66 65 64 67 69 70 64
42 37 38 41 48 64 82 100 100 100 99 97 80 79 80 68 75 88 91 82 96 86 84 86 75 68 74 70 80 96 94 95 97 92 99 99 85 44 39 36 36 39 52 61 63 60 63 59 61 65 66 66 61 45
51 44 40 40 58 74 92 100 100 100 100 100 99 99 96 86 97 98 85 90 93 82 88 93 97 68 79 76 90 93 96 97 89 99 97 87 54 36 30 29 28 40 50 61 65 63 56 55 57 64 65 57 45 41
54 65 83 93 92 91 100 100 100 100 100 99 99 97 95 97 93 86 81 84 56 67 80 76 94 79 78 94 92 93 86 87 100 100 91 84 42 30 25 26 28 35 45 53 59 58 53 50 54 58 51 46 39 38
57 68 87 87 89 90 99 100 100 100 98 99 99 96 97 78 69 68 60 54 57 64 71 71 86 78 96 95 94 91 99 100 94 83 83 38 27 22 22 22 24 28 37 45 54 56 50 46 47 45 41 39 37 20
63 54 55 86 85 89 91 100 100 100 99 100 99 98 97 92 88 78 75 66 67 77 56 54 92 90 86 90 100 91 86 82 76 90 36 24 21 22 22 23 24 28 35 44 55 56 50 45 44 42 41 41 27 13
70 86 79 72 88 92 91 100 100 98 98 99 99 100 85 76 69 69 67 68 67 63 87 86 87 68 91 97 96 87 85 82 48 31 28 22 20 21 24 29 31 31 31 36 42 49 53 52 49 45 44 43 35 15
76 83 86 91 92 98 100 100 98 99 98 99 99 98 99 70 66 73 67 58 73 76 68 81 65 88 86 85 86 82 66 39 34 29 28 25 20 24 26 32 36 36 35 37 41 46 53 56 55 55 48 46 38 18
75 74 82 99 100 100 97 99 99 98 95 98 95 92 92 86 76 62 57 65 69 71 52 70 78 86 80 78 74 43 45 36 26 23 25 22 20 21 23 29 38 40 40 40 41 41 44 50 54 56 51 48 44 21
81 82 77 96 100 100 99 99 98 98 99 97 96 99 91 83 79 75 69 82 90 88 84 98 78 58 47 30 28 29 37 36 34 28 26 26 26 27 27 26 27 39 43 45 46 47 50 53 58 62 54 50 49 23
91 92 90 99 100 100 100 98 99 96 86 95 100 99 96 94 89 97 100 100 99 98 94 62 46 37 34 31 30 32 39 42 44 41 35 29 27 28 30 30 30 33 41 45 46 47 49 48 50 58 59 52 51 27
98 99 100 100 100 100 99 99 95 94 99 100 100 96 99 99 100 98 100 98 94 81 72 68 65 66 59 47 37 36 38 40 45 46 44 41 40 40 36 32 32 37 44 45 46 47 50 51 54 58 61 57 56 34
99 100 100 100 99 98 98 100 98 99 99 98 100 99 98 99 96 100 98 95 78 71 72 73 72 68 68 64 62 58 56 52 49 50 50 48 46 45 42 39 37 43 47 48 48 50 53 54 58 61 63 62 59 36
100 100 99 98 98 97 99 99 98 97 98 99 97 96 99 99 100 98 96 81 66 69 70 72 72 71 71 71 71 68 64 64 61 63 63 64 62 59 52 47 46 48 52 53 56 57 58 60 62 63 64 64 59 32
99 98 98 97 98 97 97 99 98 98 96 97 97 97 97 97 97 97 95 84 57 60 62 66 63 64 73 69 67 67 68 72 71 72 66 69 69 66 64 63 58 52 55 60 59 61 63 66 66 64 65 66 58 30
98 96 95 95 98 93 94 98 98 98 98 98 95 92 99 97 96 93 92 53 53 52 51 51 59 74 78 75 73 69 64 68 70 70 56 65 61 59 52 51 48 43 48 52 57 59 66 70 69 64 64 66 50 31
97 98 98 92 83 89 93 86 83 93 97 94 97 97 96 96 94 84 52 40 41 42 40 41 45 48 49 52 54 51 60 66 66 63 64 59 53 47 47 46 43 45 55 57 57 59 64 69 70 62 62 63 43 29
92 91 98 98 93 85 93 97 95 93 88 86 85 98 93 90 81 44 34 32 34 38 38 41 40 39 46 46 49 50 54 60 68 71 60 48 43 42 44 42 43 50 56 59 61 62 64 68 68 60 59 53 34 33
100 98 89 97 98 97 91 88 89 75 65 84 84 89 88 65 45 41 36 36 38 37 36 37 37 39 40 42 46 45 44 43 47 52 48 39 36 35 37 40 44 52 58 60 61 61 63 64 59 56 52 36 35 43
99 98 93 96 95 96 82 69 65 57 60 57 52 52 52 47 44 42 40 40 38 36 38 45 45 42 40 41 42 39 37 38 40 39 35 34 34 37 38 41 45 54 62 64 65 67 63 59 54 42 37 40 45 47
95 94 93 96 94 79 70 70 72 69 71 66 60 59 56 50 46 45 43 42 40 41 43 45 53 54 52 40 40 36 36 37 36 37 37 37 38 41 44 46 52 58 71 77 84 72 45 34 27 32 38 41 44 46
100 95 94 100 98 93 82 84 80 76 77 76 69 68 65 63 65 49 45 44 44 45 43 43 54 50 50 52 36 35 32 32 33 35 37 40 43 46 49 50 59 68 79 92 94 57 26 26 32 38 62 56 45 49
98 95 94 93 99 99 95 90 96 94 97 97 88 72 67 65 75 48 45 45 44 43 43 43 43 45 53 48 32 33 36 35 38 41 43 46 48 49 51 54 68 78 83 94 88 29 33 42 61 64 48 45 48 51

GFSWCAN_850_rhum_105.txt.gz
RH
87 87 99 97 98 98 99 99 98 84 39 64 65 21 25 35 44 52 61 69 58 52 44 45 49 54 66 72 80 62 70 74 84 80 82 79 82 75 74 62 62 69 78 90 92 96 85 51 60 50 41 36 44 49
78 76 86 97 99 96 97 99 100 98 90 51 78 49 17 34 42 55 60 72 75 70 56 51 50 51 52 53 59 68 70 69 71 85 90 88 84 87 78 75 59 67 52 53 67 66 43 45 44 40 42 43 44 46
77 69 69 80 90 98 99 97 99 99 99 65 78 88 27 24 36 64 66 70 81 82 68 70 59 55 56 59 61 68 75 68 74 76 77 87 86 82 85 88 69 58 56 64 58 47 50 39 39 40 40 40 40 45
82 78 72 68 82 96 97 96 98 99 99 97 64 99 63 28 38 36 67 73 81 81 80 60 57 57 60 59 65 71 72 74 77 80 80 90 88 73 86 76 82 60 62 67 73 58 48 40 40 40 42 43 42 43
78 76 75 68 70 92 94 93 97 99 98 100 73 97 96 33 44 42 46 66 78 82 76 66 65 65 65 67 72 76 80 80 80 84 97 97 85 89 87 92 98 66 67 75 62 46 46 45 48 52 53 52 48 49
77 70 72 77 80 84 88 94 96 98 100 100 89 94 98 52 43 52 64 75 80 90 80 86 60 62 67 76 81 82 83 84 82 84 87 83 83 79 94 96 66 46 47 49 52 48 52 54 56 54 60 59 56 53
64 65 60 62 73 77 79 81 98 99 100 100 96 94 98 80 45 56 66 75 73 77 63 68 65 71 85 82 84 85 87 89 86 86 98 92 88 89 98 86 47 46 48 50 52 56 60 56 56 54 54 60 59 54
50 55 51 51 53 60 65 78 94 100 100 100 96 95 99 85 61 59 50 62 86 70 58 91 83 56 84 84 87 90 92 96 96 91 97 98 95 93 98 76 56 53 57 60 60 62 58 56 58 47 46 60 64 64
49 47 47 49 49 44 56 71 87 100 100 100 100 100 99 85 81 77 75 80 88 80 65 82 87 76 80 83 87 93 92 98 93 100 96 94 94 98 84 74 60 50 56 55 59 59 52 43 44 53 63 65 69 70
50 45 42 38 37 40 44 76 92 100 100 100 100 100 99 89 88 80 94 94 99 89 84 94 67 81 74 92 96 93 94 96 100 91 95 98 90 70 64 57 53 52 52 55 62 47 47 61 58 63 63 66 70 72
56 50 46 42 39 38 40 99 100 100 100 100 100 99 96 86 86 84 86 95 89 99 85 86 75 88 75 89 89 82 95 95 100 93 98 96 93 84 45 43 40 40 43 38 39 54 60 60 62 65 63 63 67 70
52 52 51 47 42 40 46 95 99 100 100 98 99 100 99 99 98 93 93 86 97 91 82 93 82 65 74 75 86 97 94 98 98 92 99 98 81 45 40 33 29 32 30 34 51 55 52 56 61 61 64 67 67 69
59 57 53 52 48 46 52 97 96 100 100 100 100 100 99 99 98 97 93 95 97 82 88 88 95 64 79 79 91 91 99 96 90 100 96 82 58 41 34 30 25 24 28 35 47 56 58 55 52 53 56 65 69 67
59 70 59 52 52 63 86 99 98 100 100 100 99 98 97 98 96 91 84 84 58 70 82 72 92 84 81 96 91 96 88 90 100 100 89 84 42 29 26 23 22 22 26 31 40 53 56 54 52 51 57 64 61 48
42 66 65 57 56 63 82 95 98 100 100 99 99 97 96 80 76 70 68 62 64 71 74 75 86 77 96 96 92 93 100 100 94 81 82 38 29 29 24 20 20 20 23 27 34 44 55 56 50 50 53 52 48 42
31 55 64 60 60 56 68 85 99 100 98 98 99 99 98 92 92 79 68 66 62 80 66 62 91 96 86 91 100 93 92 87 74 89 34 30 27 26 19 18 19 22 25 27 30 37 45 50 49 46 46 45 41 39
44 72 49 54 57 56 60 84 99 98 100 99 97 91 99 86 74 71 69 60 62 80 89 89 94 76 91 98 100 90 87 79 49 29 27 26 26 19 18 20 22 25 27 28 29 31 35 48 50 48 47 46 43 43
65 43 48 58 64 78 98 99 100 100 98 97 96 80 99 94 75 61 67 63 71 83 76 90 79 87 87 83 88 83 58 35 30 34 28 24 26 19 17 21 25 28 30 32 33 35 38 42 45 45 48 50 49 46
57 44 44 61 73 94 99 99 98 98 92 83 77 81 95 92 88 77 60 57 60 75 60 88 92 92 62 79 75 35 30 29 31 37 39 28 22 23 20 21 25 28 32 35 37 38 39 40 42 47 50 54 55 53
62 55 50 67 80 100 99 99 98 99 99 85 88 89 91 82 80 85 78 72 81 92 97 97 91 51 51 30 27 29 29 27 36 41 37 34 27 23 27 35 33 26 24 32 40 43 43 44 44 44 48 55 59 58
65 53 52 74 92 98 99 99 98 98 97 96 91 99 94 96 91 95 97 94 98 98 97 78 66 61 50 41 34 30 30 31 35 33 32 35 32 31 40 40 47 33 28 32 32 39 44 43 42 45 50 54 56 59
63 54 72 72 96 98 99 98 98 97 100 100 100 96 100 100 100 98 98 98 95 85 75 68 65 70 68 60 50 42 38 38 41 41 39 41 43 42 46 48 43 56 51 45 42 36 34 39 44 47 50 54 58 61
69 87 99 98 99 99 97 98 98 98 97 98 100 98 97 99 96 95 98 96 80 71 65 72 72 70 70 69 68 64 58 55 51 48 48 47 47 49 50 51 55 78 95 91 61 40 35 39 46 50 52 56 59 62
92 98 97 98 99 97 98 99 99 99 99 97 98 97 98 100 100 98 96 95 70 69 72 69 74 73 71 69 76 72 66 71 69 68 69 67 67 65 64 63 66 66 77 90 62 48 44 47 53 57 56 57 61 63
98 98 99 98 98 98 97 96 96 97 97 96 97 97 96 98 96 96 96 81 57 61 62 70 69 69 72 69 74 76 76 73 73 73 68 67 67 69 71 71 70 68 70 70 66 63 63 62 65 63 60 62 64 64
98 92 95 90 97 95 94 97 97 98 97 99 96 95 97 96 96 92 92 53 58 52 50 53 59 69 75 75 76 73 70 74 75 74 67 69 71 73 71 76 70 64 62 54 58 61 60 62 66 64 64 67 67 68
97 98 98 96 96 91 92 87 86 95 100 97 99 98 95 96 93 82 51 43 43 41 43 42 42 46 45 50 59 60 59 72 70 67 66 70 71 72 71 71 66 55 54 51 50 50 52 58 62 65 68 70 71 67
92 93 91 97 96 90 94 98 97 97 91 86 89 100 94 89 80 45 37 34 34 35 38 39 41 46 47 48 55 61 61 63 67 69 72 72 72 70 62 52 47 47 49 53 55 57 58 59 63 68 71 73 69 66
98 100 96 96 96 96 94 90 91 77 66 86 87 90 87 59 43 44 42 40 38 36 35 36 35 39 40 43 47 49 58 63 60 62 62 58 52 44 42 42 43 44 48 56 59 60 63 66 68 71 75 71 66 64
97 92 95 95 95 95 84 75 67 59 62 61 58 54 52 45 44 43 42 43 42 41 39 38 38 40 42 44 43 45 47 49 44 43 41 39 34 39 38 37 38 42 48 57 61 64 64 66 68 69 65 63 61 49
89 96 96 96 95 76 68 68 70 70 71 68 66 66 62 55 51 48 45 44 44 44 44 43 41 40 41 44 43 48 50 48 42 36 37 45 45 40 38 41 42 46 51 58 64 66 66 67 66 59 54 47 40 40
100 94 97 100 99 89 83 86 80 78 80 78 70 69 64 64 66 52 49 46 47 46 43 43 43 42 41 42 45 51 70 70 42 33 38 40 41 40 42 45 47 48 56 63 70 82 82 71 55 44 36 38 40 42
99 98 98 98 99 100 97 89 99 97 100 100 89 68 68 65 65 51 48 45 44 44 43 42 42 43 43 43 45 54 58 64 44 36 39 40 45 44 46 48 49 52 64 71 80 89 84 51 40 36 39 46 54 49

GFSWCAN_850_rhum_108.txt.gz
RH
73 72 75 75 73 85 88 96 100 98 93 91 52 57 51 20 26 34 51 58 67 56 51 48 49 55 64 69 49 62 61 74 71 66 58 51 57 49 56 45 47 51 62 71 73 81 80 45 56 41 30 34 39 45
75 76 80 77 68 76 84 99 99 97 94 95 88 48 72 36 23 39 52 60 70 74 61 57 58 49 52 53 52 61 65 65 62 61 63 60 63 63 51 48 49 52 37 34 44 41 35 45 38 40 42 47 49 50
84 78 77 76 70 70 74 84 91 96 93 96 97 76 67 73 32 35 54 65 69 80 64 60 58 62 64 64 63 61 70 64 68 70 66 63 68 59 55 58 51 45 45 45 46 30 36 34 39 42 42 44 44 44
98 96 97 89 73 69 71 75 92 91 94 93 99 95 80 87 65 32 44 60 77 77 84 62 55 55 56 57 62 70 71 70 75 78 77 68 69 61 57 50 54 38 50 44 46 40 40 41 43 43 47 51 52 51
93 88 85 82 76 71 69 76 94 94 93 97 100 100 82 98 89 46 38 44 70 76 79 70 63 63 66 61 66 72 81 81 80 81 87 88 75 73 68 75 69 54 48 53 46 36 37 34 39 44 54 53 54 60
94 94 92 85 80 76 67 76 87 97 99 95 99 100 93 99 99 57 49 69 75 82 87 87 63 63 60 67 77 80 86 89 84 85 80 82 81 77 77 72 48 52 52 46 40 40 43 44 48 51 54 52 49 55
73 75 86 86 83 80 63 66 78 88 95 100 99 99 99 99 100 70 53 66 75 85 73 76 69 65 82 84 89 92 90 89 88 88 96 85 86 89 86 67 33 43 43 44 47 52 58 55 56 55 57 51 48 41
67 57 57 60 58 58 56 52 74 97 100 100 100 100 100 99 100 95 79 61 77 73 65 88 84 60 84 91 92 91 96 98 95 92 99 93 94 92 93 60 54 49 49 50 49 52 53 59 64 62 57 43 45 53
77 62 56 54 53 48 46 47 46 85 99 100 100 100 100 99 98 90 83 79 76 76 73 88 85 80 82 85 88 95 97 93 94 93 90 91 83 96 67 56 56 49 54 49 50 51 56 60 58 45 52 54 60 65
57 58 59 54 48 48 45 41 40 63 100 100 100 100 100 99 98 90 90 98 100 100 96 96 73 77 76 94 91 92 98 85 98 81 95 95 86 67 64 57 45 44 46 52 58 55 48 41 56 59 62 65 65 69
54 52 58 62 54 49 45 46 66 89 99 100 100 100 100 98 92 89 95 99 98 99 95 96 85 75 70 82 75 86 86 86 99 82 92 89 88 66 48 51 54 48 44 47 47 46 39 51 52 58 61 63 64 66
33 45 55 59 50 52 51 50 75 93 100 100 100 100 100 100 99 99 95 89 95 87 82 91 90 68 74 68 76 91 86 91 96 89 95 94 74 49 40 38 37 34 30 29 29 31 48 49 51 56 57 58 63 66
29 32 43 56 62 52 53 58 71 98 100 100 100 100 99 99 97 96 96 94 94 83 92 94 88 70 80 79 83 84 98 93 86 94 91 77 59 40 38 37 29 24 23 23 27 33 46 54 56 51 51 55 62 65
27 27 33 50 66 65 58 60 76 93 100 99 99 98 96 96 92 84 78 78 63 69 83 75 94 81 86 88 79 95 75 82 98 99 83 75 40 32 32 32 28 21 21 23 26 31 38 50 53 52 51 53 60 63
38 33 28 31 57 74 59 56 85 99 97 100 99 96 96 79 82 74 71 62 62 71 77 77 81 79 86 88 84 86 96 99 89 77 76 41 30 31 30 27 20 20 20 21 24 26 31 41 49 52 51 53 58 60
60 50 39 32 32 60 63 56 80 100 99 95 100 99 99 96 93 82 67 72 67 81 69 67 85 91 87 85 97 94 83 83 71 84 35 31 25 25 30 20 17 18 20 22 25 26 28 32 38 45 48 49 49 48
71 75 60 42 31 38 63 76 83 89 99 99 98 71 82 82 81 78 74 62 60 81 90 95 97 91 93 92 91 76 83 75 44 27 26 25 22 22 25 23 18 18 19 21 26 27 27 32 37 39 38 43 46 46
84 69 60 57 47 50 58 82 92 74 99 94 99 73 72 73 70 69 72 72 74 85 82 95 93 94 91 87 74 75 56 31 28 27 28 26 25 22 23 19 18 21 23 26 27 29 31 34 34 36 37 43 47 47
77 74 64 60 64 76 82 93 88 99 89 65 72 77 70 73 79 81 76 68 71 70 70 99 97 96 87 74 65 50 35 30 27 25 26 27 28 23 23 21 19 20 21 23 25 27 31 34 38 41 42 45 47 48
81 80 70 67 74 94 91 96 98 98 87 81 86 82 86 81 75 85 86 79 82 83 95 97 89 74 72 50 49 48 44 41 42 51 42 32 30 34 36 32 25 22 21 21 27 36 40 36 41 40 50 45 46 45
84 83 78 78 95 98 87 88 100 96 96 96 82 78 80 90 95 96 100 96 96 98 94 77 66 60 51 48 53 52 52 48 37 33 35 37 41 40 37 35 36 35 27 33 39 51 60 61 33 41 59 51 44 46
88 82 84 77 97 93 88 74 93 81 90 98 98 98 100 98 95 96 98 98 95 84 71 65 62 63 64 64 58 61 58 60 57 54 50 44 42 45 48 48 44 44 50 51 50 61 76 92 64 46 81 68 48 48
91 96 99 97 98 91 78 75 97 86 92 96 94 98 98 98 94 97 98 97 78 70 70 74 70 62 65 61 66 68 71 72 70 68 65 62 59 57 56 56 53 54 50 49 51 69 96 99 100 100 99 78 53 49
94 98 98 97 96 89 96 100 96 88 94 90 96 94 98 96 97 98 97 94 68 63 72 72 78 79 78 78 80 76 68 75 77 76 74 73 70 68 66 66 67 69 68 67 67 68 69 78 100 100 99 80 54 51
98 98 96 94 99 99 97 97 96 96 96 96 96 96 95 98 96 97 94 78 55 60 68 66 76 79 80 75 72 71 68 77 76 78 74 79 80 78 79 76 74 74 72 74 73 72 72 82 97 79 58 55 55 58
97 86 96 89 87 96 94 96 98 95 96 98 95 96 96 96 96 94 86 53 54 50 48 48 54 68 75 72 70 67 63 68 71 75 74 69 78 79 79 80 79 71 72 73 75 77 77 80 82 78 71 69 69 68
96 91 97 87 89 91 92 87 85 92 96 95 95 96 96 96 94 82 59 46 43 36 35 40 44 47 44 47 57 61 68 71 74 70 58 67 76 75 75 76 74 71 75 77 78 67 56 57 68 72 75 75 71 66
89 85 80 82 96 91 91 96 97 99 92 85 90 97 94 91 80 47 38 35 36 37 37 37 36 39 42 42 42 46 54 60 61 66 65 63 68 69 73 75 75 76 76 71 63 58 57 58 60 62 65 67 68 70
92 80 93 97 100 98 93 91 91 81 65 84 86 83 87 62 46 43 40 41 39 41 42 40 40 39 39 41 42 40 42 47 58 63 58 62 53 46 58 65 69 62 58 56 56 61 61 64 66 66 69 72 74 77
94 96 98 98 96 95 80 80 72 59 62 60 60 57 52 45 43 43 43 43 43 43 42 43 43 43 43 44 43 42 41 45 48 54 52 55 50 46 48 46 45 47 48 49 53 57 59 63 66 66 72 78 80 77
64 96 97 96 86 67 65 68 72 68 66 67 63 67 61 57 51 46 47 47 48 46 45 45 41 36 38 38 41 44 45 43 43 52 62 62 47 48 42 40 40 41 44 48 54 60 63 64 65 67 71 73 71 70
99 99 87 100 87 78 76 81 77 77 74 80 73 71 69 70 71 53 43 46 50 49 41 35 32 23 24 28 36 41 44 48 46 59 66 73 59 45 47 54 63 45 47 53 58 63 67 68 68 68 67 65 64 54
100 100 100 95 100 99 91 90 100 100 100 100 92 77 76 72 71 56 48 47 46 43 34 28 32 37 41 44 44 46 48 49 52 63 66 59 45 51 64 84 71 49 49 55 64 70 80 80 73 65 61 53 43 42

GFSWCAN_850_rhum_111.txt.gz
RH
83 80 79 77 78 78 79 81 81 84 93 90 86 87 64 59 48 28 38 50 58 68 58 49 47 55 61 58 40 56 57 64 64 59 44 40 43 34 43 28 37 46 58 69 61 64 73 36 47 39 27 31 34 39
84 86 86 86 73 72 77 76 76 81 88 90 85 84 90 71 73 43 40 47 55 66 59 44 50 46 52 57 53 57 48 52 48 54 48 42 48 43 38 38 30 40 28 29 39 44 29 40 27 34 40 39 38 40
100 99 95 82 88 90 78 78 73 80 81 87 86 84 88 85 77 71 43 43 59 73 62 67 58 50 60 57 52 53 52 55 66 69 56 49 62 40 48 42 39 32 31 40 31 26 27 28 34 34 37 38 41 44
97 98 100 98 97 99 92 83 72 79 94 92 89 88 94 91 82 86 71 47 51 68 83 56 50 53 51 55 64 64 68 68 69 72 65 56 54 43 49 38 42 36 36 41 38 32 30 31 32 33 34 39 46 52
99 99 96 93 90 90 88 81 75 69 90 100 99 99 100 99 90 89 81 60 55 64 80 66 57 61 65 63 62 68 78 84 79 76 83 74 56 60 53 54 62 43 40 45 43 29 30 29 35 38 46 50 53 55
91 93 92 94 92 90 88 88 84 72 88 91 100 99 99 99 95 100 53 62 72 77 86 90 67 67 64 66 77 77 80 93 85 78 70 68 72 66 67 58 37 33 41 39 34 34 36 36 44 47 50 54 58 56
76 75 72 74 79 86 91 88 78 65 83 98 100 100 100 100 99 99 70 67 69 76 81 85 77 62 69 75 85 92 92 98 92 88 86 74 77 82 75 65 32 28 36 41 42 42 42 45 52 54 55 56 59 57
68 61 64 64 60 62 64 69 64 57 56 76 96 100 100 100 100 99 94 96 86 72 66 95 91 68 73 88 83 98 97 99 95 85 92 89 82 86 88 55 45 42 42 41 48 50 48 47 49 55 58 63 61 48
73 67 79 71 62 57 52 53 58 59 64 99 90 99 100 100 98 94 96 95 93 84 86 92 90 90 76 87 89 96 94 86 88 86 80 79 71 94 69 57 50 46 53 51 48 53 54 55 58 58 55 50 56 57
63 61 59 60 60 59 53 49 47 58 76 97 100 100 99 99 97 99 94 98 100 100 100 96 79 78 75 82 79 79 86 78 89 75 88 93 78 60 56 55 56 49 45 56 55 56 52 51 44 40 50 56 59 62
42 47 54 55 53 63 60 53 54 69 73 97 100 98 100 99 99 98 99 99 98 96 97 95 84 71 72 76 67 74 82 79 96 80 89 82 81 59 51 50 50 53 50 46 44 47 46 45 36 44 50 58 58 61
30 28 31 42 52 59 57 53 62 73 90 98 99 100 99 99 100 100 99 89 92 87 78 84 84 82 81 70 68 83 84 85 92 81 88 92 68 49 45 40 38 45 56 59 46 47 43 31 42 46 50 56 55 60
35 31 29 29 36 56 62 52 58 77 95 98 100 100 98 99 100 96 94 94 92 77 87 88 86 78 79 77 75 80 94 91 74 86 85 68 53 41 36 35 35 34 41 45 36 30 26 32 45 51 52 50 52 59
46 43 37 32 34 48 64 65 63 88 96 95 99 98 98 95 93 84 78 80 75 84 94 85 85 76 76 82 72 91 69 74 89 91 78 67 47 37 34 37 34 25 23 21 21 24 26 31 39 48 51 52 52 54
52 49 39 33 34 35 53 72 64 90 99 98 99 95 96 85 88 80 78 66 60 80 80 93 96 95 94 96 91 91 92 90 76 73 75 52 33 32 30 32 30 24 21 19 20 21 23 28 32 38 46 49 51 55
62 63 56 49 42 30 33 67 77 84 98 98 99 99 95 96 91 95 83 88 71 86 87 91 94 95 93 91 96 90 85 80 75 85 32 22 25 24 24 25 24 22 20 20 21 22 25 27 26 29 36 41 44 49
74 79 74 60 61 50 31 63 91 97 85 99 98 73 74 70 72 78 85 76 76 85 94 98 96 90 94 95 92 73 84 70 50 29 24 24 23 27 28 23 21 22 20 21 21 22 26 30 30 32 29 32 38 43
91 82 74 66 68 67 63 76 90 97 98 73 95 78 83 67 61 59 57 70 78 81 89 93 90 96 92 94 89 74 62 46 46 38 31 24 24 26 28 29 34 32 21 22 21 21 24 28 29 28 31 35 41 43
89 86 79 72 73 83 93 85 76 93 95 65 57 59 63 70 73 71 68 68 74 74 77 98 97 92 72 54 58 52 54 54 61 49 41 35 36 39 36 34 32 31 23 22 24 21 23 28 30 31 35 40 47 64
94 88 75 74 92 98 98 86 91 82 68 60 73 77 64 62 62 62 69 79 84 92 97 97 78 62 56 51 51 52 48 46 50 54 51 45 46 44 43 39 32 33 35 34 32 27 25 27 31 34 46 73 88 94
98 93 85 85 99 98 90 84 100 100 73 72 67 76 71 66 78 85 86 91 97 94 85 68 64 61 54 50 49 50 51 50 51 49 50 52 51 50 49 46 45 44 44 43 42 38 38 41 44 36 52 73 94 99
96 90 84 93 98 98 98 94 96 81 81 90 97 96 88 78 81 86 92 100 95 84 79 71 63 61 62 61 59 59 59 59 60 62 62 63 63 62 62 62 60 58 54 49 47 48 50 53 54 52 72 85 94 99
94 93 99 96 98 98 90 74 85 75 79 70 82 85 78 73 74 87 98 98 77 68 65 71 67 68 71 66 67 66 66 67 69 70 71 72 72 70 70 71 70 67 66 64 62 60 58 66 96 97 73 78 100 100
98 98 97 98 98 92 95 96 93 71 67 73 73 75 66 62 71 97 89 69 63 57 58 62 71 72 72 75 77 75 71 77 77 79 79 80 81 80 79 78 76 74 72 69 68 71 72 73 79 75 70 74 98 99
98 98 98 97 97 94 97 92 88 78 79 72 78 80 82 93 93 90 79 57 53 60 60 62 69 72 73 68 63 66 62 74 75 80 80 79 79 79 83 84 82 82 81 82 81 84 96 99 87 78 78 84 98 98
97 90 92 89 90 90 86 74 80 80 74 84 87 78 79 95 96 92 68 56 60 60 57 59 66 66 69 67 62 56 49 59 70 75 70 73 74 81 83 84 86 79 82 84 90 94 88 88 85 84 91 98 98 98
96 94 94 68 65 71 75 70 60 71 93 95 88 97 97 96 91 61 39 43 45 45 48 47 48 53 50 45 45 43 45 49 61 58 57 62 71 78 81 82 82 73 76 74 80 83 82 82 81 94 94 90 89 90
83 74 80 75 95 76 69 68 91 93 82 78 84 98 95 87 74 50 44 40 44 42 44 43 41 40 39 41 42 42 42 43 44 48 53 55 53 55 60 63 63 70 78 79 79 78 76 76 76 76 72 78 84 85
91 75 78 86 74 93 92 88 73 65 60 72 70 69 69 54 46 52 47 41 39 43 45 45 42 40 41 42 43 44 44 45 48 52 49 53 51 54 58 52 42 53 69 77 71 58 73 70 69 76 82 82 82 82
86 79 79 84 92 88 73 71 64 61 59 60 62 60 57 54 48 49 50 50 50 48 45 42 43 44 43 42 42 40 36 38 44 48 52 49 52 57 61 48 43 47 56 61 54 53 59 62 73 81 82 78 79 78
67 81 89 75 71 62 59 56 56 60 72 68 66 74 64 58 66 65 59 49 41 38 42 39 39 37 34 27 27 32 34 29 33 41 46 46 47 59 67 52 43 43 46 48 47 53 61 70 77 77 73 76 79 80
84 89 79 80 72 61 64 66 73 77 74 83 77 75 73 73 71 59 50 49 47 45 34 39 44 42 37 29 31 36 41 41 43 45 52 54 52 62 88 63 42 45 46 45 47 55 62 68 75 74 76 79 80 80
97 99 93 80 87 85 83 78 99 99 97 90 80 73 73 74 72 55 50 49 47 46 45 41 38 36 38 44 47 46 49 48 48 50 51 57 68 79 87 84 64 77 82 71 54 61 66 72 74 75 76 77 75 74

GFSWCAN_850_rhum_114.txt.gz
RH
72 76 81 79 83 85 82 80 77 74 79 81 84 84 83 85 77 59 49 41 44 65 40 45 41 46 48 51 52 56 61 68 72 76 63 57 55 44 48 37 64 76 90 88 76 84 87 43 48 46 36 29 30 34
77 72 72 73 72 73 77 84 87 79 76 78 85 82 82 85 87 82 62 52 45 51 44 41 41 40 51 53 53 49 52 54 54 70 67 60 60 51 50 56 32 46 46 55 61 65 39 38 33 31 33 37 38 38
89 86 79 81 80 73 71 87 97 88 80 78 93 90 81 83 89 86 86 70 56 68 62 65 50 42 41 44 50 54 51 52 57 66 72 71 75 62 66 59 48 37 28 47 39 35 30 28 33 31 34 36 35 38
79 84 88 90 90 91 92 95 94 94 81 80 98 100 93 88 86 85 83 90 80 61 85 56 49 49 46 46 53 58 54 65 68 68 75 79 72 46 61 54 58 47 40 45 44 37 31 31 30 30 30 32 34 39
84 83 88 92 92 89 90 89 88 90 84 76 96 100 100 94 88 83 85 83 66 68 91 58 60 64 64 62 59 65 70 70 76 79 95 93 65 64 58 61 63 49 43 46 46 33 34 31 33 33 33 32 39 39
84 86 89 92 92 85 89 94 95 93 93 84 89 98 100 100 98 96 90 66 69 71 75 96 78 68 64 61 66 73 73 82 82 80 78 69 67 67 93 89 48 36 40 40 36 36 35 34 35 36 40 40 44 50
84 80 78 77 75 76 87 86 86 85 72 63 69 93 97 100 100 99 84 75 85 85 76 86 85 75 64 74 81 93 95 96 90 85 84 81 78 70 96 74 37 32 32 36 37 38 42 40 41 42 43 46 53 52
65 75 73 75 76 73 67 63 62 68 70 65 64 68 83 100 100 99 100 100 100 93 78 94 91 75 71 90 91 98 95 98 94 91 88 91 81 86 96 61 51 49 46 43 38 38 40 43 45 48 50 51 54 57
72 79 73 70 78 73 62 58 54 53 62 58 67 80 96 98 100 98 100 100 100 93 96 94 96 94 76 86 87 91 90 83 88 98 91 88 91 96 76 63 59 54 49 47 45 42 45 46 48 48 50 54 53 44
47 61 71 64 58 57 59 58 52 48 50 66 88 98 97 99 100 100 100 100 100 100 100 98 79 97 69 84 86 83 86 83 92 81 82 98 82 62 57 53 51 52 54 47 51 52 46 49 46 41 38 36 43 51
30 37 45 48 50 53 54 63 58 53 60 82 94 96 93 97 99 100 100 99 99 98 99 99 89 83 71 88 84 76 92 90 95 87 92 92 89 65 48 47 42 42 45 52 53 49 44 42 40 42 36 40 47 55
37 28 27 29 35 44 51 59 58 60 85 98 100 97 99 97 100 99 99 98 99 88 83 85 86 87 80 69 77 80 95 91 96 86 91 91 82 55 40 33 32 32 41 45 55 56 51 49 47 34 37 42 47 55
41 39 37 33 30 33 44 61 60 65 82 99 89 98 99 98 100 98 96 99 97 81 82 85 90 80 78 72 83 93 99 93 77 89 92 87 59 36 30 30 36 38 33 49 57 58 55 46 41 28 36 45 49 48
51 44 45 45 43 44 40 55 68 73 90 85 100 98 98 89 98 91 92 90 74 79 85 83 85 79 75 92 87 98 86 84 98 94 89 88 29 28 29 27 34 36 29 26 27 36 32 27 25 29 33 42 45 45
68 55 49 51 52 47 38 46 74 78 82 98 99 95 94 86 88 83 81 76 64 77 82 90 92 92 99 99 98 98 97 95 94 87 85 34 37 27 25 24 27 26 29 25 22 22 22 25 27 27 32 35 43 45
84 75 66 58 55 47 36 36 81 98 98 98 98 95 96 96 92 95 82 80 76 77 87 93 87 91 95 97 98 94 96 92 82 88 41 30 33 42 37 30 28 28 31 30 29 25 21 21 25 28 32 31 34 40
91 98 80 67 60 53 50 57 75 98 98 99 98 89 80 74 80 74 79 78 80 84 98 98 98 90 97 98 99 96 95 87 59 50 44 49 51 42 38 35 30 35 36 38 36 33 33 22 22 29 30 24 30 32
91 90 93 84 69 74 89 91 80 82 99 98 94 66 71 79 73 71 62 71 78 85 88 94 86 100 95 97 69 66 55 49 42 41 50 44 43 48 46 43 37 40 39 41 40 37 35 32 28 22 24 28 35 38
74 87 97 94 90 97 97 98 96 96 80 61 63 67 64 62 65 71 75 73 69 73 82 99 96 86 69 54 56 51 52 55 56 53 51 50 54 50 47 49 47 45 44 43 45 41 37 37 29 27 27 32 31 34
68 85 95 97 99 98 98 98 98 87 66 56 59 68 76 71 63 63 62 59 60 80 94 90 81 67 60 54 50 48 47 47 50 53 56 53 48 48 49 49 49 50 51 52 52 49 46 45 45 42 38 29 32 36
76 84 98 99 99 98 95 98 98 97 86 71 56 61 62 57 61 70 71 69 78 75 78 75 71 64 59 57 55 56 55 55 58 56 54 54 55 56 56 57 58 60 61 63 62 60 58 58 54 54 51 45 47 58
87 92 99 99 98 98 98 96 95 79 92 89 88 78 72 77 75 72 69 83 80 76 78 74 69 68 67 66 64 64 63 63 64 67 66 66 67 67 67 68 69 70 70 70 70 70 69 68 65 63 61 58 68 80
99 100 99 98 98 98 98 96 97 96 97 94 73 84 83 69 65 62 80 75 71 75 74 76 77 78 77 71 68 69 69 69 74 72 70 73 73 74 74 74 74 77 77 77 77 75 73 72 72 73 72 71 86 99
98 98 98 98 97 97 99 99 98 83 74 84 88 78 79 58 52 79 81 58 54 58 68 68 68 71 75 76 78 76 65 73 75 71 76 80 78 76 79 81 82 82 82 82 81 80 78 78 76 76 76 84 95 99
98 98 98 98 96 98 97 100 100 97 92 87 84 86 89 66 93 83 71 57 53 55 54 54 56 57 60 61 59 60 61 68 70 72 69 68 71 79 81 81 80 78 79 85 86 85 84 85 86 86 86 95 98 98
97 94 96 90 96 93 91 95 97 91 79 82 82 62 60 78 80 81 63 52 50 48 45 52 59 60 66 76 85 82 67 60 70 72 54 58 63 67 70 74 78 71 72 82 95 98 92 87 93 98 97 98 98 98
96 97 91 79 82 83 87 63 54 80 84 86 90 83 95 97 90 62 52 50 50 38 39 47 57 86 96 91 82 71 58 51 48 47 47 48 49 55 68 70 65 60 67 74 79 86 89 92 94 98 98 98 98 97
87 72 89 84 92 74 77 80 92 86 85 63 79 98 98 89 60 41 39 37 36 40 48 46 50 52 65 54 48 48 46 45 47 48 49 48 45 44 45 49 64 63 61 61 68 84 90 92 94 97 97 89 84 90
97 73 73 86 76 88 89 86 78 57 52 53 69 64 59 51 49 51 48 49 50 50 49 47 44 45 46 51 49 45 43 38 48 50 44 45 37 32 32 40 55 60 61 50 56 76 88 90 85 87 84 85 83 88
85 65 74 83 91 91 79 74 65 54 57 56 54 56 57 56 51 45 52 54 53 52 50 50 49 54 57 58 57 44 32 32 34 37 44 38 36 41 44 52 59 62 62 46 56 72 79 74 70 79 79 77 81 83
57 63 84 77 77 70 67 61 61 62 64 64 61 74 71 69 65 58 58 59 62 62 61 60 62 54 54 51 48 47 32 23 31 38 44 46 47 48 50 61 64 69 66 48 54 61 61 60 66 78 74 73 77 76
62 68 71 76 73 64 65 68 73 74 72 72 75 72 72 79 78 67 60 59 56 56 52 53 55 47 40 45 44 41 45 48 47 50 54 54 53 52 53 56 61 72 74 54 56 58 56 60 72 71 71 73 75 79
86 76 80 83 76 86 80 78 88 93 83 75 69 70 74 73 74 60 57 54 51 42 36 35 36 37 41 45 49 51 53 52 49 50 52 51 55 55 55 62 66 84 74 60 82 96 71 67 72 71 73 77 80 82

GFSWCAN_850_rhum_117.txt.gz
RH
78 76 73 73 73 68 67 66 67 69 73 74 73 83 81 79 82 82 73 69 59 49 47 42 45 45 51 54 59 53 58 70 80 80 79 71 66 51 50 51 78 82 91 89 81 79 89 46 48 44 38 29 29 27
83 84 75 75 75 70 67 66 65 69 74 81 77 80 88 82 82 89 85 79 80 68 58 57 54 49 47 47 51 48 53 61 63 82 79 73 66 63 58 60 47 62 57 74 70 67 44 41 36 31 31 27 29 30
98 94 97 92 86 81 82 75 72 69 82 85 85 88 90 93 90 89 89 83 80 77 65 61 51 46 42 46 50 56 53 51 56 64 72 82 82 75 76 69 53 44 39 52 47 43 46 38 34 34 34 36 33 34
98 92 88 85 87 88 89 88 87 87 86 84 82 92 100 100 99 97 94 90 86 74 80 58 47 52 54 51 50 58 60 62 66 69 69 88 84 58 70 58 60 51 52 51 47 36 33 31 30 30 32 32 30 30
94 90 86 83 85 88 90 90 87 86 84 89 90 88 94 100 100 99 97 88 71 68 73 58 64 67 66 63 66 62 70 71 70 72 91 97 80 71 69 76 61 50 49 59 54 33 35 33 31 31 32 32 33 33
87 84 82 80 82 87 89 89 85 84 87 92 91 76 87 99 100 100 93 71 70 80 83 94 78 75 73 65 62 67 72 81 80 78 84 72 70 68 92 96 66 35 36 39 41 36 36 34 35 38 38 36 36 37
66 68 70 72 71 72 75 76 81 81 82 80 71 71 87 88 100 100 88 81 92 98 87 86 75 78 65 68 75 82 88 92 89 85 88 83 80 71 94 96 42 40 39 40 42 47 48 43 44 40 42 42 44 45
62 54 61 65 68 68 64 64 62 60 60 66 71 70 69 71 84 100 100 100 100 100 98 98 92 81 75 82 88 93 92 94 92 94 90 92 83 79 93 66 60 56 53 47 39 39 47 47 42 43 44 46 46 48
52 58 75 72 67 71 72 67 61 58 53 54 58 54 50 74 96 99 100 100 100 99 99 99 98 90 80 87 90 91 88 94 86 99 92 91 93 97 76 69 63 55 57 56 51 55 52 47 45 51 51 50 50 45
33 47 62 75 71 64 59 57 59 56 50 52 62 62 91 94 100 99 100 100 100 100 100 99 86 97 73 82 87 92 88 88 92 87 79 98 90 65 62 52 47 44 43 47 57 65 60 57 50 45 49 45 40 34
38 32 34 45 50 54 56 56 61 62 59 67 88 91 98 99 94 99 100 100 99 98 100 98 94 86 80 88 88 84 97 91 91 89 90 93 90 74 43 45 38 38 45 44 46 53 55 60 57 46 42 42 35 38
46 43 37 31 32 38 46 55 60 63 80 94 98 93 87 99 99 99 98 99 99 94 93 95 90 88 82 80 92 94 96 95 92 92 96 90 83 39 42 34 32 33 31 28 40 47 51 58 58 52 48 46 36 44
57 49 43 36 34 33 33 44 58 60 80 98 82 80 99 99 99 98 95 99 99 83 87 88 89 85 84 77 84 99 98 91 86 90 87 85 56 33 40 42 30 30 31 29 25 31 50 53 56 56 52 48 37 46
72 64 52 43 39 39 35 38 57 68 82 80 96 91 94 94 93 92 93 90 73 80 81 83 83 79 79 92 90 100 88 99 97 98 90 87 41 40 42 40 32 25 32 34 36 37 33 28 25 24 27 30 34 41
76 79 68 55 48 51 48 43 56 75 88 98 93 94 90 83 80 87 81 82 75 77 78 90 95 97 98 99 97 98 100 97 94 86 85 44 51 48 43 37 41 34 34 33 35 41 41 36 35 37 32 27 31 33
72 83 92 79 61 55 55 52 67 90 98 97 100 90 85 95 90 94 91 88 81 70 81 94 91 96 95 95 100 96 96 94 83 89 49 50 48 46 48 43 42 40 42 44 38 38 43 37 38 41 37 35 25 29
69 86 81 84 85 68 62 68 82 94 90 99 98 98 86 94 84 76 75 75 82 82 94 96 99 91 94 99 99 94 96 75 49 44 46 43 43 34 34 40 43 46 49 50 45 45 43 43 44 43 43 35 36 32
74 68 72 76 86 98 97 98 86 83 99 99 100 67 87 84 80 77 71 71 78 80 81 92 64 92 87 97 71 74 56 48 53 51 47 40 41 42 47 54 54 54 53 49 48 49 48 49 49 50 51 45 39 34
60 63 67 73 82 99 97 98 96 97 90 68 62 59 70 67 63 60 61 67 71 69 72 91 99 94 82 58 59 57 56 57 57 55 56 53 52 48 49 52 54 55 53 53 54 55 55 55 56 57 57 55 49 45
58 63 66 68 86 98 98 98 98 95 96 66 54 53 58 58 51 55 56 58 66 70 77 80 67 57 55 51 52 57 58 57 54 48 48 50 54 56 56 57 58 59 61 62 63 64 64 65 65 64 63 63 62 61
69 59 64 76 93 99 97 97 98 93 72 64 53 59 57 58 64 68 73 71 80 74 74 64 60 56 54 54 54 57 59 59 59 58 59 60 59 60 64 67 70 72 74 74 75 75 74 72 71 71 72 72 71 69
73 69 65 76 98 97 98 97 97 91 93 89 82 64 63 68 63 62 60 67 72 66 66 67 68 68 68 68 67 65 67 68 70 71 73 73 74 72 70 71 73 77 78 80 84 84 81 81 80 81 83 81 78 77
81 87 84 95 97 96 94 95 98 96 99 98 81 86 90 81 61 57 70 60 60 57 59 65 65 63 70 69 71 74 73 80 82 81 76 78 81 79 79 80 82 83 82 83 83 83 84 83 85 84 84 83 82 80
89 98 97 98 98 95 97 98 98 98 98 96 96 96 93 72 56 70 84 54 52 53 56 57 58 67 72 78 82 78 71 78 81 79 80 85 84 80 82 78 76 78 79 96 99 91 90 92 95 96 95 95 93 89
99 97 98 97 98 97 97 97 95 100 98 95 88 95 87 58 86 99 69 50 48 49 47 44 57 60 63 61 62 62 62 64 68 80 85 98 97 88 77 69 63 55 58 68 70 77 76 77 84 96 99 99 99 98
96 94 96 94 95 94 94 100 100 98 96 94 95 66 65 90 93 84 79 43 44 42 41 42 49 55 59 59 68 71 83 87 94 99 84 82 85 76 74 74 64 47 45 50 57 67 75 81 86 96 99 98 99 99
96 96 97 92 94 91 90 77 70 87 91 90 94 99 98 96 93 76 43 40 40 38 37 36 40 54 58 59 59 67 62 59 66 74 64 69 64 64 70 65 54 38 43 53 59 62 75 95 92 91 99 98 98 98
85 87 94 86 95 87 88 95 89 85 84 64 82 91 87 86 61 42 39 34 36 36 40 38 38 41 47 52 54 58 56 54 53 52 55 57 51 43 30 28 29 33 44 51 58 64 69 83 71 83 98 98 94 97
100 88 81 92 95 96 85 82 82 53 43 46 63 60 56 46 42 43 42 40 41 46 48 50 48 55 58 59 56 52 55 57 60 64 62 57 41 23 23 37 42 41 47 54 64 64 60 56 63 82 87 81 75 81
98 76 86 92 90 92 68 57 49 41 46 50 51 53 54 52 48 45 48 49 51 52 49 51 57 66 64 66 69 62 52 52 55 62 67 62 39 38 42 45 50 53 54 65 67 61 60 54 60 67 68 68 75 88
58 67 72 71 78 56 56 51 56 59 60 60 57 68 66 61 57 58 60 59 59 60 62 63 59 48 66 66 69 76 69 46 53 56 55 50 51 54 54 56 60 63 62 66 71 62 59 57 59 60 68 82 92 84
60 66 74 84 72 61 64 62 65 76 75 76 79 74 77 81 83 75 67 66 65 64 56 54 53 37 26 35 41 43 46 52 49 50 52 54 56 58 60 63 63 63 64 66 73 68 60 58 68 77 82 77 77 80
82 72 67 69 78 72 64 72 82 95 81 76 72 71 73 74 76 65 59 56 55 54 51 47 48 47 36 32 35 38 41 44 46 46 45 46 50 58 60 65 63 62 65 70 76 68 72 94 95 90 95 85 82 84